<?xml version="1.0" encoding="UTF-8" standalone="no" ?>
<gpx xmlns="http://www.topografix.com/GPX/1/1" xmlns:xsi="http://www.w3.org/2001/XMLSchema-instance" xsi:schemaLocation="http://www.topografix.com/GPX/1/1 http://www.topografix.com/GPX/1/1/gpx.xsd" version="1.1" creator="VisuGPX - https://www.visugpx.com">
  <metadata>
    <name>Bréel Sud (14)</name>
    <desc><![CDATA[Belle rando en Suisse Normande avec max de singles]]></desc>
  </metadata>
  <trk>
    <name><![CDATA[SN16 BVA Samatin fait]]></name>
    <trkseg>
      <trkpt lat="48.81323" lon="-0.3909">
        <ele>133</ele>
        <time>2016-05-21T08:42:06Z</time>
      </trkpt>
      <trkpt lat="48.8133" lon="-0.39115">
        <ele>133</ele>
        <time>2016-05-21T08:42:09Z</time>
      </trkpt>
      <trkpt lat="48.81333" lon="-0.39133">
        <ele>132</ele>
        <time>2016-05-21T08:42:12Z</time>
      </trkpt>
      <trkpt lat="48.81335" lon="-0.3916">
        <ele>131</ele>
        <time>2016-05-21T08:42:15Z</time>
      </trkpt>
      <trkpt lat="48.81338" lon="-0.39188">
        <ele>130</ele>
        <time>2016-05-21T08:42:18Z</time>
      </trkpt>
      <trkpt lat="48.81333" lon="-0.39208">
        <ele>129</ele>
        <time>2016-05-21T08:42:25Z</time>
      </trkpt>
      <trkpt lat="48.81318" lon="-0.39215">
        <ele>128</ele>
        <time>2016-05-21T08:43:08Z</time>
      </trkpt>
      <trkpt lat="48.813" lon="-0.39213">
        <ele>126</ele>
        <time>2016-05-21T08:43:15Z</time>
      </trkpt>
      <trkpt lat="48.81285" lon="-0.39215">
        <ele>126</ele>
        <time>2016-05-21T08:43:19Z</time>
      </trkpt>
      <trkpt lat="48.8126" lon="-0.3922">
        <ele>127</ele>
        <time>2016-05-21T08:43:26Z</time>
      </trkpt>
      <trkpt lat="48.81245" lon="-0.3922">
        <ele>126</ele>
        <time>2016-05-21T08:43:29Z</time>
      </trkpt>
      <trkpt lat="48.8123" lon="-0.3922">
        <ele>125</ele>
        <time>2016-05-21T08:43:32Z</time>
      </trkpt>
      <trkpt lat="48.81208" lon="-0.3922">
        <ele>125</ele>
        <time>2016-05-21T08:43:36Z</time>
      </trkpt>
      <trkpt lat="48.81185" lon="-0.39228">
        <ele>123</ele>
        <time>2016-05-21T08:43:39Z</time>
      </trkpt>
      <trkpt lat="48.81173" lon="-0.39255">
        <ele>122</ele>
        <time>2016-05-21T08:43:42Z</time>
      </trkpt>
      <trkpt lat="48.81163" lon="-0.39283">
        <ele>122</ele>
        <time>2016-05-21T08:43:45Z</time>
      </trkpt>
      <trkpt lat="48.81158" lon="-0.39308">
        <ele>123</ele>
        <time>2016-05-21T08:43:48Z</time>
      </trkpt>
      <trkpt lat="48.8115" lon="-0.3934">
        <ele>124</ele>
        <time>2016-05-21T08:43:51Z</time>
      </trkpt>
      <trkpt lat="48.8115" lon="-0.39363">
        <ele>124</ele>
        <time>2016-05-21T08:43:55Z</time>
      </trkpt>
      <trkpt lat="48.81145" lon="-0.39388">
        <ele>124</ele>
        <time>2016-05-21T08:43:59Z</time>
      </trkpt>
      <trkpt lat="48.81143" lon="-0.3942">
        <ele>122</ele>
        <time>2016-05-21T08:44:04Z</time>
      </trkpt>
      <trkpt lat="48.8114" lon="-0.39443">
        <ele>120</ele>
        <time>2016-05-21T08:44:07Z</time>
      </trkpt>
      <trkpt lat="48.81135" lon="-0.39463">
        <ele>120</ele>
        <time>2016-05-21T08:44:10Z</time>
      </trkpt>
      <trkpt lat="48.81125" lon="-0.3948">
        <ele>120</ele>
        <time>2016-05-21T08:44:16Z</time>
      </trkpt>
      <trkpt lat="48.81115" lon="-0.39465">
        <ele>121</ele>
        <time>2016-05-21T08:44:25Z</time>
      </trkpt>
      <trkpt lat="48.81108" lon="-0.39445">
        <ele>121</ele>
        <time>2016-05-21T08:44:30Z</time>
      </trkpt>
      <trkpt lat="48.811" lon="-0.39425">
        <ele>122</ele>
        <time>2016-05-21T08:44:35Z</time>
      </trkpt>
      <trkpt lat="48.8109" lon="-0.39403">
        <ele>117</ele>
        <time>2016-05-21T08:45:00Z</time>
      </trkpt>
      <trkpt lat="48.8108" lon="-0.39388">
        <ele>119</ele>
        <time>2016-05-21T08:45:06Z</time>
      </trkpt>
      <trkpt lat="48.81068" lon="-0.39398">
        <ele>119</ele>
        <time>2016-05-21T08:45:09Z</time>
      </trkpt>
      <trkpt lat="48.8106" lon="-0.39418">
        <ele>118</ele>
        <time>2016-05-21T08:45:14Z</time>
      </trkpt>
      <trkpt lat="48.81045" lon="-0.39455">
        <ele>117</ele>
        <time>2016-05-21T08:45:19Z</time>
      </trkpt>
      <trkpt lat="48.81038" lon="-0.39473">
        <ele>116</ele>
        <time>2016-05-21T08:45:23Z</time>
      </trkpt>
      <trkpt lat="48.8103" lon="-0.3949">
        <ele>115</ele>
        <time>2016-05-21T08:45:27Z</time>
      </trkpt>
      <trkpt lat="48.81023" lon="-0.39508">
        <ele>115</ele>
        <time>2016-05-21T08:45:33Z</time>
      </trkpt>
      <trkpt lat="48.81015" lon="-0.39525">
        <ele>115</ele>
        <time>2016-05-21T08:45:39Z</time>
      </trkpt>
      <trkpt lat="48.81008" lon="-0.39543">
        <ele>114</ele>
        <time>2016-05-21T08:45:46Z</time>
      </trkpt>
      <trkpt lat="48.80998" lon="-0.3956">
        <ele>115</ele>
        <time>2016-05-21T08:45:54Z</time>
      </trkpt>
      <trkpt lat="48.80988" lon="-0.39575">
        <ele>115</ele>
        <time>2016-05-21T08:46:06Z</time>
      </trkpt>
      <trkpt lat="48.80975" lon="-0.39588">
        <ele>114</ele>
        <time>2016-05-21T08:46:15Z</time>
      </trkpt>
      <trkpt lat="48.8096" lon="-0.39593">
        <ele>113</ele>
        <time>2016-05-21T08:46:21Z</time>
      </trkpt>
      <trkpt lat="48.80943" lon="-0.39598">
        <ele>112</ele>
        <time>2016-05-21T08:46:33Z</time>
      </trkpt>
      <trkpt lat="48.80928" lon="-0.396">
        <ele>111</ele>
        <time>2016-05-21T08:46:38Z</time>
      </trkpt>
      <trkpt lat="48.80913" lon="-0.39608">
        <ele>111</ele>
        <time>2016-05-21T08:46:47Z</time>
      </trkpt>
      <trkpt lat="48.80895" lon="-0.39618">
        <ele>111</ele>
        <time>2016-05-21T08:46:54Z</time>
      </trkpt>
      <trkpt lat="48.80878" lon="-0.39625">
        <ele>112</ele>
        <time>2016-05-21T08:47:04Z</time>
      </trkpt>
      <trkpt lat="48.8086" lon="-0.39638">
        <ele>113</ele>
        <time>2016-05-21T08:47:12Z</time>
      </trkpt>
      <trkpt lat="48.80848" lon="-0.39648">
        <ele>113</ele>
        <time>2016-05-21T08:47:16Z</time>
      </trkpt>
      <trkpt lat="48.80833" lon="-0.39658">
        <ele>114</ele>
        <time>2016-05-21T08:47:22Z</time>
      </trkpt>
      <trkpt lat="48.8082" lon="-0.39673">
        <ele>114</ele>
        <time>2016-05-21T08:47:25Z</time>
      </trkpt>
      <trkpt lat="48.8081" lon="-0.39688">
        <ele>115</ele>
        <time>2016-05-21T08:47:28Z</time>
      </trkpt>
      <trkpt lat="48.80808" lon="-0.3971">
        <ele>114</ele>
        <time>2016-05-21T08:47:33Z</time>
      </trkpt>
      <trkpt lat="48.80803" lon="-0.3973">
        <ele>113</ele>
        <time>2016-05-21T08:47:42Z</time>
      </trkpt>
      <trkpt lat="48.80793" lon="-0.39745">
        <ele>112</ele>
        <time>2016-05-21T08:47:49Z</time>
      </trkpt>
      <trkpt lat="48.80783" lon="-0.3976">
        <ele>111</ele>
        <time>2016-05-21T08:47:56Z</time>
      </trkpt>
      <trkpt lat="48.80773" lon="-0.39775">
        <ele>112</ele>
        <time>2016-05-21T08:48:01Z</time>
      </trkpt>
      <trkpt lat="48.8076" lon="-0.39788">
        <ele>113</ele>
        <time>2016-05-21T08:48:10Z</time>
      </trkpt>
      <trkpt lat="48.80748" lon="-0.398">
        <ele>112</ele>
        <time>2016-05-21T08:48:18Z</time>
      </trkpt>
      <trkpt lat="48.8073" lon="-0.39818">
        <ele>113</ele>
        <time>2016-05-21T08:48:26Z</time>
      </trkpt>
      <trkpt lat="48.80718" lon="-0.39828">
        <ele>114</ele>
        <time>2016-05-21T08:48:32Z</time>
      </trkpt>
      <trkpt lat="48.807" lon="-0.39833">
        <ele>114</ele>
        <time>2016-05-21T08:48:36Z</time>
      </trkpt>
      <trkpt lat="48.80685" lon="-0.39825">
        <ele>114</ele>
        <time>2016-05-21T08:48:38Z</time>
      </trkpt>
      <trkpt lat="48.80665" lon="-0.39815">
        <ele>112</ele>
        <time>2016-05-21T08:48:42Z</time>
      </trkpt>
      <trkpt lat="48.80645" lon="-0.39803">
        <ele>110</ele>
        <time>2016-05-21T08:48:45Z</time>
      </trkpt>
      <trkpt lat="48.80633" lon="-0.39815">
        <ele>110</ele>
        <time>2016-05-21T08:48:47Z</time>
      </trkpt>
      <trkpt lat="48.80625" lon="-0.39838">
        <ele>109</ele>
        <time>2016-05-21T08:48:50Z</time>
      </trkpt>
      <trkpt lat="48.80618" lon="-0.3986">
        <ele>109</ele>
        <time>2016-05-21T08:48:54Z</time>
      </trkpt>
      <trkpt lat="48.8061" lon="-0.3988">
        <ele>109</ele>
        <time>2016-05-21T08:48:57Z</time>
      </trkpt>
      <trkpt lat="48.80603" lon="-0.39905">
        <ele>110</ele>
        <time>2016-05-21T08:49:00Z</time>
      </trkpt>
      <trkpt lat="48.80595" lon="-0.39925">
        <ele>110</ele>
        <time>2016-05-21T08:49:04Z</time>
      </trkpt>
      <trkpt lat="48.80585" lon="-0.39945">
        <ele>110</ele>
        <time>2016-05-21T08:49:08Z</time>
      </trkpt>
      <trkpt lat="48.80575" lon="-0.3996">
        <ele>110</ele>
        <time>2016-05-21T08:49:11Z</time>
      </trkpt>
      <trkpt lat="48.80565" lon="-0.39975">
        <ele>111</ele>
        <time>2016-05-21T08:49:15Z</time>
      </trkpt>
      <trkpt lat="48.80553" lon="-0.3999">
        <ele>112</ele>
        <time>2016-05-21T08:49:20Z</time>
      </trkpt>
      <trkpt lat="48.8054" lon="-0.40003">
        <ele>113</ele>
        <time>2016-05-21T08:49:24Z</time>
      </trkpt>
      <trkpt lat="48.80528" lon="-0.40013">
        <ele>115</ele>
        <time>2016-05-21T08:49:27Z</time>
      </trkpt>
      <trkpt lat="48.80508" lon="-0.4003">
        <ele>117</ele>
        <time>2016-05-21T08:49:33Z</time>
      </trkpt>
      <trkpt lat="48.80485" lon="-0.4005">
        <ele>120</ele>
        <time>2016-05-21T08:49:41Z</time>
      </trkpt>
      <trkpt lat="48.80473" lon="-0.40065">
        <ele>121</ele>
        <time>2016-05-21T08:49:47Z</time>
      </trkpt>
      <trkpt lat="48.8045" lon="-0.40095">
        <ele>124</ele>
        <time>2016-05-21T08:49:55Z</time>
      </trkpt>
      <trkpt lat="48.80438" lon="-0.4011">
        <ele>126</ele>
        <time>2016-05-21T08:50:00Z</time>
      </trkpt>
      <trkpt lat="48.80428" lon="-0.40125">
        <ele>126</ele>
        <time>2016-05-21T08:50:05Z</time>
      </trkpt>
      <trkpt lat="48.80415" lon="-0.40145">
        <ele>127</ele>
        <time>2016-05-21T08:50:12Z</time>
      </trkpt>
      <trkpt lat="48.80403" lon="-0.40158">
        <ele>127</ele>
        <time>2016-05-21T08:50:16Z</time>
      </trkpt>
      <trkpt lat="48.8039" lon="-0.4017">
        <ele>128</ele>
        <time>2016-05-21T08:50:21Z</time>
      </trkpt>
      <trkpt lat="48.80375" lon="-0.40183">
        <ele>129</ele>
        <time>2016-05-21T08:50:26Z</time>
      </trkpt>
      <trkpt lat="48.80358" lon="-0.40193">
        <ele>130</ele>
        <time>2016-05-21T08:50:32Z</time>
      </trkpt>
      <trkpt lat="48.80343" lon="-0.40203">
        <ele>131</ele>
        <time>2016-05-21T08:50:36Z</time>
      </trkpt>
      <trkpt lat="48.80328" lon="-0.4021">
        <ele>132</ele>
        <time>2016-05-21T08:50:42Z</time>
      </trkpt>
      <trkpt lat="48.80313" lon="-0.4022">
        <ele>133</ele>
        <time>2016-05-21T08:50:46Z</time>
      </trkpt>
      <trkpt lat="48.80298" lon="-0.40228">
        <ele>133</ele>
        <time>2016-05-21T08:50:51Z</time>
      </trkpt>
      <trkpt lat="48.8028" lon="-0.40235">
        <ele>133</ele>
        <time>2016-05-21T08:50:56Z</time>
      </trkpt>
      <trkpt lat="48.80255" lon="-0.40243">
        <ele>134</ele>
        <time>2016-05-21T08:51:06Z</time>
      </trkpt>
      <trkpt lat="48.80225" lon="-0.40253">
        <ele>135</ele>
        <time>2016-05-21T08:51:14Z</time>
      </trkpt>
      <trkpt lat="48.8021" lon="-0.40255">
        <ele>136</ele>
        <time>2016-05-21T08:51:18Z</time>
      </trkpt>
      <trkpt lat="48.80195" lon="-0.4026">
        <ele>136</ele>
        <time>2016-05-21T08:51:23Z</time>
      </trkpt>
      <trkpt lat="48.80178" lon="-0.40265">
        <ele>137</ele>
        <time>2016-05-21T08:51:28Z</time>
      </trkpt>
      <trkpt lat="48.80158" lon="-0.40275">
        <ele>138</ele>
        <time>2016-05-21T08:51:36Z</time>
      </trkpt>
      <trkpt lat="48.80153" lon="-0.40295">
        <ele>140</ele>
        <time>2016-05-21T08:51:43Z</time>
      </trkpt>
      <trkpt lat="48.80158" lon="-0.40318">
        <ele>140</ele>
        <time>2016-05-21T08:51:48Z</time>
      </trkpt>
      <trkpt lat="48.8016" lon="-0.40343">
        <ele>140</ele>
        <time>2016-05-21T08:51:53Z</time>
      </trkpt>
      <trkpt lat="48.80163" lon="-0.40365">
        <ele>141</ele>
        <time>2016-05-21T08:51:58Z</time>
      </trkpt>
      <trkpt lat="48.80165" lon="-0.40388">
        <ele>141</ele>
        <time>2016-05-21T08:52:03Z</time>
      </trkpt>
      <trkpt lat="48.80153" lon="-0.404">
        <ele>142</ele>
        <time>2016-05-21T08:52:09Z</time>
      </trkpt>
      <trkpt lat="48.80145" lon="-0.40418">
        <ele>143</ele>
        <time>2016-05-21T08:52:13Z</time>
      </trkpt>
      <trkpt lat="48.80145" lon="-0.4044">
        <ele>143</ele>
        <time>2016-05-21T08:52:19Z</time>
      </trkpt>
      <trkpt lat="48.80148" lon="-0.40463">
        <ele>143</ele>
        <time>2016-05-21T08:52:23Z</time>
      </trkpt>
      <trkpt lat="48.8015" lon="-0.40488">
        <ele>144</ele>
        <time>2016-05-21T08:52:27Z</time>
      </trkpt>
      <trkpt lat="48.80153" lon="-0.40515">
        <ele>144</ele>
        <time>2016-05-21T08:52:31Z</time>
      </trkpt>
      <trkpt lat="48.80158" lon="-0.40563">
        <ele>145</ele>
        <time>2016-05-21T08:52:41Z</time>
      </trkpt>
      <trkpt lat="48.80163" lon="-0.40595">
        <ele>147</ele>
        <time>2016-05-21T08:52:46Z</time>
      </trkpt>
      <trkpt lat="48.80165" lon="-0.4062">
        <ele>147</ele>
        <time>2016-05-21T08:52:52Z</time>
      </trkpt>
      <trkpt lat="48.8016" lon="-0.4064">
        <ele>148</ele>
        <time>2016-05-21T08:52:59Z</time>
      </trkpt>
      <trkpt lat="48.8014" lon="-0.40653">
        <ele>149</ele>
        <time>2016-05-21T08:53:05Z</time>
      </trkpt>
      <trkpt lat="48.8013" lon="-0.40668">
        <ele>149</ele>
        <time>2016-05-21T08:53:07Z</time>
      </trkpt>
      <trkpt lat="48.80128" lon="-0.4069">
        <ele>149</ele>
        <time>2016-05-21T08:53:11Z</time>
      </trkpt>
      <trkpt lat="48.80128" lon="-0.40713">
        <ele>150</ele>
        <time>2016-05-21T08:53:16Z</time>
      </trkpt>
      <trkpt lat="48.80133" lon="-0.4074">
        <ele>149</ele>
        <time>2016-05-21T08:53:20Z</time>
      </trkpt>
      <trkpt lat="48.80138" lon="-0.40768">
        <ele>151</ele>
        <time>2016-05-21T08:53:25Z</time>
      </trkpt>
      <trkpt lat="48.80143" lon="-0.40788">
        <ele>150</ele>
        <time>2016-05-21T08:53:27Z</time>
      </trkpt>
      <trkpt lat="48.80148" lon="-0.40813">
        <ele>149</ele>
        <time>2016-05-21T08:53:31Z</time>
      </trkpt>
      <trkpt lat="48.80153" lon="-0.40835">
        <ele>150</ele>
        <time>2016-05-21T08:53:36Z</time>
      </trkpt>
      <trkpt lat="48.8016" lon="-0.4086">
        <ele>148</ele>
        <time>2016-05-21T08:53:39Z</time>
      </trkpt>
      <trkpt lat="48.80165" lon="-0.4088">
        <ele>149</ele>
        <time>2016-05-21T08:53:44Z</time>
      </trkpt>
      <trkpt lat="48.80163" lon="-0.40908">
        <ele>148</ele>
        <time>2016-05-21T08:53:49Z</time>
      </trkpt>
      <trkpt lat="48.80155" lon="-0.40928">
        <ele>148</ele>
        <time>2016-05-21T08:53:52Z</time>
      </trkpt>
      <trkpt lat="48.8014" lon="-0.4094">
        <ele>148</ele>
        <time>2016-05-21T08:53:57Z</time>
      </trkpt>
      <trkpt lat="48.80128" lon="-0.4095">
        <ele>148</ele>
        <time>2016-05-21T08:54:00Z</time>
      </trkpt>
      <trkpt lat="48.80115" lon="-0.40965">
        <ele>148</ele>
        <time>2016-05-21T08:54:04Z</time>
      </trkpt>
      <trkpt lat="48.801" lon="-0.40975">
        <ele>147</ele>
        <time>2016-05-21T08:54:08Z</time>
      </trkpt>
      <trkpt lat="48.80088" lon="-0.40985">
        <ele>147</ele>
        <time>2016-05-21T08:54:11Z</time>
      </trkpt>
      <trkpt lat="48.80085" lon="-0.41008">
        <ele>147</ele>
        <time>2016-05-21T08:54:16Z</time>
      </trkpt>
      <trkpt lat="48.8009" lon="-0.4103">
        <ele>148</ele>
        <time>2016-05-21T08:54:21Z</time>
      </trkpt>
      <trkpt lat="48.80095" lon="-0.4105">
        <ele>147</ele>
        <time>2016-05-21T08:54:23Z</time>
      </trkpt>
      <trkpt lat="48.80103" lon="-0.41085">
        <ele>147</ele>
        <time>2016-05-21T08:54:30Z</time>
      </trkpt>
      <trkpt lat="48.80108" lon="-0.41118">
        <ele>147</ele>
        <time>2016-05-21T08:54:35Z</time>
      </trkpt>
      <trkpt lat="48.80113" lon="-0.4114">
        <ele>147</ele>
        <time>2016-05-21T08:54:40Z</time>
      </trkpt>
      <trkpt lat="48.801" lon="-0.41155">
        <ele>147</ele>
        <time>2016-05-21T08:54:45Z</time>
      </trkpt>
      <trkpt lat="48.80088" lon="-0.41165">
        <ele>147</ele>
        <time>2016-05-21T08:54:49Z</time>
      </trkpt>
      <trkpt lat="48.8008" lon="-0.41185">
        <ele>147</ele>
        <time>2016-05-21T08:54:53Z</time>
      </trkpt>
      <trkpt lat="48.80078" lon="-0.41208">
        <ele>148</ele>
        <time>2016-05-21T08:54:58Z</time>
      </trkpt>
      <trkpt lat="48.80068" lon="-0.4123">
        <ele>149</ele>
        <time>2016-05-21T08:55:06Z</time>
      </trkpt>
      <trkpt lat="48.80058" lon="-0.41248">
        <ele>149</ele>
        <time>2016-05-21T08:55:10Z</time>
      </trkpt>
      <trkpt lat="48.80043" lon="-0.41275">
        <ele>149</ele>
        <time>2016-05-21T08:55:16Z</time>
      </trkpt>
      <trkpt lat="48.80028" lon="-0.41305">
        <ele>145</ele>
        <time>2016-05-21T08:55:27Z</time>
      </trkpt>
      <trkpt lat="48.80015" lon="-0.4132">
        <ele>143</ele>
        <time>2016-05-21T08:55:33Z</time>
      </trkpt>
      <trkpt lat="48.8001" lon="-0.41343">
        <ele>140</ele>
        <time>2016-05-21T08:55:38Z</time>
      </trkpt>
      <trkpt lat="48.80013" lon="-0.41365">
        <ele>138</ele>
        <time>2016-05-21T08:55:44Z</time>
      </trkpt>
      <trkpt lat="48.80003" lon="-0.41388">
        <ele>130</ele>
        <time>2016-05-21T08:56:02Z</time>
      </trkpt>
      <trkpt lat="48.8" lon="-0.41413">
        <ele>128</ele>
        <time>2016-05-21T08:56:05Z</time>
      </trkpt>
      <trkpt lat="48.79995" lon="-0.41433">
        <ele>128</ele>
        <time>2016-05-21T08:56:08Z</time>
      </trkpt>
      <trkpt lat="48.79993" lon="-0.4146">
        <ele>127</ele>
        <time>2016-05-21T08:56:12Z</time>
      </trkpt>
      <trkpt lat="48.79988" lon="-0.4148">
        <ele>127</ele>
        <time>2016-05-21T08:56:16Z</time>
      </trkpt>
      <trkpt lat="48.79973" lon="-0.41478">
        <ele>127</ele>
        <time>2016-05-21T08:56:22Z</time>
      </trkpt>
      <trkpt lat="48.79958" lon="-0.4146">
        <ele>127</ele>
        <time>2016-05-21T08:56:27Z</time>
      </trkpt>
      <trkpt lat="48.79943" lon="-0.41453">
        <ele>127</ele>
        <time>2016-05-21T08:56:29Z</time>
      </trkpt>
      <trkpt lat="48.7993" lon="-0.41443">
        <ele>126</ele>
        <time>2016-05-21T08:56:32Z</time>
      </trkpt>
      <trkpt lat="48.79915" lon="-0.41435">
        <ele>126</ele>
        <time>2016-05-21T08:56:36Z</time>
      </trkpt>
      <trkpt lat="48.799" lon="-0.41428">
        <ele>127</ele>
        <time>2016-05-21T08:56:39Z</time>
      </trkpt>
      <trkpt lat="48.79885" lon="-0.41428">
        <ele>127</ele>
        <time>2016-05-21T08:56:43Z</time>
      </trkpt>
      <trkpt lat="48.7987" lon="-0.41428">
        <ele>127</ele>
        <time>2016-05-21T08:56:46Z</time>
      </trkpt>
      <trkpt lat="48.79855" lon="-0.41428">
        <ele>129</ele>
        <time>2016-05-21T08:56:51Z</time>
      </trkpt>
      <trkpt lat="48.79838" lon="-0.41433">
        <ele>131</ele>
        <time>2016-05-21T08:56:56Z</time>
      </trkpt>
      <trkpt lat="48.79828" lon="-0.41448">
        <ele>131</ele>
        <time>2016-05-21T08:57:05Z</time>
      </trkpt>
      <trkpt lat="48.798" lon="-0.4147">
        <ele>139</ele>
        <time>2016-05-21T08:59:22Z</time>
      </trkpt>
      <trkpt lat="48.79785" lon="-0.4147">
        <ele>139</ele>
        <time>2016-05-21T08:59:28Z</time>
      </trkpt>
      <trkpt lat="48.7977" lon="-0.41468">
        <ele>138</ele>
        <time>2016-05-21T08:59:34Z</time>
      </trkpt>
      <trkpt lat="48.7975" lon="-0.41473">
        <ele>138</ele>
        <time>2016-05-21T08:59:41Z</time>
      </trkpt>
      <trkpt lat="48.79733" lon="-0.4148">
        <ele>137</ele>
        <time>2016-05-21T08:59:46Z</time>
      </trkpt>
      <trkpt lat="48.79715" lon="-0.41485">
        <ele>138</ele>
        <time>2016-05-21T08:59:50Z</time>
      </trkpt>
      <trkpt lat="48.797" lon="-0.41493">
        <ele>138</ele>
        <time>2016-05-21T08:59:54Z</time>
      </trkpt>
      <trkpt lat="48.79685" lon="-0.415">
        <ele>137</ele>
        <time>2016-05-21T08:59:58Z</time>
      </trkpt>
      <trkpt lat="48.7967" lon="-0.41508">
        <ele>137</ele>
        <time>2016-05-21T09:00:00Z</time>
      </trkpt>
      <trkpt lat="48.79655" lon="-0.41513">
        <ele>138</ele>
        <time>2016-05-21T09:00:04Z</time>
      </trkpt>
      <trkpt lat="48.7964" lon="-0.41518">
        <ele>139</ele>
        <time>2016-05-21T09:00:09Z</time>
      </trkpt>
      <trkpt lat="48.79625" lon="-0.41518">
        <ele>140</ele>
        <time>2016-05-21T09:00:15Z</time>
      </trkpt>
      <trkpt lat="48.79598" lon="-0.4152">
        <ele>144</ele>
        <time>2016-05-21T09:00:41Z</time>
      </trkpt>
      <trkpt lat="48.79583" lon="-0.41523">
        <ele>144</ele>
        <time>2016-05-21T09:00:51Z</time>
      </trkpt>
      <trkpt lat="48.79553" lon="-0.4154">
        <ele>148</ele>
        <time>2016-05-21T09:01:37Z</time>
      </trkpt>
      <trkpt lat="48.7954" lon="-0.41553">
        <ele>145</ele>
        <time>2016-05-21T09:01:50Z</time>
      </trkpt>
      <trkpt lat="48.79518" lon="-0.41575">
        <ele>144</ele>
        <time>2016-05-21T09:02:10Z</time>
      </trkpt>
      <trkpt lat="48.79503" lon="-0.41583">
        <ele>143</ele>
        <time>2016-05-21T09:02:20Z</time>
      </trkpt>
      <trkpt lat="48.7949" lon="-0.41593">
        <ele>143</ele>
        <time>2016-05-21T09:02:28Z</time>
      </trkpt>
      <trkpt lat="48.79478" lon="-0.41605">
        <ele>144</ele>
        <time>2016-05-21T09:02:36Z</time>
      </trkpt>
      <trkpt lat="48.79465" lon="-0.4162">
        <ele>142</ele>
        <time>2016-05-21T09:02:43Z</time>
      </trkpt>
      <trkpt lat="48.7944" lon="-0.4164">
        <ele>139</ele>
        <time>2016-05-21T09:03:10Z</time>
      </trkpt>
      <trkpt lat="48.79413" lon="-0.4165">
        <ele>144</ele>
        <time>2016-05-21T09:03:43Z</time>
      </trkpt>
      <trkpt lat="48.79385" lon="-0.41663">
        <ele>135</ele>
        <time>2016-05-21T09:04:29Z</time>
      </trkpt>
      <trkpt lat="48.79358" lon="-0.41655">
        <ele>131</ele>
        <time>2016-05-21T09:05:14Z</time>
      </trkpt>
      <trkpt lat="48.79338" lon="-0.4164">
        <ele>133</ele>
        <time>2016-05-21T09:05:39Z</time>
      </trkpt>
      <trkpt lat="48.7932" lon="-0.41628">
        <ele>138</ele>
        <time>2016-05-21T09:06:05Z</time>
      </trkpt>
      <trkpt lat="48.79288" lon="-0.41615">
        <ele>136</ele>
        <time>2016-05-21T09:06:42Z</time>
      </trkpt>
      <trkpt lat="48.79273" lon="-0.41615">
        <ele>135</ele>
        <time>2016-05-21T09:06:59Z</time>
      </trkpt>
      <trkpt lat="48.7926" lon="-0.41605">
        <ele>134</ele>
        <time>2016-05-21T09:07:04Z</time>
      </trkpt>
      <trkpt lat="48.79248" lon="-0.41588">
        <ele>135</ele>
        <time>2016-05-21T09:07:10Z</time>
      </trkpt>
      <trkpt lat="48.79235" lon="-0.41578">
        <ele>136</ele>
        <time>2016-05-21T09:07:16Z</time>
      </trkpt>
      <trkpt lat="48.7922" lon="-0.41578">
        <ele>135</ele>
        <time>2016-05-21T09:07:27Z</time>
      </trkpt>
      <trkpt lat="48.79205" lon="-0.41573">
        <ele>137</ele>
        <time>2016-05-21T09:07:34Z</time>
      </trkpt>
      <trkpt lat="48.7919" lon="-0.4157">
        <ele>137</ele>
        <time>2016-05-21T09:07:39Z</time>
      </trkpt>
      <trkpt lat="48.79175" lon="-0.4157">
        <ele>138</ele>
        <time>2016-05-21T09:07:45Z</time>
      </trkpt>
      <trkpt lat="48.7916" lon="-0.41575">
        <ele>139</ele>
        <time>2016-05-21T09:07:51Z</time>
      </trkpt>
      <trkpt lat="48.79145" lon="-0.41575">
        <ele>141</ele>
        <time>2016-05-21T09:07:56Z</time>
      </trkpt>
      <trkpt lat="48.7913" lon="-0.41573">
        <ele>141</ele>
        <time>2016-05-21T09:08:03Z</time>
      </trkpt>
      <trkpt lat="48.79108" lon="-0.41573">
        <ele>143</ele>
        <time>2016-05-21T09:08:11Z</time>
      </trkpt>
      <trkpt lat="48.7909" lon="-0.4157">
        <ele>144</ele>
        <time>2016-05-21T09:08:16Z</time>
      </trkpt>
      <trkpt lat="48.79075" lon="-0.4157">
        <ele>144</ele>
        <time>2016-05-21T09:08:20Z</time>
      </trkpt>
      <trkpt lat="48.79058" lon="-0.41573">
        <ele>145</ele>
        <time>2016-05-21T09:08:25Z</time>
      </trkpt>
      <trkpt lat="48.79043" lon="-0.4158">
        <ele>146</ele>
        <time>2016-05-21T09:08:30Z</time>
      </trkpt>
      <trkpt lat="48.79025" lon="-0.41588">
        <ele>146</ele>
        <time>2016-05-21T09:08:35Z</time>
      </trkpt>
      <trkpt lat="48.79013" lon="-0.41598">
        <ele>147</ele>
        <time>2016-05-21T09:08:40Z</time>
      </trkpt>
      <trkpt lat="48.78998" lon="-0.4161">
        <ele>148</ele>
        <time>2016-05-21T09:08:45Z</time>
      </trkpt>
      <trkpt lat="48.78985" lon="-0.41623">
        <ele>148</ele>
        <time>2016-05-21T09:08:50Z</time>
      </trkpt>
      <trkpt lat="48.78973" lon="-0.41663">
        <ele>144</ele>
        <time>2016-05-21T09:09:14Z</time>
      </trkpt>
      <trkpt lat="48.78975" lon="-0.41708">
        <ele>141</ele>
        <time>2016-05-21T09:11:31Z</time>
      </trkpt>
      <trkpt lat="48.78965" lon="-0.41745">
        <ele>146</ele>
        <time>2016-05-21T09:12:24Z</time>
      </trkpt>
      <trkpt lat="48.7897" lon="-0.41765">
        <ele>144</ele>
        <time>2016-05-21T09:12:32Z</time>
      </trkpt>
      <trkpt lat="48.7898" lon="-0.4178">
        <ele>145</ele>
        <time>2016-05-21T09:12:39Z</time>
      </trkpt>
      <trkpt lat="48.78983" lon="-0.41803">
        <ele>144</ele>
        <time>2016-05-21T09:12:46Z</time>
      </trkpt>
      <trkpt lat="48.7899" lon="-0.41823">
        <ele>145</ele>
        <time>2016-05-21T09:12:51Z</time>
      </trkpt>
      <trkpt lat="48.78985" lon="-0.41843">
        <ele>145</ele>
        <time>2016-05-21T09:12:56Z</time>
      </trkpt>
      <trkpt lat="48.78983" lon="-0.41865">
        <ele>144</ele>
        <time>2016-05-21T09:13:01Z</time>
      </trkpt>
      <trkpt lat="48.78983" lon="-0.41888">
        <ele>143</ele>
        <time>2016-05-21T09:13:05Z</time>
      </trkpt>
      <trkpt lat="48.78988" lon="-0.41908">
        <ele>143</ele>
        <time>2016-05-21T09:13:09Z</time>
      </trkpt>
      <trkpt lat="48.78998" lon="-0.41925">
        <ele>146</ele>
        <time>2016-05-21T09:13:17Z</time>
      </trkpt>
      <trkpt lat="48.79018" lon="-0.41935">
        <ele>150</ele>
        <time>2016-05-21T09:13:29Z</time>
      </trkpt>
      <trkpt lat="48.79033" lon="-0.41938">
        <ele>152</ele>
        <time>2016-05-21T09:13:35Z</time>
      </trkpt>
      <trkpt lat="48.79048" lon="-0.41943">
        <ele>155</ele>
        <time>2016-05-21T09:13:42Z</time>
      </trkpt>
      <trkpt lat="48.7906" lon="-0.41958">
        <ele>157</ele>
        <time>2016-05-21T09:13:51Z</time>
      </trkpt>
      <trkpt lat="48.7907" lon="-0.41975">
        <ele>157</ele>
        <time>2016-05-21T09:13:58Z</time>
      </trkpt>
      <trkpt lat="48.7908" lon="-0.4199">
        <ele>156</ele>
        <time>2016-05-21T09:14:07Z</time>
      </trkpt>
      <trkpt lat="48.7909" lon="-0.42005">
        <ele>154</ele>
        <time>2016-05-21T09:14:31Z</time>
      </trkpt>
      <trkpt lat="48.79093" lon="-0.4204">
        <ele>160</ele>
        <time>2016-05-21T09:15:03Z</time>
      </trkpt>
      <trkpt lat="48.7909" lon="-0.42095">
        <ele>165</ele>
        <time>2016-05-21T09:15:20Z</time>
      </trkpt>
      <trkpt lat="48.7908" lon="-0.42153">
        <ele>168</ele>
        <time>2016-05-21T09:15:52Z</time>
      </trkpt>
      <trkpt lat="48.7908" lon="-0.42175">
        <ele>167</ele>
        <time>2016-05-21T09:16:04Z</time>
      </trkpt>
      <trkpt lat="48.79075" lon="-0.42195">
        <ele>164</ele>
        <time>2016-05-21T09:16:10Z</time>
      </trkpt>
      <trkpt lat="48.7906" lon="-0.42215">
        <ele>163</ele>
        <time>2016-05-21T09:16:34Z</time>
      </trkpt>
      <trkpt lat="48.79043" lon="-0.42208">
        <ele>162</ele>
        <time>2016-05-21T09:16:39Z</time>
      </trkpt>
      <trkpt lat="48.79018" lon="-0.42225">
        <ele>163</ele>
        <time>2016-05-21T09:16:58Z</time>
      </trkpt>
      <trkpt lat="48.79003" lon="-0.42223">
        <ele>162</ele>
        <time>2016-05-21T09:17:07Z</time>
      </trkpt>
      <trkpt lat="48.78993" lon="-0.42208">
        <ele>161</ele>
        <time>2016-05-21T09:17:13Z</time>
      </trkpt>
      <trkpt lat="48.78985" lon="-0.4219">
        <ele>161</ele>
        <time>2016-05-21T09:17:18Z</time>
      </trkpt>
      <trkpt lat="48.7897" lon="-0.42188">
        <ele>164</ele>
        <time>2016-05-21T09:17:23Z</time>
      </trkpt>
      <trkpt lat="48.78955" lon="-0.4219">
        <ele>165</ele>
        <time>2016-05-21T09:17:27Z</time>
      </trkpt>
      <trkpt lat="48.7894" lon="-0.42193">
        <ele>164</ele>
        <time>2016-05-21T09:17:32Z</time>
      </trkpt>
      <trkpt lat="48.78923" lon="-0.42195">
        <ele>163</ele>
        <time>2016-05-21T09:17:37Z</time>
      </trkpt>
      <trkpt lat="48.78905" lon="-0.422">
        <ele>163</ele>
        <time>2016-05-21T09:17:44Z</time>
      </trkpt>
      <trkpt lat="48.78885" lon="-0.42213">
        <ele>163</ele>
        <time>2016-05-21T09:17:50Z</time>
      </trkpt>
      <trkpt lat="48.7887" lon="-0.42218">
        <ele>163</ele>
        <time>2016-05-21T09:17:55Z</time>
      </trkpt>
      <trkpt lat="48.78855" lon="-0.42225">
        <ele>164</ele>
        <time>2016-05-21T09:18:00Z</time>
      </trkpt>
      <trkpt lat="48.7884" lon="-0.42233">
        <ele>165</ele>
        <time>2016-05-21T09:18:04Z</time>
      </trkpt>
      <trkpt lat="48.78825" lon="-0.42235">
        <ele>166</ele>
        <time>2016-05-21T09:18:08Z</time>
      </trkpt>
      <trkpt lat="48.78808" lon="-0.42238">
        <ele>166</ele>
        <time>2016-05-21T09:18:13Z</time>
      </trkpt>
      <trkpt lat="48.78793" lon="-0.42243">
        <ele>166</ele>
        <time>2016-05-21T09:18:16Z</time>
      </trkpt>
      <trkpt lat="48.78775" lon="-0.42245">
        <ele>166</ele>
        <time>2016-05-21T09:18:21Z</time>
      </trkpt>
      <trkpt lat="48.7876" lon="-0.4224">
        <ele>166</ele>
        <time>2016-05-21T09:18:25Z</time>
      </trkpt>
      <trkpt lat="48.78733" lon="-0.4223">
        <ele>166</ele>
        <time>2016-05-21T09:18:31Z</time>
      </trkpt>
      <trkpt lat="48.78708" lon="-0.4222">
        <ele>167</ele>
        <time>2016-05-21T09:18:38Z</time>
      </trkpt>
      <trkpt lat="48.78688" lon="-0.42213">
        <ele>167</ele>
        <time>2016-05-21T09:18:43Z</time>
      </trkpt>
      <trkpt lat="48.7867" lon="-0.42205">
        <ele>168</ele>
        <time>2016-05-21T09:18:47Z</time>
      </trkpt>
      <trkpt lat="48.78633" lon="-0.4219">
        <ele>168</ele>
        <time>2016-05-21T09:18:57Z</time>
      </trkpt>
      <trkpt lat="48.78618" lon="-0.42185">
        <ele>167</ele>
        <time>2016-05-21T09:19:01Z</time>
      </trkpt>
      <trkpt lat="48.786" lon="-0.4218">
        <ele>167</ele>
        <time>2016-05-21T09:19:05Z</time>
      </trkpt>
      <trkpt lat="48.78583" lon="-0.42173">
        <ele>168</ele>
        <time>2016-05-21T09:19:09Z</time>
      </trkpt>
      <trkpt lat="48.78565" lon="-0.42168">
        <ele>168</ele>
        <time>2016-05-21T09:19:13Z</time>
      </trkpt>
      <trkpt lat="48.78548" lon="-0.4216">
        <ele>168</ele>
        <time>2016-05-21T09:19:18Z</time>
      </trkpt>
      <trkpt lat="48.7853" lon="-0.42153">
        <ele>170</ele>
        <time>2016-05-21T09:19:23Z</time>
      </trkpt>
      <trkpt lat="48.78513" lon="-0.42153">
        <ele>169</ele>
        <time>2016-05-21T09:19:27Z</time>
      </trkpt>
      <trkpt lat="48.78498" lon="-0.42153">
        <ele>169</ele>
        <time>2016-05-21T09:19:30Z</time>
      </trkpt>
      <trkpt lat="48.78478" lon="-0.42158">
        <ele>169</ele>
        <time>2016-05-21T09:19:36Z</time>
      </trkpt>
      <trkpt lat="48.7846" lon="-0.42163">
        <ele>170</ele>
        <time>2016-05-21T09:19:40Z</time>
      </trkpt>
      <trkpt lat="48.78408" lon="-0.42178">
        <ele>169</ele>
        <time>2016-05-21T09:19:52Z</time>
      </trkpt>
      <trkpt lat="48.78385" lon="-0.42185">
        <ele>168</ele>
        <time>2016-05-21T09:19:56Z</time>
      </trkpt>
      <trkpt lat="48.7837" lon="-0.42185">
        <ele>168</ele>
        <time>2016-05-21T09:19:59Z</time>
      </trkpt>
      <trkpt lat="48.78355" lon="-0.42183">
        <ele>168</ele>
        <time>2016-05-21T09:20:02Z</time>
      </trkpt>
      <trkpt lat="48.78333" lon="-0.42173">
        <ele>167</ele>
        <time>2016-05-21T09:20:07Z</time>
      </trkpt>
      <trkpt lat="48.78318" lon="-0.42168">
        <ele>168</ele>
        <time>2016-05-21T09:20:09Z</time>
      </trkpt>
      <trkpt lat="48.78305" lon="-0.42155">
        <ele>168</ele>
        <time>2016-05-21T09:20:13Z</time>
      </trkpt>
      <trkpt lat="48.78295" lon="-0.42133">
        <ele>168</ele>
        <time>2016-05-21T09:20:17Z</time>
      </trkpt>
      <trkpt lat="48.7828" lon="-0.42118">
        <ele>167</ele>
        <time>2016-05-21T09:20:21Z</time>
      </trkpt>
      <trkpt lat="48.78265" lon="-0.42118">
        <ele>166</ele>
        <time>2016-05-21T09:20:25Z</time>
      </trkpt>
      <trkpt lat="48.7826" lon="-0.42095">
        <ele>166</ele>
        <time>2016-05-21T09:20:30Z</time>
      </trkpt>
      <trkpt lat="48.78265" lon="-0.4207">
        <ele>165</ele>
        <time>2016-05-21T09:20:33Z</time>
      </trkpt>
      <trkpt lat="48.78273" lon="-0.42035">
        <ele>165</ele>
        <time>2016-05-21T09:20:38Z</time>
      </trkpt>
      <trkpt lat="48.78278" lon="-0.42008">
        <ele>166</ele>
        <time>2016-05-21T09:20:43Z</time>
      </trkpt>
      <trkpt lat="48.78283" lon="-0.41988">
        <ele>166</ele>
        <time>2016-05-21T09:20:45Z</time>
      </trkpt>
      <trkpt lat="48.78288" lon="-0.4196">
        <ele>166</ele>
        <time>2016-05-21T09:20:49Z</time>
      </trkpt>
      <trkpt lat="48.78295" lon="-0.41938">
        <ele>166</ele>
        <time>2016-05-21T09:20:53Z</time>
      </trkpt>
      <trkpt lat="48.783" lon="-0.41915">
        <ele>166</ele>
        <time>2016-05-21T09:20:57Z</time>
      </trkpt>
      <trkpt lat="48.78308" lon="-0.41898">
        <ele>165</ele>
        <time>2016-05-21T09:21:00Z</time>
      </trkpt>
      <trkpt lat="48.78318" lon="-0.41865">
        <ele>164</ele>
        <time>2016-05-21T09:21:05Z</time>
      </trkpt>
      <trkpt lat="48.78323" lon="-0.4184">
        <ele>164</ele>
        <time>2016-05-21T09:21:08Z</time>
      </trkpt>
      <trkpt lat="48.78323" lon="-0.41813">
        <ele>164</ele>
        <time>2016-05-21T09:21:11Z</time>
      </trkpt>
      <trkpt lat="48.7832" lon="-0.41785">
        <ele>164</ele>
        <time>2016-05-21T09:21:14Z</time>
      </trkpt>
      <trkpt lat="48.78315" lon="-0.41758">
        <ele>164</ele>
        <time>2016-05-21T09:21:17Z</time>
      </trkpt>
      <trkpt lat="48.78313" lon="-0.41735">
        <ele>164</ele>
        <time>2016-05-21T09:21:20Z</time>
      </trkpt>
      <trkpt lat="48.7831" lon="-0.41703">
        <ele>164</ele>
        <time>2016-05-21T09:21:22Z</time>
      </trkpt>
      <trkpt lat="48.78313" lon="-0.41673">
        <ele>163</ele>
        <time>2016-05-21T09:21:25Z</time>
      </trkpt>
      <trkpt lat="48.7832" lon="-0.4164">
        <ele>162</ele>
        <time>2016-05-21T09:21:28Z</time>
      </trkpt>
      <trkpt lat="48.78335" lon="-0.41615">
        <ele>154</ele>
        <time>2016-05-21T09:21:31Z</time>
      </trkpt>
      <trkpt lat="48.78355" lon="-0.41603">
        <ele>149</ele>
        <time>2016-05-21T09:21:34Z</time>
      </trkpt>
      <trkpt lat="48.78385" lon="-0.41595">
        <ele>146</ele>
        <time>2016-05-21T09:21:37Z</time>
      </trkpt>
      <trkpt lat="48.78408" lon="-0.41598">
        <ele>145</ele>
        <time>2016-05-21T09:21:40Z</time>
      </trkpt>
      <trkpt lat="48.78418" lon="-0.41615">
        <ele>147</ele>
        <time>2016-05-21T09:21:45Z</time>
      </trkpt>
      <trkpt lat="48.78433" lon="-0.41625">
        <ele>147</ele>
        <time>2016-05-21T09:21:50Z</time>
      </trkpt>
      <trkpt lat="48.78448" lon="-0.4163">
        <ele>148</ele>
        <time>2016-05-21T09:21:57Z</time>
      </trkpt>
      <trkpt lat="48.78463" lon="-0.4163">
        <ele>149</ele>
        <time>2016-05-21T09:22:02Z</time>
      </trkpt>
      <trkpt lat="48.78475" lon="-0.41618">
        <ele>150</ele>
        <time>2016-05-21T09:22:07Z</time>
      </trkpt>
      <trkpt lat="48.78483" lon="-0.416">
        <ele>151</ele>
        <time>2016-05-21T09:22:11Z</time>
      </trkpt>
      <trkpt lat="48.7849" lon="-0.41583">
        <ele>152</ele>
        <time>2016-05-21T09:22:16Z</time>
      </trkpt>
      <trkpt lat="48.78495" lon="-0.41563">
        <ele>153</ele>
        <time>2016-05-21T09:22:22Z</time>
      </trkpt>
      <trkpt lat="48.78493" lon="-0.4154">
        <ele>153</ele>
        <time>2016-05-21T09:22:30Z</time>
      </trkpt>
      <trkpt lat="48.7849" lon="-0.41518">
        <ele>154</ele>
        <time>2016-05-21T09:22:37Z</time>
      </trkpt>
      <trkpt lat="48.78488" lon="-0.41495">
        <ele>154</ele>
        <time>2016-05-21T09:22:41Z</time>
      </trkpt>
      <trkpt lat="48.7849" lon="-0.4147">
        <ele>154</ele>
        <time>2016-05-21T09:22:46Z</time>
      </trkpt>
      <trkpt lat="48.78493" lon="-0.41435">
        <ele>154</ele>
        <time>2016-05-21T09:22:51Z</time>
      </trkpt>
      <trkpt lat="48.78495" lon="-0.4141">
        <ele>155</ele>
        <time>2016-05-21T09:22:56Z</time>
      </trkpt>
      <trkpt lat="48.78495" lon="-0.41388">
        <ele>155</ele>
        <time>2016-05-21T09:23:00Z</time>
      </trkpt>
      <trkpt lat="48.78493" lon="-0.4136">
        <ele>156</ele>
        <time>2016-05-21T09:23:04Z</time>
      </trkpt>
      <trkpt lat="48.78485" lon="-0.4134">
        <ele>157</ele>
        <time>2016-05-21T09:23:09Z</time>
      </trkpt>
      <trkpt lat="48.78468" lon="-0.41315">
        <ele>164</ele>
        <time>2016-05-21T09:23:46Z</time>
      </trkpt>
      <trkpt lat="48.7846" lon="-0.41295">
        <ele>162</ele>
        <time>2016-05-21T09:23:53Z</time>
      </trkpt>
      <trkpt lat="48.78455" lon="-0.41275">
        <ele>162</ele>
        <time>2016-05-21T09:24:01Z</time>
      </trkpt>
      <trkpt lat="48.78453" lon="-0.41253">
        <ele>162</ele>
        <time>2016-05-21T09:24:09Z</time>
      </trkpt>
      <trkpt lat="48.78448" lon="-0.41233">
        <ele>162</ele>
        <time>2016-05-21T09:24:15Z</time>
      </trkpt>
      <trkpt lat="48.78445" lon="-0.4121">
        <ele>164</ele>
        <time>2016-05-21T09:24:22Z</time>
      </trkpt>
      <trkpt lat="48.78438" lon="-0.41193">
        <ele>165</ele>
        <time>2016-05-21T09:24:28Z</time>
      </trkpt>
      <trkpt lat="48.7843" lon="-0.41173">
        <ele>166</ele>
        <time>2016-05-21T09:24:33Z</time>
      </trkpt>
      <trkpt lat="48.78423" lon="-0.41153">
        <ele>166</ele>
        <time>2016-05-21T09:24:37Z</time>
      </trkpt>
      <trkpt lat="48.78418" lon="-0.4113">
        <ele>166</ele>
        <time>2016-05-21T09:24:41Z</time>
      </trkpt>
      <trkpt lat="48.78418" lon="-0.41108">
        <ele>166</ele>
        <time>2016-05-21T09:24:45Z</time>
      </trkpt>
      <trkpt lat="48.78418" lon="-0.4108">
        <ele>166</ele>
        <time>2016-05-21T09:24:50Z</time>
      </trkpt>
      <trkpt lat="48.78413" lon="-0.41058">
        <ele>166</ele>
        <time>2016-05-21T09:24:54Z</time>
      </trkpt>
      <trkpt lat="48.78413" lon="-0.41035">
        <ele>166</ele>
        <time>2016-05-21T09:24:58Z</time>
      </trkpt>
      <trkpt lat="48.78415" lon="-0.4101">
        <ele>166</ele>
        <time>2016-05-21T09:25:01Z</time>
      </trkpt>
      <trkpt lat="48.7842" lon="-0.40985">
        <ele>167</ele>
        <time>2016-05-21T09:25:06Z</time>
      </trkpt>
      <trkpt lat="48.78428" lon="-0.40968">
        <ele>166</ele>
        <time>2016-05-21T09:25:09Z</time>
      </trkpt>
      <trkpt lat="48.78435" lon="-0.4095">
        <ele>168</ele>
        <time>2016-05-21T09:25:14Z</time>
      </trkpt>
      <trkpt lat="48.78448" lon="-0.4094">
        <ele>169</ele>
        <time>2016-05-21T09:25:17Z</time>
      </trkpt>
      <trkpt lat="48.78455" lon="-0.40923">
        <ele>170</ele>
        <time>2016-05-21T09:25:21Z</time>
      </trkpt>
      <trkpt lat="48.78463" lon="-0.40905">
        <ele>171</ele>
        <time>2016-05-21T09:25:26Z</time>
      </trkpt>
      <trkpt lat="48.78468" lon="-0.40885">
        <ele>171</ele>
        <time>2016-05-21T09:25:30Z</time>
      </trkpt>
      <trkpt lat="48.7847" lon="-0.4086">
        <ele>172</ele>
        <time>2016-05-21T09:25:34Z</time>
      </trkpt>
      <trkpt lat="48.78475" lon="-0.4084">
        <ele>172</ele>
        <time>2016-05-21T09:25:37Z</time>
      </trkpt>
      <trkpt lat="48.7848" lon="-0.40818">
        <ele>172</ele>
        <time>2016-05-21T09:25:41Z</time>
      </trkpt>
      <trkpt lat="48.78483" lon="-0.4078">
        <ele>172</ele>
        <time>2016-05-21T09:25:48Z</time>
      </trkpt>
      <trkpt lat="48.78483" lon="-0.40758">
        <ele>171</ele>
        <time>2016-05-21T09:25:53Z</time>
      </trkpt>
      <trkpt lat="48.78485" lon="-0.40725">
        <ele>172</ele>
        <time>2016-05-21T09:25:59Z</time>
      </trkpt>
      <trkpt lat="48.7849" lon="-0.40703">
        <ele>174</ele>
        <time>2016-05-21T09:26:05Z</time>
      </trkpt>
      <trkpt lat="48.7849" lon="-0.40675">
        <ele>175</ele>
        <time>2016-05-21T09:26:10Z</time>
      </trkpt>
      <trkpt lat="48.78493" lon="-0.4065">
        <ele>175</ele>
        <time>2016-05-21T09:26:17Z</time>
      </trkpt>
      <trkpt lat="48.7849" lon="-0.40625">
        <ele>176</ele>
        <time>2016-05-21T09:26:21Z</time>
      </trkpt>
      <trkpt lat="48.78488" lon="-0.40603">
        <ele>177</ele>
        <time>2016-05-21T09:26:28Z</time>
      </trkpt>
      <trkpt lat="48.7849" lon="-0.4058">
        <ele>177</ele>
        <time>2016-05-21T09:26:33Z</time>
      </trkpt>
      <trkpt lat="48.78493" lon="-0.40555">
        <ele>176</ele>
        <time>2016-05-21T09:26:39Z</time>
      </trkpt>
      <trkpt lat="48.78495" lon="-0.40533">
        <ele>176</ele>
        <time>2016-05-21T09:26:43Z</time>
      </trkpt>
      <trkpt lat="48.785" lon="-0.40513">
        <ele>177</ele>
        <time>2016-05-21T09:26:48Z</time>
      </trkpt>
      <trkpt lat="48.78503" lon="-0.4049">
        <ele>178</ele>
        <time>2016-05-21T09:26:54Z</time>
      </trkpt>
      <trkpt lat="48.78505" lon="-0.40465">
        <ele>181</ele>
        <time>2016-05-21T09:27:00Z</time>
      </trkpt>
      <trkpt lat="48.78498" lon="-0.40448">
        <ele>182</ele>
        <time>2016-05-21T09:27:05Z</time>
      </trkpt>
      <trkpt lat="48.78485" lon="-0.40435">
        <ele>185</ele>
        <time>2016-05-21T09:27:11Z</time>
      </trkpt>
      <trkpt lat="48.78468" lon="-0.40423">
        <ele>187</ele>
        <time>2016-05-21T09:27:20Z</time>
      </trkpt>
      <trkpt lat="48.78455" lon="-0.40413">
        <ele>188</ele>
        <time>2016-05-21T09:27:29Z</time>
      </trkpt>
      <trkpt lat="48.78445" lon="-0.40395">
        <ele>187</ele>
        <time>2016-05-21T09:27:36Z</time>
      </trkpt>
      <trkpt lat="48.78448" lon="-0.40373">
        <ele>187</ele>
        <time>2016-05-21T09:27:43Z</time>
      </trkpt>
      <trkpt lat="48.78453" lon="-0.40353">
        <ele>186</ele>
        <time>2016-05-21T09:27:50Z</time>
      </trkpt>
      <trkpt lat="48.78445" lon="-0.40333">
        <ele>188</ele>
        <time>2016-05-21T09:28:29Z</time>
      </trkpt>
      <trkpt lat="48.78435" lon="-0.40318">
        <ele>188</ele>
        <time>2016-05-21T09:28:36Z</time>
      </trkpt>
      <trkpt lat="48.78423" lon="-0.40308">
        <ele>189</ele>
        <time>2016-05-21T09:28:43Z</time>
      </trkpt>
      <trkpt lat="48.7841" lon="-0.40295">
        <ele>196</ele>
        <time>2016-05-21T09:29:27Z</time>
      </trkpt>
      <trkpt lat="48.78398" lon="-0.4028">
        <ele>196</ele>
        <time>2016-05-21T09:29:35Z</time>
      </trkpt>
      <trkpt lat="48.78385" lon="-0.4027">
        <ele>198</ele>
        <time>2016-05-21T09:29:46Z</time>
      </trkpt>
      <trkpt lat="48.7837" lon="-0.40265">
        <ele>198</ele>
        <time>2016-05-21T09:29:54Z</time>
      </trkpt>
      <trkpt lat="48.78355" lon="-0.4026">
        <ele>199</ele>
        <time>2016-05-21T09:30:01Z</time>
      </trkpt>
      <trkpt lat="48.78343" lon="-0.40248">
        <ele>201</ele>
        <time>2016-05-21T09:30:08Z</time>
      </trkpt>
      <trkpt lat="48.78333" lon="-0.4023">
        <ele>203</ele>
        <time>2016-05-21T09:30:16Z</time>
      </trkpt>
      <trkpt lat="48.78315" lon="-0.40183">
        <ele>211</ele>
        <time>2016-05-21T09:31:33Z</time>
      </trkpt>
      <trkpt lat="48.78308" lon="-0.40165">
        <ele>212</ele>
        <time>2016-05-21T09:31:43Z</time>
      </trkpt>
      <trkpt lat="48.78303" lon="-0.40145">
        <ele>213</ele>
        <time>2016-05-21T09:31:51Z</time>
      </trkpt>
      <trkpt lat="48.78295" lon="-0.40123">
        <ele>215</ele>
        <time>2016-05-21T09:31:58Z</time>
      </trkpt>
      <trkpt lat="48.78293" lon="-0.401">
        <ele>215</ele>
        <time>2016-05-21T09:32:06Z</time>
      </trkpt>
      <trkpt lat="48.78275" lon="-0.40083">
        <ele>218</ele>
        <time>2016-05-21T09:32:32Z</time>
      </trkpt>
      <trkpt lat="48.78258" lon="-0.40073">
        <ele>218</ele>
        <time>2016-05-21T09:32:40Z</time>
      </trkpt>
      <trkpt lat="48.78245" lon="-0.40058">
        <ele>218</ele>
        <time>2016-05-21T09:32:45Z</time>
      </trkpt>
      <trkpt lat="48.78233" lon="-0.40045">
        <ele>217</ele>
        <time>2016-05-21T09:32:50Z</time>
      </trkpt>
      <trkpt lat="48.7822" lon="-0.40035">
        <ele>216</ele>
        <time>2016-05-21T09:32:55Z</time>
      </trkpt>
      <trkpt lat="48.78203" lon="-0.40028">
        <ele>216</ele>
        <time>2016-05-21T09:33:01Z</time>
      </trkpt>
      <trkpt lat="48.7819" lon="-0.40018">
        <ele>217</ele>
        <time>2016-05-21T09:33:11Z</time>
      </trkpt>
      <trkpt lat="48.78178" lon="-0.40008">
        <ele>219</ele>
        <time>2016-05-21T09:40:09Z</time>
      </trkpt>
      <trkpt lat="48.78163" lon="-0.40005">
        <ele>218</ele>
        <time>2016-05-21T09:40:14Z</time>
      </trkpt>
      <trkpt lat="48.78148" lon="-0.40005">
        <ele>218</ele>
        <time>2016-05-21T09:40:19Z</time>
      </trkpt>
      <trkpt lat="48.7813" lon="-0.40008">
        <ele>219</ele>
        <time>2016-05-21T09:40:25Z</time>
      </trkpt>
      <trkpt lat="48.78115" lon="-0.40008">
        <ele>219</ele>
        <time>2016-05-21T09:40:28Z</time>
      </trkpt>
      <trkpt lat="48.78098" lon="-0.40013">
        <ele>219</ele>
        <time>2016-05-21T09:40:33Z</time>
      </trkpt>
      <trkpt lat="48.78083" lon="-0.40023">
        <ele>222</ele>
        <time>2016-05-21T09:40:39Z</time>
      </trkpt>
      <trkpt lat="48.78075" lon="-0.4004">
        <ele>225</ele>
        <time>2016-05-21T09:40:43Z</time>
      </trkpt>
      <trkpt lat="48.78063" lon="-0.4007">
        <ele>227</ele>
        <time>2016-05-21T09:40:48Z</time>
      </trkpt>
      <trkpt lat="48.78048" lon="-0.401">
        <ele>229</ele>
        <time>2016-05-21T09:40:56Z</time>
      </trkpt>
      <trkpt lat="48.7804" lon="-0.40118">
        <ele>228</ele>
        <time>2016-05-21T09:40:58Z</time>
      </trkpt>
      <trkpt lat="48.7803" lon="-0.40143">
        <ele>227</ele>
        <time>2016-05-21T09:41:03Z</time>
      </trkpt>
      <trkpt lat="48.78018" lon="-0.40158">
        <ele>226</ele>
        <time>2016-05-21T09:41:06Z</time>
      </trkpt>
      <trkpt lat="48.78005" lon="-0.40173">
        <ele>228</ele>
        <time>2016-05-21T09:41:09Z</time>
      </trkpt>
      <trkpt lat="48.7799" lon="-0.4019">
        <ele>228</ele>
        <time>2016-05-21T09:41:12Z</time>
      </trkpt>
      <trkpt lat="48.77978" lon="-0.402">
        <ele>228</ele>
        <time>2016-05-21T09:41:17Z</time>
      </trkpt>
      <trkpt lat="48.77965" lon="-0.4021">
        <ele>229</ele>
        <time>2016-05-21T09:41:21Z</time>
      </trkpt>
      <trkpt lat="48.7795" lon="-0.4022">
        <ele>231</ele>
        <time>2016-05-21T09:41:26Z</time>
      </trkpt>
      <trkpt lat="48.77935" lon="-0.40228">
        <ele>232</ele>
        <time>2016-05-21T09:41:31Z</time>
      </trkpt>
      <trkpt lat="48.7792" lon="-0.40238">
        <ele>234</ele>
        <time>2016-05-21T09:41:36Z</time>
      </trkpt>
      <trkpt lat="48.77908" lon="-0.40253">
        <ele>236</ele>
        <time>2016-05-21T09:41:42Z</time>
      </trkpt>
      <trkpt lat="48.77895" lon="-0.40263">
        <ele>236</ele>
        <time>2016-05-21T09:41:47Z</time>
      </trkpt>
      <trkpt lat="48.7788" lon="-0.40258">
        <ele>236</ele>
        <time>2016-05-21T09:41:51Z</time>
      </trkpt>
      <trkpt lat="48.77868" lon="-0.40248">
        <ele>237</ele>
        <time>2016-05-21T09:41:56Z</time>
      </trkpt>
      <trkpt lat="48.77853" lon="-0.40243">
        <ele>237</ele>
        <time>2016-05-21T09:42:02Z</time>
      </trkpt>
      <trkpt lat="48.77835" lon="-0.4024">
        <ele>238</ele>
        <time>2016-05-21T09:42:06Z</time>
      </trkpt>
      <trkpt lat="48.77818" lon="-0.40243">
        <ele>238</ele>
        <time>2016-05-21T09:42:10Z</time>
      </trkpt>
      <trkpt lat="48.77803" lon="-0.40248">
        <ele>240</ele>
        <time>2016-05-21T09:42:17Z</time>
      </trkpt>
      <trkpt lat="48.77788" lon="-0.40255">
        <ele>240</ele>
        <time>2016-05-21T09:42:20Z</time>
      </trkpt>
      <trkpt lat="48.77773" lon="-0.4026">
        <ele>241</ele>
        <time>2016-05-21T09:42:24Z</time>
      </trkpt>
      <trkpt lat="48.77758" lon="-0.40258">
        <ele>241</ele>
        <time>2016-05-21T09:42:28Z</time>
      </trkpt>
      <trkpt lat="48.77743" lon="-0.40258">
        <ele>241</ele>
        <time>2016-05-21T09:42:34Z</time>
      </trkpt>
      <trkpt lat="48.77728" lon="-0.40255">
        <ele>242</ele>
        <time>2016-05-21T09:42:38Z</time>
      </trkpt>
      <trkpt lat="48.77713" lon="-0.4025">
        <ele>243</ele>
        <time>2016-05-21T09:42:43Z</time>
      </trkpt>
      <trkpt lat="48.77698" lon="-0.4025">
        <ele>244</ele>
        <time>2016-05-21T09:42:47Z</time>
      </trkpt>
      <trkpt lat="48.77683" lon="-0.40245">
        <ele>244</ele>
        <time>2016-05-21T09:42:52Z</time>
      </trkpt>
      <trkpt lat="48.77668" lon="-0.40245">
        <ele>246</ele>
        <time>2016-05-21T09:42:56Z</time>
      </trkpt>
      <trkpt lat="48.77653" lon="-0.4024">
        <ele>246</ele>
        <time>2016-05-21T09:43:01Z</time>
      </trkpt>
      <trkpt lat="48.77638" lon="-0.40235">
        <ele>245</ele>
        <time>2016-05-21T09:43:05Z</time>
      </trkpt>
      <trkpt lat="48.77623" lon="-0.40223">
        <ele>245</ele>
        <time>2016-05-21T09:43:09Z</time>
      </trkpt>
      <trkpt lat="48.77605" lon="-0.40213">
        <ele>245</ele>
        <time>2016-05-21T09:43:13Z</time>
      </trkpt>
      <trkpt lat="48.7759" lon="-0.40208">
        <ele>247</ele>
        <time>2016-05-21T09:43:18Z</time>
      </trkpt>
      <trkpt lat="48.77575" lon="-0.4021">
        <ele>247</ele>
        <time>2016-05-21T09:43:25Z</time>
      </trkpt>
      <trkpt lat="48.7755" lon="-0.40218">
        <ele>246</ele>
        <time>2016-05-21T09:43:35Z</time>
      </trkpt>
      <trkpt lat="48.77533" lon="-0.40218">
        <ele>247</ele>
        <time>2016-05-21T09:43:38Z</time>
      </trkpt>
      <trkpt lat="48.77518" lon="-0.4022">
        <ele>247</ele>
        <time>2016-05-21T09:43:43Z</time>
      </trkpt>
      <trkpt lat="48.77503" lon="-0.40223">
        <ele>247</ele>
        <time>2016-05-21T09:43:48Z</time>
      </trkpt>
      <trkpt lat="48.77488" lon="-0.40223">
        <ele>247</ele>
        <time>2016-05-21T09:43:53Z</time>
      </trkpt>
      <trkpt lat="48.77473" lon="-0.4022">
        <ele>248</ele>
        <time>2016-05-21T09:43:56Z</time>
      </trkpt>
      <trkpt lat="48.7746" lon="-0.40208">
        <ele>247</ele>
        <time>2016-05-21T09:44:02Z</time>
      </trkpt>
      <trkpt lat="48.77445" lon="-0.40198">
        <ele>248</ele>
        <time>2016-05-21T09:44:08Z</time>
      </trkpt>
      <trkpt lat="48.7743" lon="-0.40185">
        <ele>249</ele>
        <time>2016-05-21T09:44:13Z</time>
      </trkpt>
      <trkpt lat="48.7742" lon="-0.40168">
        <ele>249</ele>
        <time>2016-05-21T09:44:19Z</time>
      </trkpt>
      <trkpt lat="48.7742" lon="-0.40143">
        <ele>250</ele>
        <time>2016-05-21T09:44:24Z</time>
      </trkpt>
      <trkpt lat="48.77418" lon="-0.40118">
        <ele>250</ele>
        <time>2016-05-21T09:44:29Z</time>
      </trkpt>
      <trkpt lat="48.7742" lon="-0.40095">
        <ele>251</ele>
        <time>2016-05-21T09:44:33Z</time>
      </trkpt>
      <trkpt lat="48.77415" lon="-0.40073">
        <ele>253</ele>
        <time>2016-05-21T09:44:38Z</time>
      </trkpt>
      <trkpt lat="48.77403" lon="-0.40063">
        <ele>254</ele>
        <time>2016-05-21T09:44:42Z</time>
      </trkpt>
      <trkpt lat="48.77388" lon="-0.40058">
        <ele>253</ele>
        <time>2016-05-21T09:44:45Z</time>
      </trkpt>
      <trkpt lat="48.77375" lon="-0.40043">
        <ele>253</ele>
        <time>2016-05-21T09:44:48Z</time>
      </trkpt>
      <trkpt lat="48.77363" lon="-0.40023">
        <ele>254</ele>
        <time>2016-05-21T09:44:53Z</time>
      </trkpt>
      <trkpt lat="48.77353" lon="-0.40008">
        <ele>255</ele>
        <time>2016-05-21T09:44:57Z</time>
      </trkpt>
      <trkpt lat="48.7734" lon="-0.39993">
        <ele>256</ele>
        <time>2016-05-21T09:45:03Z</time>
      </trkpt>
      <trkpt lat="48.77325" lon="-0.39988">
        <ele>257</ele>
        <time>2016-05-21T09:45:10Z</time>
      </trkpt>
      <trkpt lat="48.77313" lon="-0.39998">
        <ele>258</ele>
        <time>2016-05-21T09:45:16Z</time>
      </trkpt>
      <trkpt lat="48.773" lon="-0.4001">
        <ele>258</ele>
        <time>2016-05-21T09:45:20Z</time>
      </trkpt>
      <trkpt lat="48.7729" lon="-0.40025">
        <ele>258</ele>
        <time>2016-05-21T09:45:24Z</time>
      </trkpt>
      <trkpt lat="48.7728" lon="-0.40055">
        <ele>260</ele>
        <time>2016-05-21T09:45:35Z</time>
      </trkpt>
      <trkpt lat="48.77273" lon="-0.40075">
        <ele>260</ele>
        <time>2016-05-21T09:45:42Z</time>
      </trkpt>
      <trkpt lat="48.7726" lon="-0.4009">
        <ele>258</ele>
        <time>2016-05-21T09:45:47Z</time>
      </trkpt>
      <trkpt lat="48.77248" lon="-0.40105">
        <ele>258</ele>
        <time>2016-05-21T09:45:52Z</time>
      </trkpt>
      <trkpt lat="48.77233" lon="-0.40128">
        <ele>262</ele>
        <time>2016-05-21T09:46:05Z</time>
      </trkpt>
      <trkpt lat="48.7722" lon="-0.40138">
        <ele>260</ele>
        <time>2016-05-21T09:46:10Z</time>
      </trkpt>
      <trkpt lat="48.7721" lon="-0.40155">
        <ele>260</ele>
        <time>2016-05-21T09:46:16Z</time>
      </trkpt>
      <trkpt lat="48.772" lon="-0.4017">
        <ele>257</ele>
        <time>2016-05-21T09:46:20Z</time>
      </trkpt>
      <trkpt lat="48.7719" lon="-0.40188">
        <ele>254</ele>
        <time>2016-05-21T09:46:24Z</time>
      </trkpt>
      <trkpt lat="48.7718" lon="-0.40203">
        <ele>250</ele>
        <time>2016-05-21T09:46:28Z</time>
      </trkpt>
      <trkpt lat="48.7717" lon="-0.40218">
        <ele>247</ele>
        <time>2016-05-21T09:46:32Z</time>
      </trkpt>
      <trkpt lat="48.77153" lon="-0.4021">
        <ele>245</ele>
        <time>2016-05-21T09:46:38Z</time>
      </trkpt>
      <trkpt lat="48.7714" lon="-0.40193">
        <ele>245</ele>
        <time>2016-05-21T09:46:44Z</time>
      </trkpt>
      <trkpt lat="48.7713" lon="-0.40175">
        <ele>245</ele>
        <time>2016-05-21T09:46:48Z</time>
      </trkpt>
      <trkpt lat="48.77123" lon="-0.40155">
        <ele>245</ele>
        <time>2016-05-21T09:46:55Z</time>
      </trkpt>
      <trkpt lat="48.77113" lon="-0.40135">
        <ele>245</ele>
        <time>2016-05-21T09:47:00Z</time>
      </trkpt>
      <trkpt lat="48.77103" lon="-0.40118">
        <ele>246</ele>
        <time>2016-05-21T09:47:04Z</time>
      </trkpt>
      <trkpt lat="48.77093" lon="-0.40103">
        <ele>247</ele>
        <time>2016-05-21T09:47:10Z</time>
      </trkpt>
      <trkpt lat="48.77083" lon="-0.40085">
        <ele>247</ele>
        <time>2016-05-21T09:47:17Z</time>
      </trkpt>
      <trkpt lat="48.7707" lon="-0.40068">
        <ele>248</ele>
        <time>2016-05-21T09:47:24Z</time>
      </trkpt>
      <trkpt lat="48.77058" lon="-0.4005">
        <ele>249</ele>
        <time>2016-05-21T09:47:30Z</time>
      </trkpt>
      <trkpt lat="48.7705" lon="-0.40033">
        <ele>247</ele>
        <time>2016-05-21T09:47:34Z</time>
      </trkpt>
      <trkpt lat="48.7704" lon="-0.40018">
        <ele>247</ele>
        <time>2016-05-21T09:47:38Z</time>
      </trkpt>
      <trkpt lat="48.7703" lon="-0.4">
        <ele>247</ele>
        <time>2016-05-21T09:47:42Z</time>
      </trkpt>
      <trkpt lat="48.77018" lon="-0.3998">
        <ele>248</ele>
        <time>2016-05-21T09:47:47Z</time>
      </trkpt>
      <trkpt lat="48.77008" lon="-0.39965">
        <ele>249</ele>
        <time>2016-05-21T09:47:51Z</time>
      </trkpt>
      <trkpt lat="48.76995" lon="-0.39953">
        <ele>249</ele>
        <time>2016-05-21T09:47:53Z</time>
      </trkpt>
      <trkpt lat="48.76983" lon="-0.39938">
        <ele>249</ele>
        <time>2016-05-21T09:47:57Z</time>
      </trkpt>
      <trkpt lat="48.76978" lon="-0.39913">
        <ele>249</ele>
        <time>2016-05-21T09:48:02Z</time>
      </trkpt>
      <trkpt lat="48.7698" lon="-0.3989">
        <ele>249</ele>
        <time>2016-05-21T09:48:06Z</time>
      </trkpt>
      <trkpt lat="48.76985" lon="-0.39865">
        <ele>249</ele>
        <time>2016-05-21T09:48:09Z</time>
      </trkpt>
      <trkpt lat="48.7699" lon="-0.39835">
        <ele>250</ele>
        <time>2016-05-21T09:48:16Z</time>
      </trkpt>
      <trkpt lat="48.7699" lon="-0.39805">
        <ele>252</ele>
        <time>2016-05-21T09:48:23Z</time>
      </trkpt>
      <trkpt lat="48.7698" lon="-0.39788">
        <ele>253</ele>
        <time>2016-05-21T09:48:29Z</time>
      </trkpt>
      <trkpt lat="48.7697" lon="-0.39763">
        <ele>253</ele>
        <time>2016-05-21T09:48:35Z</time>
      </trkpt>
      <trkpt lat="48.76955" lon="-0.39745">
        <ele>253</ele>
        <time>2016-05-21T09:48:42Z</time>
      </trkpt>
      <trkpt lat="48.76943" lon="-0.3973">
        <ele>254</ele>
        <time>2016-05-21T09:48:47Z</time>
      </trkpt>
      <trkpt lat="48.7693" lon="-0.39708">
        <ele>255</ele>
        <time>2016-05-21T09:48:55Z</time>
      </trkpt>
      <trkpt lat="48.7692" lon="-0.39688">
        <ele>255</ele>
        <time>2016-05-21T09:49:00Z</time>
      </trkpt>
      <trkpt lat="48.76908" lon="-0.39673">
        <ele>256</ele>
        <time>2016-05-21T09:49:04Z</time>
      </trkpt>
      <trkpt lat="48.7689" lon="-0.39663">
        <ele>256</ele>
        <time>2016-05-21T09:49:09Z</time>
      </trkpt>
      <trkpt lat="48.76875" lon="-0.39648">
        <ele>255</ele>
        <time>2016-05-21T09:49:13Z</time>
      </trkpt>
      <trkpt lat="48.7686" lon="-0.39648">
        <ele>257</ele>
        <time>2016-05-21T09:49:18Z</time>
      </trkpt>
      <trkpt lat="48.7685" lon="-0.39665">
        <ele>257</ele>
        <time>2016-05-21T09:49:27Z</time>
      </trkpt>
      <trkpt lat="48.76843" lon="-0.39683">
        <ele>257</ele>
        <time>2016-05-21T09:49:32Z</time>
      </trkpt>
      <trkpt lat="48.7683" lon="-0.397">
        <ele>256</ele>
        <time>2016-05-21T09:49:36Z</time>
      </trkpt>
      <trkpt lat="48.7682" lon="-0.3972">
        <ele>257</ele>
        <time>2016-05-21T09:49:41Z</time>
      </trkpt>
      <trkpt lat="48.76818" lon="-0.39748">
        <ele>256</ele>
        <time>2016-05-21T09:49:45Z</time>
      </trkpt>
      <trkpt lat="48.7682" lon="-0.3977">
        <ele>253</ele>
        <time>2016-05-21T09:49:51Z</time>
      </trkpt>
      <trkpt lat="48.76815" lon="-0.39793">
        <ele>251</ele>
        <time>2016-05-21T09:49:56Z</time>
      </trkpt>
      <trkpt lat="48.76805" lon="-0.39813">
        <ele>249</ele>
        <time>2016-05-21T09:50:00Z</time>
      </trkpt>
      <trkpt lat="48.76788" lon="-0.39818">
        <ele>248</ele>
        <time>2016-05-21T09:50:04Z</time>
      </trkpt>
      <trkpt lat="48.76773" lon="-0.39825">
        <ele>247</ele>
        <time>2016-05-21T09:50:07Z</time>
      </trkpt>
      <trkpt lat="48.76755" lon="-0.3984">
        <ele>245</ele>
        <time>2016-05-21T09:50:10Z</time>
      </trkpt>
      <trkpt lat="48.7674" lon="-0.3985">
        <ele>245</ele>
        <time>2016-05-21T09:50:14Z</time>
      </trkpt>
      <trkpt lat="48.7672" lon="-0.39865">
        <ele>245</ele>
        <time>2016-05-21T09:50:18Z</time>
      </trkpt>
      <trkpt lat="48.76705" lon="-0.39875">
        <ele>245</ele>
        <time>2016-05-21T09:50:22Z</time>
      </trkpt>
      <trkpt lat="48.76688" lon="-0.39883">
        <ele>244</ele>
        <time>2016-05-21T09:50:27Z</time>
      </trkpt>
      <trkpt lat="48.7667" lon="-0.3989">
        <ele>242</ele>
        <time>2016-05-21T09:50:29Z</time>
      </trkpt>
      <trkpt lat="48.76658" lon="-0.39908">
        <ele>241</ele>
        <time>2016-05-21T09:50:32Z</time>
      </trkpt>
      <trkpt lat="48.76648" lon="-0.39928">
        <ele>240</ele>
        <time>2016-05-21T09:50:36Z</time>
      </trkpt>
      <trkpt lat="48.7664" lon="-0.39948">
        <ele>238</ele>
        <time>2016-05-21T09:50:39Z</time>
      </trkpt>
      <trkpt lat="48.7663" lon="-0.39963">
        <ele>236</ele>
        <time>2016-05-21T09:51:44Z</time>
      </trkpt>
      <trkpt lat="48.76618" lon="-0.39973">
        <ele>235</ele>
        <time>2016-05-21T09:51:48Z</time>
      </trkpt>
      <trkpt lat="48.76605" lon="-0.39988">
        <ele>234</ele>
        <time>2016-05-21T09:51:51Z</time>
      </trkpt>
      <trkpt lat="48.76585" lon="-0.40013">
        <ele>233</ele>
        <time>2016-05-21T09:51:55Z</time>
      </trkpt>
      <trkpt lat="48.76583" lon="-0.40035">
        <ele>233</ele>
        <time>2016-05-21T09:52:02Z</time>
      </trkpt>
      <trkpt lat="48.7658" lon="-0.40058">
        <ele>230</ele>
        <time>2016-05-21T09:52:07Z</time>
      </trkpt>
      <trkpt lat="48.76585" lon="-0.40088">
        <ele>225</ele>
        <time>2016-05-21T09:52:20Z</time>
      </trkpt>
      <trkpt lat="48.7659" lon="-0.40108">
        <ele>223</ele>
        <time>2016-05-21T09:52:27Z</time>
      </trkpt>
      <trkpt lat="48.76588" lon="-0.40133">
        <ele>221</ele>
        <time>2016-05-21T09:52:34Z</time>
      </trkpt>
      <trkpt lat="48.76575" lon="-0.40143">
        <ele>219</ele>
        <time>2016-05-21T09:52:38Z</time>
      </trkpt>
      <trkpt lat="48.7656" lon="-0.40145">
        <ele>218</ele>
        <time>2016-05-21T09:52:42Z</time>
      </trkpt>
      <trkpt lat="48.76545" lon="-0.40148">
        <ele>216</ele>
        <time>2016-05-21T09:52:48Z</time>
      </trkpt>
      <trkpt lat="48.76528" lon="-0.4015">
        <ele>213</ele>
        <time>2016-05-21T09:52:52Z</time>
      </trkpt>
      <trkpt lat="48.7651" lon="-0.40153">
        <ele>209</ele>
        <time>2016-05-21T09:52:58Z</time>
      </trkpt>
      <trkpt lat="48.76498" lon="-0.40165">
        <ele>208</ele>
        <time>2016-05-21T09:53:03Z</time>
      </trkpt>
      <trkpt lat="48.76495" lon="-0.40188">
        <ele>207</ele>
        <time>2016-05-21T09:53:09Z</time>
      </trkpt>
      <trkpt lat="48.76488" lon="-0.40205">
        <ele>204</ele>
        <time>2016-05-21T09:53:12Z</time>
      </trkpt>
      <trkpt lat="48.7649" lon="-0.40228">
        <ele>201</ele>
        <time>2016-05-21T09:53:15Z</time>
      </trkpt>
      <trkpt lat="48.76485" lon="-0.4025">
        <ele>199</ele>
        <time>2016-05-21T09:53:18Z</time>
      </trkpt>
      <trkpt lat="48.76478" lon="-0.40285">
        <ele>196</ele>
        <time>2016-05-21T09:53:23Z</time>
      </trkpt>
      <trkpt lat="48.7647" lon="-0.40308">
        <ele>195</ele>
        <time>2016-05-21T09:53:27Z</time>
      </trkpt>
      <trkpt lat="48.76465" lon="-0.4033">
        <ele>193</ele>
        <time>2016-05-21T09:53:30Z</time>
      </trkpt>
      <trkpt lat="48.76463" lon="-0.40353">
        <ele>192</ele>
        <time>2016-05-21T09:53:33Z</time>
      </trkpt>
      <trkpt lat="48.76448" lon="-0.40365">
        <ele>191</ele>
        <time>2016-05-21T09:53:37Z</time>
      </trkpt>
      <trkpt lat="48.76433" lon="-0.40368">
        <ele>189</ele>
        <time>2016-05-21T09:53:41Z</time>
      </trkpt>
      <trkpt lat="48.76418" lon="-0.4037">
        <ele>188</ele>
        <time>2016-05-21T09:53:44Z</time>
      </trkpt>
      <trkpt lat="48.76403" lon="-0.40373">
        <ele>185</ele>
        <time>2016-05-21T09:53:48Z</time>
      </trkpt>
      <trkpt lat="48.76388" lon="-0.40375">
        <ele>182</ele>
        <time>2016-05-21T09:53:52Z</time>
      </trkpt>
      <trkpt lat="48.76373" lon="-0.40378">
        <ele>181</ele>
        <time>2016-05-21T09:53:56Z</time>
      </trkpt>
      <trkpt lat="48.76358" lon="-0.40385">
        <ele>180</ele>
        <time>2016-05-21T09:54:00Z</time>
      </trkpt>
      <trkpt lat="48.76343" lon="-0.404">
        <ele>179</ele>
        <time>2016-05-21T09:54:04Z</time>
      </trkpt>
      <trkpt lat="48.76325" lon="-0.404">
        <ele>179</ele>
        <time>2016-05-21T09:54:08Z</time>
      </trkpt>
      <trkpt lat="48.76308" lon="-0.404">
        <ele>178</ele>
        <time>2016-05-21T09:54:13Z</time>
      </trkpt>
      <trkpt lat="48.7628" lon="-0.40408">
        <ele>175</ele>
        <time>2016-05-21T09:54:17Z</time>
      </trkpt>
      <trkpt lat="48.7626" lon="-0.40413">
        <ele>172</ele>
        <time>2016-05-21T09:54:19Z</time>
      </trkpt>
      <trkpt lat="48.76243" lon="-0.4041">
        <ele>170</ele>
        <time>2016-05-21T09:54:23Z</time>
      </trkpt>
      <trkpt lat="48.76228" lon="-0.40405">
        <ele>168</ele>
        <time>2016-05-21T09:54:26Z</time>
      </trkpt>
      <trkpt lat="48.76213" lon="-0.40393">
        <ele>168</ele>
        <time>2016-05-21T09:54:29Z</time>
      </trkpt>
      <trkpt lat="48.762" lon="-0.40378">
        <ele>167</ele>
        <time>2016-05-21T09:54:33Z</time>
      </trkpt>
      <trkpt lat="48.76188" lon="-0.4036">
        <ele>168</ele>
        <time>2016-05-21T09:54:38Z</time>
      </trkpt>
      <trkpt lat="48.76178" lon="-0.40345">
        <ele>168</ele>
        <time>2016-05-21T09:54:42Z</time>
      </trkpt>
      <trkpt lat="48.7618" lon="-0.40323">
        <ele>168</ele>
        <time>2016-05-21T09:54:47Z</time>
      </trkpt>
      <trkpt lat="48.76185" lon="-0.40303">
        <ele>168</ele>
        <time>2016-05-21T09:54:51Z</time>
      </trkpt>
      <trkpt lat="48.76195" lon="-0.4028">
        <ele>175</ele>
        <time>2016-05-21T09:55:03Z</time>
      </trkpt>
      <trkpt lat="48.76198" lon="-0.40258">
        <ele>178</ele>
        <time>2016-05-21T09:55:14Z</time>
      </trkpt>
      <trkpt lat="48.76203" lon="-0.40238">
        <ele>180</ele>
        <time>2016-05-21T09:55:22Z</time>
      </trkpt>
      <trkpt lat="48.76213" lon="-0.40218">
        <ele>181</ele>
        <time>2016-05-21T09:55:32Z</time>
      </trkpt>
      <trkpt lat="48.76218" lon="-0.40195">
        <ele>183</ele>
        <time>2016-05-21T09:55:38Z</time>
      </trkpt>
      <trkpt lat="48.7622" lon="-0.40173">
        <ele>186</ele>
        <time>2016-05-21T09:55:43Z</time>
      </trkpt>
      <trkpt lat="48.76218" lon="-0.40148">
        <ele>187</ele>
        <time>2016-05-21T09:55:51Z</time>
      </trkpt>
      <trkpt lat="48.76218" lon="-0.40125">
        <ele>187</ele>
        <time>2016-05-21T09:55:56Z</time>
      </trkpt>
      <trkpt lat="48.76223" lon="-0.401">
        <ele>188</ele>
        <time>2016-05-21T09:56:02Z</time>
      </trkpt>
      <trkpt lat="48.76225" lon="-0.40078">
        <ele>189</ele>
        <time>2016-05-21T09:56:05Z</time>
      </trkpt>
      <trkpt lat="48.76223" lon="-0.4005">
        <ele>190</ele>
        <time>2016-05-21T09:56:09Z</time>
      </trkpt>
      <trkpt lat="48.7622" lon="-0.4002">
        <ele>192</ele>
        <time>2016-05-21T09:56:15Z</time>
      </trkpt>
      <trkpt lat="48.76215" lon="-0.39995">
        <ele>192</ele>
        <time>2016-05-21T09:56:20Z</time>
      </trkpt>
      <trkpt lat="48.7622" lon="-0.39973">
        <ele>192</ele>
        <time>2016-05-21T09:56:26Z</time>
      </trkpt>
      <trkpt lat="48.76223" lon="-0.39948">
        <ele>193</ele>
        <time>2016-05-21T09:56:30Z</time>
      </trkpt>
      <trkpt lat="48.7622" lon="-0.3992">
        <ele>193</ele>
        <time>2016-05-21T09:56:36Z</time>
      </trkpt>
      <trkpt lat="48.7622" lon="-0.39895">
        <ele>194</ele>
        <time>2016-05-21T09:56:40Z</time>
      </trkpt>
      <trkpt lat="48.76218" lon="-0.39873">
        <ele>193</ele>
        <time>2016-05-21T09:56:44Z</time>
      </trkpt>
      <trkpt lat="48.7622" lon="-0.3985">
        <ele>193</ele>
        <time>2016-05-21T09:56:48Z</time>
      </trkpt>
      <trkpt lat="48.76223" lon="-0.3982">
        <ele>194</ele>
        <time>2016-05-21T09:56:52Z</time>
      </trkpt>
      <trkpt lat="48.76225" lon="-0.39798">
        <ele>195</ele>
        <time>2016-05-21T09:56:56Z</time>
      </trkpt>
      <trkpt lat="48.76228" lon="-0.39765">
        <ele>196</ele>
        <time>2016-05-21T09:57:02Z</time>
      </trkpt>
      <trkpt lat="48.76233" lon="-0.39743">
        <ele>198</ele>
        <time>2016-05-21T09:57:06Z</time>
      </trkpt>
      <trkpt lat="48.76238" lon="-0.39715">
        <ele>198</ele>
        <time>2016-05-21T09:57:11Z</time>
      </trkpt>
      <trkpt lat="48.76243" lon="-0.39695">
        <ele>198</ele>
        <time>2016-05-21T09:57:14Z</time>
      </trkpt>
      <trkpt lat="48.76248" lon="-0.3967">
        <ele>198</ele>
        <time>2016-05-21T09:57:18Z</time>
      </trkpt>
      <trkpt lat="48.76255" lon="-0.39648">
        <ele>199</ele>
        <time>2016-05-21T09:57:22Z</time>
      </trkpt>
      <trkpt lat="48.76263" lon="-0.39625">
        <ele>200</ele>
        <time>2016-05-21T09:57:27Z</time>
      </trkpt>
      <trkpt lat="48.76273" lon="-0.3961">
        <ele>201</ele>
        <time>2016-05-21T09:57:31Z</time>
      </trkpt>
      <trkpt lat="48.76285" lon="-0.39593">
        <ele>201</ele>
        <time>2016-05-21T09:57:35Z</time>
      </trkpt>
      <trkpt lat="48.76298" lon="-0.39578">
        <ele>203</ele>
        <time>2016-05-21T09:57:41Z</time>
      </trkpt>
      <trkpt lat="48.7631" lon="-0.39568">
        <ele>204</ele>
        <time>2016-05-21T09:57:46Z</time>
      </trkpt>
      <trkpt lat="48.76323" lon="-0.39555">
        <ele>205</ele>
        <time>2016-05-21T09:57:51Z</time>
      </trkpt>
      <trkpt lat="48.76338" lon="-0.39545">
        <ele>207</ele>
        <time>2016-05-21T09:57:56Z</time>
      </trkpt>
      <trkpt lat="48.76353" lon="-0.39538">
        <ele>209</ele>
        <time>2016-05-21T09:58:00Z</time>
      </trkpt>
      <trkpt lat="48.76375" lon="-0.39523">
        <ele>213</ele>
        <time>2016-05-21T09:58:09Z</time>
      </trkpt>
      <trkpt lat="48.7639" lon="-0.39513">
        <ele>214</ele>
        <time>2016-05-21T09:58:14Z</time>
      </trkpt>
      <trkpt lat="48.76405" lon="-0.395">
        <ele>216</ele>
        <time>2016-05-21T09:58:21Z</time>
      </trkpt>
      <trkpt lat="48.7642" lon="-0.3949">
        <ele>217</ele>
        <time>2016-05-21T09:58:26Z</time>
      </trkpt>
      <trkpt lat="48.76435" lon="-0.39485">
        <ele>220</ele>
        <time>2016-05-21T09:58:30Z</time>
      </trkpt>
      <trkpt lat="48.76448" lon="-0.39475">
        <ele>221</ele>
        <time>2016-05-21T09:58:37Z</time>
      </trkpt>
      <trkpt lat="48.7646" lon="-0.39463">
        <ele>224</ele>
        <time>2016-05-21T09:58:46Z</time>
      </trkpt>
      <trkpt lat="48.76475" lon="-0.3947">
        <ele>226</ele>
        <time>2016-05-21T10:00:23Z</time>
      </trkpt>
      <trkpt lat="48.7649" lon="-0.39473">
        <ele>226</ele>
        <time>2016-05-21T10:00:29Z</time>
      </trkpt>
      <trkpt lat="48.76505" lon="-0.39475">
        <ele>226</ele>
        <time>2016-05-21T10:00:35Z</time>
      </trkpt>
      <trkpt lat="48.76523" lon="-0.39475">
        <ele>227</ele>
        <time>2016-05-21T10:00:40Z</time>
      </trkpt>
      <trkpt lat="48.7654" lon="-0.39473">
        <ele>229</ele>
        <time>2016-05-21T10:00:48Z</time>
      </trkpt>
      <trkpt lat="48.76555" lon="-0.3947">
        <ele>230</ele>
        <time>2016-05-21T10:00:55Z</time>
      </trkpt>
      <trkpt lat="48.7657" lon="-0.39468">
        <ele>232</ele>
        <time>2016-05-21T10:01:04Z</time>
      </trkpt>
      <trkpt lat="48.76585" lon="-0.39468">
        <ele>234</ele>
        <time>2016-05-21T10:01:13Z</time>
      </trkpt>
      <trkpt lat="48.766" lon="-0.3947">
        <ele>235</ele>
        <time>2016-05-21T10:01:20Z</time>
      </trkpt>
      <trkpt lat="48.76615" lon="-0.39478">
        <ele>236</ele>
        <time>2016-05-21T10:01:29Z</time>
      </trkpt>
      <trkpt lat="48.7663" lon="-0.3948">
        <ele>238</ele>
        <time>2016-05-21T10:01:36Z</time>
      </trkpt>
      <trkpt lat="48.76653" lon="-0.39473">
        <ele>240</ele>
        <time>2016-05-21T10:01:54Z</time>
      </trkpt>
      <trkpt lat="48.76668" lon="-0.3947">
        <ele>239</ele>
        <time>2016-05-21T10:01:59Z</time>
      </trkpt>
      <trkpt lat="48.76698" lon="-0.39463">
        <ele>241</ele>
        <time>2016-05-21T10:02:29Z</time>
      </trkpt>
      <trkpt lat="48.76713" lon="-0.3946">
        <ele>243</ele>
        <time>2016-05-21T10:02:51Z</time>
      </trkpt>
      <trkpt lat="48.76728" lon="-0.39455">
        <ele>243</ele>
        <time>2016-05-21T10:02:58Z</time>
      </trkpt>
      <trkpt lat="48.7673" lon="-0.3943">
        <ele>245</ele>
        <time>2016-05-21T10:03:04Z</time>
      </trkpt>
      <trkpt lat="48.76735" lon="-0.3941">
        <ele>245</ele>
        <time>2016-05-21T10:03:11Z</time>
      </trkpt>
      <trkpt lat="48.76738" lon="-0.39388">
        <ele>245</ele>
        <time>2016-05-21T10:03:18Z</time>
      </trkpt>
      <trkpt lat="48.76735" lon="-0.39363">
        <ele>246</ele>
        <time>2016-05-21T10:03:24Z</time>
      </trkpt>
      <trkpt lat="48.76733" lon="-0.3934">
        <ele>246</ele>
        <time>2016-05-21T10:03:28Z</time>
      </trkpt>
      <trkpt lat="48.7673" lon="-0.39315">
        <ele>247</ele>
        <time>2016-05-21T10:03:33Z</time>
      </trkpt>
      <trkpt lat="48.76735" lon="-0.39288">
        <ele>247</ele>
        <time>2016-05-21T10:03:38Z</time>
      </trkpt>
      <trkpt lat="48.7674" lon="-0.39265">
        <ele>247</ele>
        <time>2016-05-21T10:03:44Z</time>
      </trkpt>
      <trkpt lat="48.76748" lon="-0.39245">
        <ele>247</ele>
        <time>2016-05-21T10:03:48Z</time>
      </trkpt>
      <trkpt lat="48.76753" lon="-0.3922">
        <ele>246</ele>
        <time>2016-05-21T10:03:54Z</time>
      </trkpt>
      <trkpt lat="48.7676" lon="-0.392">
        <ele>246</ele>
        <time>2016-05-21T10:03:58Z</time>
      </trkpt>
      <trkpt lat="48.76765" lon="-0.3918">
        <ele>246</ele>
        <time>2016-05-21T10:04:02Z</time>
      </trkpt>
      <trkpt lat="48.76775" lon="-0.3916">
        <ele>245</ele>
        <time>2016-05-21T10:04:07Z</time>
      </trkpt>
      <trkpt lat="48.76783" lon="-0.3914">
        <ele>244</ele>
        <time>2016-05-21T10:04:11Z</time>
      </trkpt>
      <trkpt lat="48.7679" lon="-0.39123">
        <ele>244</ele>
        <time>2016-05-21T10:04:14Z</time>
      </trkpt>
      <trkpt lat="48.768" lon="-0.39103">
        <ele>245</ele>
        <time>2016-05-21T10:04:18Z</time>
      </trkpt>
      <trkpt lat="48.76805" lon="-0.39083">
        <ele>247</ele>
        <time>2016-05-21T10:04:23Z</time>
      </trkpt>
      <trkpt lat="48.76813" lon="-0.39063">
        <ele>250</ele>
        <time>2016-05-21T10:04:27Z</time>
      </trkpt>
      <trkpt lat="48.7682" lon="-0.39045">
        <ele>250</ele>
        <time>2016-05-21T10:04:33Z</time>
      </trkpt>
      <trkpt lat="48.76828" lon="-0.39028">
        <ele>250</ele>
        <time>2016-05-21T10:04:37Z</time>
      </trkpt>
      <trkpt lat="48.76833" lon="-0.39003">
        <ele>250</ele>
        <time>2016-05-21T10:04:44Z</time>
      </trkpt>
      <trkpt lat="48.76843" lon="-0.38983">
        <ele>248</ele>
        <time>2016-05-21T10:04:49Z</time>
      </trkpt>
      <trkpt lat="48.76848" lon="-0.3896">
        <ele>250</ele>
        <time>2016-05-21T10:04:55Z</time>
      </trkpt>
      <trkpt lat="48.76853" lon="-0.3894">
        <ele>252</ele>
        <time>2016-05-21T10:05:02Z</time>
      </trkpt>
      <trkpt lat="48.76858" lon="-0.3892">
        <ele>252</ele>
        <time>2016-05-21T10:05:07Z</time>
      </trkpt>
      <trkpt lat="48.76865" lon="-0.38903">
        <ele>252</ele>
        <time>2016-05-21T10:05:13Z</time>
      </trkpt>
      <trkpt lat="48.76873" lon="-0.3888">
        <ele>253</ele>
        <time>2016-05-21T10:05:20Z</time>
      </trkpt>
      <trkpt lat="48.76878" lon="-0.3886">
        <ele>253</ele>
        <time>2016-05-21T10:05:23Z</time>
      </trkpt>
      <trkpt lat="48.7689" lon="-0.3882">
        <ele>253</ele>
        <time>2016-05-21T10:05:34Z</time>
      </trkpt>
      <trkpt lat="48.76893" lon="-0.38795">
        <ele>255</ele>
        <time>2016-05-21T10:05:39Z</time>
      </trkpt>
      <trkpt lat="48.76895" lon="-0.3877">
        <ele>256</ele>
        <time>2016-05-21T10:05:46Z</time>
      </trkpt>
      <trkpt lat="48.76895" lon="-0.38748">
        <ele>257</ele>
        <time>2016-05-21T10:05:51Z</time>
      </trkpt>
      <trkpt lat="48.76895" lon="-0.38725">
        <ele>257</ele>
        <time>2016-05-21T10:05:55Z</time>
      </trkpt>
      <trkpt lat="48.769" lon="-0.38705">
        <ele>257</ele>
        <time>2016-05-21T10:06:00Z</time>
      </trkpt>
      <trkpt lat="48.76905" lon="-0.3868">
        <ele>256</ele>
        <time>2016-05-21T10:06:04Z</time>
      </trkpt>
      <trkpt lat="48.76908" lon="-0.38658">
        <ele>254</ele>
        <time>2016-05-21T10:06:10Z</time>
      </trkpt>
      <trkpt lat="48.76895" lon="-0.38645">
        <ele>255</ele>
        <time>2016-05-21T10:10:35Z</time>
      </trkpt>
      <trkpt lat="48.7688" lon="-0.3863">
        <ele>255</ele>
        <time>2016-05-21T10:10:38Z</time>
      </trkpt>
      <trkpt lat="48.76875" lon="-0.3861">
        <ele>254</ele>
        <time>2016-05-21T10:10:42Z</time>
      </trkpt>
      <trkpt lat="48.76868" lon="-0.38588">
        <ele>254</ele>
        <time>2016-05-21T10:10:45Z</time>
      </trkpt>
      <trkpt lat="48.76858" lon="-0.38565">
        <ele>253</ele>
        <time>2016-05-21T10:10:47Z</time>
      </trkpt>
      <trkpt lat="48.76843" lon="-0.38528">
        <ele>253</ele>
        <time>2016-05-21T10:10:52Z</time>
      </trkpt>
      <trkpt lat="48.76828" lon="-0.38488">
        <ele>254</ele>
        <time>2016-05-21T10:10:58Z</time>
      </trkpt>
      <trkpt lat="48.76815" lon="-0.38458">
        <ele>254</ele>
        <time>2016-05-21T10:11:02Z</time>
      </trkpt>
      <trkpt lat="48.76805" lon="-0.3843">
        <ele>253</ele>
        <time>2016-05-21T10:11:06Z</time>
      </trkpt>
      <trkpt lat="48.76785" lon="-0.38383">
        <ele>253</ele>
        <time>2016-05-21T10:11:12Z</time>
      </trkpt>
      <trkpt lat="48.76775" lon="-0.3836">
        <ele>254</ele>
        <time>2016-05-21T10:11:15Z</time>
      </trkpt>
      <trkpt lat="48.76758" lon="-0.38313">
        <ele>255</ele>
        <time>2016-05-21T10:11:21Z</time>
      </trkpt>
      <trkpt lat="48.7675" lon="-0.38285">
        <ele>255</ele>
        <time>2016-05-21T10:11:24Z</time>
      </trkpt>
      <trkpt lat="48.7674" lon="-0.38235">
        <ele>254</ele>
        <time>2016-05-21T10:11:29Z</time>
      </trkpt>
      <trkpt lat="48.7673" lon="-0.38215">
        <ele>254</ele>
        <time>2016-05-21T10:11:33Z</time>
      </trkpt>
      <trkpt lat="48.76723" lon="-0.38195">
        <ele>255</ele>
        <time>2016-05-21T10:11:36Z</time>
      </trkpt>
      <trkpt lat="48.7671" lon="-0.3818">
        <ele>255</ele>
        <time>2016-05-21T10:11:40Z</time>
      </trkpt>
      <trkpt lat="48.767" lon="-0.38163">
        <ele>255</ele>
        <time>2016-05-21T10:11:43Z</time>
      </trkpt>
      <trkpt lat="48.76688" lon="-0.38145">
        <ele>255</ele>
        <time>2016-05-21T10:11:48Z</time>
      </trkpt>
      <trkpt lat="48.76675" lon="-0.38133">
        <ele>255</ele>
        <time>2016-05-21T10:11:52Z</time>
      </trkpt>
      <trkpt lat="48.76663" lon="-0.38118">
        <ele>254</ele>
        <time>2016-05-21T10:11:56Z</time>
      </trkpt>
      <trkpt lat="48.76648" lon="-0.38103">
        <ele>254</ele>
        <time>2016-05-21T10:12:00Z</time>
      </trkpt>
      <trkpt lat="48.76633" lon="-0.38085">
        <ele>254</ele>
        <time>2016-05-21T10:12:05Z</time>
      </trkpt>
      <trkpt lat="48.76623" lon="-0.3807">
        <ele>254</ele>
        <time>2016-05-21T10:12:08Z</time>
      </trkpt>
      <trkpt lat="48.7661" lon="-0.3805">
        <ele>254</ele>
        <time>2016-05-21T10:12:13Z</time>
      </trkpt>
      <trkpt lat="48.766" lon="-0.38035">
        <ele>254</ele>
        <time>2016-05-21T10:12:17Z</time>
      </trkpt>
      <trkpt lat="48.76593" lon="-0.38018">
        <ele>254</ele>
        <time>2016-05-21T10:12:20Z</time>
      </trkpt>
      <trkpt lat="48.766" lon="-0.38">
        <ele>254</ele>
        <time>2016-05-21T10:12:25Z</time>
      </trkpt>
      <trkpt lat="48.7661" lon="-0.3798">
        <ele>253</ele>
        <time>2016-05-21T10:12:29Z</time>
      </trkpt>
      <trkpt lat="48.76623" lon="-0.37958">
        <ele>255</ele>
        <time>2016-05-21T10:12:34Z</time>
      </trkpt>
      <trkpt lat="48.76633" lon="-0.37938">
        <ele>255</ele>
        <time>2016-05-21T10:12:38Z</time>
      </trkpt>
      <trkpt lat="48.76643" lon="-0.37923">
        <ele>254</ele>
        <time>2016-05-21T10:12:41Z</time>
      </trkpt>
      <trkpt lat="48.76653" lon="-0.37905">
        <ele>253</ele>
        <time>2016-05-21T10:12:44Z</time>
      </trkpt>
      <trkpt lat="48.7666" lon="-0.37888">
        <ele>253</ele>
        <time>2016-05-21T10:12:47Z</time>
      </trkpt>
      <trkpt lat="48.76678" lon="-0.37858">
        <ele>252</ele>
        <time>2016-05-21T10:12:51Z</time>
      </trkpt>
      <trkpt lat="48.7669" lon="-0.37845">
        <ele>251</ele>
        <time>2016-05-21T10:12:56Z</time>
      </trkpt>
      <trkpt lat="48.76705" lon="-0.3784">
        <ele>251</ele>
        <time>2016-05-21T10:13:01Z</time>
      </trkpt>
      <trkpt lat="48.76723" lon="-0.37838">
        <ele>249</ele>
        <time>2016-05-21T10:13:05Z</time>
      </trkpt>
      <trkpt lat="48.76745" lon="-0.37833">
        <ele>248</ele>
        <time>2016-05-21T10:13:11Z</time>
      </trkpt>
      <trkpt lat="48.7676" lon="-0.3783">
        <ele>248</ele>
        <time>2016-05-21T10:13:15Z</time>
      </trkpt>
      <trkpt lat="48.7678" lon="-0.37825">
        <ele>244</ele>
        <time>2016-05-21T10:13:19Z</time>
      </trkpt>
      <trkpt lat="48.76808" lon="-0.37823">
        <ele>242</ele>
        <time>2016-05-21T10:13:23Z</time>
      </trkpt>
      <trkpt lat="48.7684" lon="-0.37815">
        <ele>240</ele>
        <time>2016-05-21T10:13:27Z</time>
      </trkpt>
      <trkpt lat="48.76863" lon="-0.37813">
        <ele>240</ele>
        <time>2016-05-21T10:13:30Z</time>
      </trkpt>
      <trkpt lat="48.76883" lon="-0.37815">
        <ele>240</ele>
        <time>2016-05-21T10:13:33Z</time>
      </trkpt>
      <trkpt lat="48.76898" lon="-0.37813">
        <ele>241</ele>
        <time>2016-05-21T10:13:40Z</time>
      </trkpt>
      <trkpt lat="48.76915" lon="-0.3781">
        <ele>238</ele>
        <time>2016-05-21T10:13:44Z</time>
      </trkpt>
      <trkpt lat="48.7695" lon="-0.37805">
        <ele>235</ele>
        <time>2016-05-21T10:13:49Z</time>
      </trkpt>
      <trkpt lat="48.76995" lon="-0.378">
        <ele>232</ele>
        <time>2016-05-21T10:13:56Z</time>
      </trkpt>
      <trkpt lat="48.77008" lon="-0.37783">
        <ele>232</ele>
        <time>2016-05-21T10:13:59Z</time>
      </trkpt>
      <trkpt lat="48.77023" lon="-0.37765">
        <ele>231</ele>
        <time>2016-05-21T10:14:02Z</time>
      </trkpt>
      <trkpt lat="48.77038" lon="-0.37755">
        <ele>228</ele>
        <time>2016-05-21T10:14:05Z</time>
      </trkpt>
      <trkpt lat="48.77053" lon="-0.37745">
        <ele>227</ele>
        <time>2016-05-21T10:14:08Z</time>
      </trkpt>
      <trkpt lat="48.77075" lon="-0.3774">
        <ele>227</ele>
        <time>2016-05-21T10:14:10Z</time>
      </trkpt>
      <trkpt lat="48.77095" lon="-0.37728">
        <ele>226</ele>
        <time>2016-05-21T10:14:14Z</time>
      </trkpt>
      <trkpt lat="48.77115" lon="-0.37733">
        <ele>226</ele>
        <time>2016-05-21T10:14:16Z</time>
      </trkpt>
      <trkpt lat="48.77135" lon="-0.37743">
        <ele>226</ele>
        <time>2016-05-21T10:14:20Z</time>
      </trkpt>
      <trkpt lat="48.77153" lon="-0.3775">
        <ele>225</ele>
        <time>2016-05-21T10:14:22Z</time>
      </trkpt>
      <trkpt lat="48.77183" lon="-0.37758">
        <ele>225</ele>
        <time>2016-05-21T10:14:27Z</time>
      </trkpt>
      <trkpt lat="48.77198" lon="-0.37765">
        <ele>225</ele>
        <time>2016-05-21T10:14:30Z</time>
      </trkpt>
      <trkpt lat="48.77215" lon="-0.37773">
        <ele>225</ele>
        <time>2016-05-21T10:14:33Z</time>
      </trkpt>
      <trkpt lat="48.7723" lon="-0.37783">
        <ele>225</ele>
        <time>2016-05-21T10:14:36Z</time>
      </trkpt>
      <trkpt lat="48.77248" lon="-0.37793">
        <ele>225</ele>
        <time>2016-05-21T10:14:39Z</time>
      </trkpt>
      <trkpt lat="48.77263" lon="-0.37795">
        <ele>224</ele>
        <time>2016-05-21T10:14:43Z</time>
      </trkpt>
      <trkpt lat="48.77283" lon="-0.3778">
        <ele>227</ele>
        <time>2016-05-21T10:15:28Z</time>
      </trkpt>
      <trkpt lat="48.77275" lon="-0.37758">
        <ele>225</ele>
        <time>2016-05-21T10:15:33Z</time>
      </trkpt>
      <trkpt lat="48.77273" lon="-0.3773">
        <ele>224</ele>
        <time>2016-05-21T10:15:38Z</time>
      </trkpt>
      <trkpt lat="48.77268" lon="-0.37708">
        <ele>223</ele>
        <time>2016-05-21T10:15:41Z</time>
      </trkpt>
      <trkpt lat="48.77263" lon="-0.37685">
        <ele>223</ele>
        <time>2016-05-21T10:15:44Z</time>
      </trkpt>
      <trkpt lat="48.7726" lon="-0.37663">
        <ele>222</ele>
        <time>2016-05-21T10:15:47Z</time>
      </trkpt>
      <trkpt lat="48.77255" lon="-0.3764">
        <ele>221</ele>
        <time>2016-05-21T10:15:50Z</time>
      </trkpt>
      <trkpt lat="48.77253" lon="-0.37618">
        <ele>221</ele>
        <time>2016-05-21T10:15:53Z</time>
      </trkpt>
      <trkpt lat="48.77248" lon="-0.37598">
        <ele>221</ele>
        <time>2016-05-21T10:15:56Z</time>
      </trkpt>
      <trkpt lat="48.77248" lon="-0.37573">
        <ele>220</ele>
        <time>2016-05-21T10:16:00Z</time>
      </trkpt>
      <trkpt lat="48.77243" lon="-0.37553">
        <ele>219</ele>
        <time>2016-05-21T10:16:03Z</time>
      </trkpt>
      <trkpt lat="48.7724" lon="-0.3753">
        <ele>220</ele>
        <time>2016-05-21T10:16:06Z</time>
      </trkpt>
      <trkpt lat="48.77235" lon="-0.37503">
        <ele>220</ele>
        <time>2016-05-21T10:16:10Z</time>
      </trkpt>
      <trkpt lat="48.77233" lon="-0.37478">
        <ele>221</ele>
        <time>2016-05-21T10:16:14Z</time>
      </trkpt>
      <trkpt lat="48.77228" lon="-0.3745">
        <ele>222</ele>
        <time>2016-05-21T10:16:19Z</time>
      </trkpt>
      <trkpt lat="48.77223" lon="-0.3741">
        <ele>224</ele>
        <time>2016-05-21T10:16:26Z</time>
      </trkpt>
      <trkpt lat="48.77218" lon="-0.37378">
        <ele>224</ele>
        <time>2016-05-21T10:16:32Z</time>
      </trkpt>
      <trkpt lat="48.77208" lon="-0.37318">
        <ele>225</ele>
        <time>2016-05-21T10:16:42Z</time>
      </trkpt>
      <trkpt lat="48.77203" lon="-0.37278">
        <ele>226</ele>
        <time>2016-05-21T10:16:50Z</time>
      </trkpt>
      <trkpt lat="48.772" lon="-0.3725">
        <ele>226</ele>
        <time>2016-05-21T10:16:54Z</time>
      </trkpt>
      <trkpt lat="48.77195" lon="-0.3723">
        <ele>225</ele>
        <time>2016-05-21T10:16:59Z</time>
      </trkpt>
      <trkpt lat="48.772" lon="-0.37208">
        <ele>226</ele>
        <time>2016-05-21T10:17:10Z</time>
      </trkpt>
      <trkpt lat="48.7721" lon="-0.3719">
        <ele>226</ele>
        <time>2016-05-21T10:17:16Z</time>
      </trkpt>
      <trkpt lat="48.77213" lon="-0.37168">
        <ele>229</ele>
        <time>2016-05-21T10:17:25Z</time>
      </trkpt>
      <trkpt lat="48.77215" lon="-0.37145">
        <ele>230</ele>
        <time>2016-05-21T10:17:29Z</time>
      </trkpt>
      <trkpt lat="48.77218" lon="-0.37123">
        <ele>232</ele>
        <time>2016-05-21T10:17:37Z</time>
      </trkpt>
      <trkpt lat="48.77218" lon="-0.37098">
        <ele>234</ele>
        <time>2016-05-21T10:17:45Z</time>
      </trkpt>
      <trkpt lat="48.77223" lon="-0.37078">
        <ele>235</ele>
        <time>2016-05-21T10:17:52Z</time>
      </trkpt>
      <trkpt lat="48.77225" lon="-0.37055">
        <ele>238</ele>
        <time>2016-05-21T10:18:00Z</time>
      </trkpt>
      <trkpt lat="48.77233" lon="-0.37035">
        <ele>239</ele>
        <time>2016-05-21T10:18:06Z</time>
      </trkpt>
      <trkpt lat="48.77238" lon="-0.36993">
        <ele>245</ele>
        <time>2016-05-21T10:18:53Z</time>
      </trkpt>
      <trkpt lat="48.77235" lon="-0.36963">
        <ele>245</ele>
        <time>2016-05-21T10:19:10Z</time>
      </trkpt>
      <trkpt lat="48.77235" lon="-0.3694">
        <ele>244</ele>
        <time>2016-05-21T10:19:16Z</time>
      </trkpt>
      <trkpt lat="48.77243" lon="-0.3692">
        <ele>243</ele>
        <time>2016-05-21T10:19:22Z</time>
      </trkpt>
      <trkpt lat="48.77248" lon="-0.369">
        <ele>242</ele>
        <time>2016-05-21T10:19:26Z</time>
      </trkpt>
      <trkpt lat="48.77258" lon="-0.36883">
        <ele>242</ele>
        <time>2016-05-21T10:19:31Z</time>
      </trkpt>
      <trkpt lat="48.7727" lon="-0.36868">
        <ele>244</ele>
        <time>2016-05-21T10:19:37Z</time>
      </trkpt>
      <trkpt lat="48.7728" lon="-0.3685">
        <ele>246</ele>
        <time>2016-05-21T10:19:43Z</time>
      </trkpt>
      <trkpt lat="48.7729" lon="-0.36833">
        <ele>246</ele>
        <time>2016-05-21T10:19:49Z</time>
      </trkpt>
      <trkpt lat="48.77298" lon="-0.36813">
        <ele>247</ele>
        <time>2016-05-21T10:19:56Z</time>
      </trkpt>
      <trkpt lat="48.77303" lon="-0.36793">
        <ele>247</ele>
        <time>2016-05-21T10:20:01Z</time>
      </trkpt>
      <trkpt lat="48.77308" lon="-0.36773">
        <ele>247</ele>
        <time>2016-05-21T10:20:07Z</time>
      </trkpt>
      <trkpt lat="48.77318" lon="-0.36755">
        <ele>247</ele>
        <time>2016-05-21T10:20:12Z</time>
      </trkpt>
      <trkpt lat="48.77333" lon="-0.36745">
        <ele>247</ele>
        <time>2016-05-21T10:20:17Z</time>
      </trkpt>
      <trkpt lat="48.77348" lon="-0.36743">
        <ele>248</ele>
        <time>2016-05-21T10:20:28Z</time>
      </trkpt>
      <trkpt lat="48.77363" lon="-0.36745">
        <ele>247</ele>
        <time>2016-05-21T10:20:33Z</time>
      </trkpt>
      <trkpt lat="48.77375" lon="-0.36755">
        <ele>247</ele>
        <time>2016-05-21T10:20:38Z</time>
      </trkpt>
      <trkpt lat="48.77388" lon="-0.36768">
        <ele>247</ele>
        <time>2016-05-21T10:20:42Z</time>
      </trkpt>
      <trkpt lat="48.774" lon="-0.36783">
        <ele>246</ele>
        <time>2016-05-21T10:20:47Z</time>
      </trkpt>
      <trkpt lat="48.77405" lon="-0.36805">
        <ele>246</ele>
        <time>2016-05-21T10:20:52Z</time>
      </trkpt>
      <trkpt lat="48.7741" lon="-0.36828">
        <ele>246</ele>
        <time>2016-05-21T10:20:56Z</time>
      </trkpt>
      <trkpt lat="48.77413" lon="-0.3685">
        <ele>245</ele>
        <time>2016-05-21T10:20:59Z</time>
      </trkpt>
      <trkpt lat="48.77413" lon="-0.36875">
        <ele>245</ele>
        <time>2016-05-21T10:21:03Z</time>
      </trkpt>
      <trkpt lat="48.77413" lon="-0.369">
        <ele>245</ele>
        <time>2016-05-21T10:21:09Z</time>
      </trkpt>
      <trkpt lat="48.77413" lon="-0.36925">
        <ele>245</ele>
        <time>2016-05-21T10:21:13Z</time>
      </trkpt>
      <trkpt lat="48.7741" lon="-0.36955">
        <ele>245</ele>
        <time>2016-05-21T10:21:16Z</time>
      </trkpt>
      <trkpt lat="48.77408" lon="-0.3699">
        <ele>245</ele>
        <time>2016-05-21T10:21:21Z</time>
      </trkpt>
      <trkpt lat="48.77408" lon="-0.37015">
        <ele>245</ele>
        <time>2016-05-21T10:21:25Z</time>
      </trkpt>
      <trkpt lat="48.77408" lon="-0.3704">
        <ele>245</ele>
        <time>2016-05-21T10:21:28Z</time>
      </trkpt>
      <trkpt lat="48.77415" lon="-0.37065">
        <ele>243</ele>
        <time>2016-05-21T10:21:32Z</time>
      </trkpt>
      <trkpt lat="48.77415" lon="-0.37088">
        <ele>241</ele>
        <time>2016-05-21T10:21:35Z</time>
      </trkpt>
      <trkpt lat="48.77428" lon="-0.37103">
        <ele>240</ele>
        <time>2016-05-21T10:21:40Z</time>
      </trkpt>
      <trkpt lat="48.77445" lon="-0.37105">
        <ele>240</ele>
        <time>2016-05-21T10:21:45Z</time>
      </trkpt>
      <trkpt lat="48.77463" lon="-0.37103">
        <ele>238</ele>
        <time>2016-05-21T10:21:49Z</time>
      </trkpt>
      <trkpt lat="48.77485" lon="-0.3709">
        <ele>237</ele>
        <time>2016-05-21T10:21:53Z</time>
      </trkpt>
      <trkpt lat="48.77498" lon="-0.37078">
        <ele>235</ele>
        <time>2016-05-21T10:21:56Z</time>
      </trkpt>
      <trkpt lat="48.77515" lon="-0.37083">
        <ele>233</ele>
        <time>2016-05-21T10:21:59Z</time>
      </trkpt>
      <trkpt lat="48.77528" lon="-0.371">
        <ele>233</ele>
        <time>2016-05-21T10:22:04Z</time>
      </trkpt>
      <trkpt lat="48.77538" lon="-0.37115">
        <ele>235</ele>
        <time>2016-05-21T10:22:08Z</time>
      </trkpt>
      <trkpt lat="48.77548" lon="-0.3713">
        <ele>235</ele>
        <time>2016-05-21T10:22:10Z</time>
      </trkpt>
      <trkpt lat="48.77565" lon="-0.3715">
        <ele>234</ele>
        <time>2016-05-21T10:22:15Z</time>
      </trkpt>
      <trkpt lat="48.77605" lon="-0.37148">
        <ele>243</ele>
        <time>2016-05-21T10:22:39Z</time>
      </trkpt>
      <trkpt lat="48.7762" lon="-0.37145">
        <ele>245</ele>
        <time>2016-05-21T10:22:47Z</time>
      </trkpt>
      <trkpt lat="48.77635" lon="-0.37145">
        <ele>246</ele>
        <time>2016-05-21T10:22:51Z</time>
      </trkpt>
      <trkpt lat="48.7765" lon="-0.37145">
        <ele>247</ele>
        <time>2016-05-21T10:22:57Z</time>
      </trkpt>
      <trkpt lat="48.77665" lon="-0.3714">
        <ele>248</ele>
        <time>2016-05-21T10:23:04Z</time>
      </trkpt>
      <trkpt lat="48.77695" lon="-0.37115">
        <ele>249</ele>
        <time>2016-05-21T10:23:26Z</time>
      </trkpt>
      <trkpt lat="48.77705" lon="-0.37098">
        <ele>251</ele>
        <time>2016-05-21T10:23:34Z</time>
      </trkpt>
      <trkpt lat="48.77713" lon="-0.3708">
        <ele>251</ele>
        <time>2016-05-21T10:23:39Z</time>
      </trkpt>
      <trkpt lat="48.77725" lon="-0.3707">
        <ele>250</ele>
        <time>2016-05-21T10:23:43Z</time>
      </trkpt>
      <trkpt lat="48.7774" lon="-0.37055">
        <ele>247</ele>
        <time>2016-05-21T10:23:48Z</time>
      </trkpt>
      <trkpt lat="48.77755" lon="-0.37063">
        <ele>246</ele>
        <time>2016-05-21T10:23:51Z</time>
      </trkpt>
      <trkpt lat="48.77773" lon="-0.37068">
        <ele>245</ele>
        <time>2016-05-21T10:23:56Z</time>
      </trkpt>
      <trkpt lat="48.77793" lon="-0.37075">
        <ele>243</ele>
        <time>2016-05-21T10:24:00Z</time>
      </trkpt>
      <trkpt lat="48.77805" lon="-0.37088">
        <ele>242</ele>
        <time>2016-05-21T10:24:03Z</time>
      </trkpt>
      <trkpt lat="48.77818" lon="-0.37078">
        <ele>240</ele>
        <time>2016-05-21T10:24:46Z</time>
      </trkpt>
      <trkpt lat="48.77805" lon="-0.37063">
        <ele>239</ele>
        <time>2016-05-21T10:24:50Z</time>
      </trkpt>
      <trkpt lat="48.77808" lon="-0.3704">
        <ele>243</ele>
        <time>2016-05-21T10:25:00Z</time>
      </trkpt>
      <trkpt lat="48.77813" lon="-0.3702">
        <ele>246</ele>
        <time>2016-05-21T10:25:08Z</time>
      </trkpt>
      <trkpt lat="48.77815" lon="-0.36995">
        <ele>253</ele>
        <time>2016-05-21T10:25:43Z</time>
      </trkpt>
      <trkpt lat="48.77823" lon="-0.36978">
        <ele>253</ele>
        <time>2016-05-21T10:25:52Z</time>
      </trkpt>
      <trkpt lat="48.7783" lon="-0.36958">
        <ele>255</ele>
        <time>2016-05-21T10:26:00Z</time>
      </trkpt>
      <trkpt lat="48.77833" lon="-0.36928">
        <ele>255</ele>
        <time>2016-05-21T10:26:08Z</time>
      </trkpt>
      <trkpt lat="48.7783" lon="-0.36905">
        <ele>255</ele>
        <time>2016-05-21T10:26:15Z</time>
      </trkpt>
      <trkpt lat="48.7783" lon="-0.36883">
        <ele>253</ele>
        <time>2016-05-21T10:26:19Z</time>
      </trkpt>
      <trkpt lat="48.77833" lon="-0.36858">
        <ele>251</ele>
        <time>2016-05-21T10:26:25Z</time>
      </trkpt>
      <trkpt lat="48.77845" lon="-0.36848">
        <ele>251</ele>
        <time>2016-05-21T10:26:33Z</time>
      </trkpt>
      <trkpt lat="48.77858" lon="-0.36858">
        <ele>252</ele>
        <time>2016-05-21T10:26:44Z</time>
      </trkpt>
      <trkpt lat="48.77873" lon="-0.36863">
        <ele>255</ele>
        <time>2016-05-21T10:26:54Z</time>
      </trkpt>
      <trkpt lat="48.77888" lon="-0.36865">
        <ele>257</ele>
        <time>2016-05-21T10:27:00Z</time>
      </trkpt>
      <trkpt lat="48.77903" lon="-0.36868">
        <ele>260</ele>
        <time>2016-05-21T10:27:07Z</time>
      </trkpt>
      <trkpt lat="48.77918" lon="-0.36868">
        <ele>264</ele>
        <time>2016-05-21T10:27:14Z</time>
      </trkpt>
      <trkpt lat="48.7794" lon="-0.3686">
        <ele>270</ele>
        <time>2016-05-21T10:27:26Z</time>
      </trkpt>
      <trkpt lat="48.77955" lon="-0.36858">
        <ele>271</ele>
        <time>2016-05-21T10:27:32Z</time>
      </trkpt>
      <trkpt lat="48.7797" lon="-0.36855">
        <ele>273</ele>
        <time>2016-05-21T10:27:38Z</time>
      </trkpt>
      <trkpt lat="48.78005" lon="-0.36843">
        <ele>278</ele>
        <time>2016-05-21T10:27:55Z</time>
      </trkpt>
      <trkpt lat="48.7802" lon="-0.36838">
        <ele>279</ele>
        <time>2016-05-21T10:28:00Z</time>
      </trkpt>
      <trkpt lat="48.78035" lon="-0.36835">
        <ele>281</ele>
        <time>2016-05-21T10:28:07Z</time>
      </trkpt>
      <trkpt lat="48.7805" lon="-0.36835">
        <ele>283</ele>
        <time>2016-05-21T10:28:12Z</time>
      </trkpt>
      <trkpt lat="48.7807" lon="-0.36838">
        <ele>285</ele>
        <time>2016-05-21T10:28:23Z</time>
      </trkpt>
      <trkpt lat="48.78085" lon="-0.3683">
        <ele>286</ele>
        <time>2016-05-21T10:28:30Z</time>
      </trkpt>
      <trkpt lat="48.781" lon="-0.36825">
        <ele>285</ele>
        <time>2016-05-21T10:28:35Z</time>
      </trkpt>
      <trkpt lat="48.78115" lon="-0.36828">
        <ele>287</ele>
        <time>2016-05-21T10:28:43Z</time>
      </trkpt>
      <trkpt lat="48.7813" lon="-0.36815">
        <ele>286</ele>
        <time>2016-05-21T10:28:49Z</time>
      </trkpt>
      <trkpt lat="48.78145" lon="-0.36805">
        <ele>285</ele>
        <time>2016-05-21T10:28:53Z</time>
      </trkpt>
      <trkpt lat="48.78155" lon="-0.3682">
        <ele>282</ele>
        <time>2016-05-21T10:28:57Z</time>
      </trkpt>
      <trkpt lat="48.7817" lon="-0.36823">
        <ele>282</ele>
        <time>2016-05-21T10:29:08Z</time>
      </trkpt>
      <trkpt lat="48.78188" lon="-0.36813">
        <ele>281</ele>
        <time>2016-05-21T10:29:18Z</time>
      </trkpt>
      <trkpt lat="48.78205" lon="-0.36808">
        <ele>279</ele>
        <time>2016-05-21T10:29:21Z</time>
      </trkpt>
      <trkpt lat="48.7822" lon="-0.36803">
        <ele>278</ele>
        <time>2016-05-21T10:29:24Z</time>
      </trkpt>
      <trkpt lat="48.78238" lon="-0.36795">
        <ele>274</ele>
        <time>2016-05-21T10:29:28Z</time>
      </trkpt>
      <trkpt lat="48.7825" lon="-0.36785">
        <ele>270</ele>
        <time>2016-05-21T10:29:30Z</time>
      </trkpt>
      <trkpt lat="48.78265" lon="-0.36778">
        <ele>267</ele>
        <time>2016-05-21T10:29:34Z</time>
      </trkpt>
      <trkpt lat="48.7828" lon="-0.3677">
        <ele>266</ele>
        <time>2016-05-21T10:29:39Z</time>
      </trkpt>
      <trkpt lat="48.78295" lon="-0.36768">
        <ele>265</ele>
        <time>2016-05-21T10:29:43Z</time>
      </trkpt>
      <trkpt lat="48.7831" lon="-0.36763">
        <ele>265</ele>
        <time>2016-05-21T10:29:48Z</time>
      </trkpt>
      <trkpt lat="48.78315" lon="-0.36785">
        <ele>260</ele>
        <time>2016-05-21T10:30:08Z</time>
      </trkpt>
      <trkpt lat="48.7832" lon="-0.3681">
        <ele>258</ele>
        <time>2016-05-21T10:30:13Z</time>
      </trkpt>
      <trkpt lat="48.78323" lon="-0.36833">
        <ele>256</ele>
        <time>2016-05-21T10:30:17Z</time>
      </trkpt>
      <trkpt lat="48.7833" lon="-0.3685">
        <ele>253</ele>
        <time>2016-05-21T10:30:22Z</time>
      </trkpt>
      <trkpt lat="48.7834" lon="-0.36873">
        <ele>254</ele>
        <time>2016-05-21T10:32:00Z</time>
      </trkpt>
      <trkpt lat="48.7834" lon="-0.36895">
        <ele>253</ele>
        <time>2016-05-21T10:32:04Z</time>
      </trkpt>
      <trkpt lat="48.78333" lon="-0.36918">
        <ele>251</ele>
        <time>2016-05-21T10:32:06Z</time>
      </trkpt>
      <trkpt lat="48.78325" lon="-0.36953">
        <ele>249</ele>
        <time>2016-05-21T10:32:09Z</time>
      </trkpt>
      <trkpt lat="48.78325" lon="-0.36983">
        <ele>248</ele>
        <time>2016-05-21T10:32:11Z</time>
      </trkpt>
      <trkpt lat="48.78318" lon="-0.3702">
        <ele>244</ele>
        <time>2016-05-21T10:32:14Z</time>
      </trkpt>
      <trkpt lat="48.7831" lon="-0.37053">
        <ele>242</ele>
        <time>2016-05-21T10:32:17Z</time>
      </trkpt>
      <trkpt lat="48.78303" lon="-0.37075">
        <ele>241</ele>
        <time>2016-05-21T10:32:20Z</time>
      </trkpt>
      <trkpt lat="48.78293" lon="-0.3711">
        <ele>239</ele>
        <time>2016-05-21T10:32:22Z</time>
      </trkpt>
      <trkpt lat="48.78285" lon="-0.37143">
        <ele>237</ele>
        <time>2016-05-21T10:32:25Z</time>
      </trkpt>
      <trkpt lat="48.78285" lon="-0.37188">
        <ele>236</ele>
        <time>2016-05-21T10:32:27Z</time>
      </trkpt>
      <trkpt lat="48.78288" lon="-0.3723">
        <ele>234</ele>
        <time>2016-05-21T10:32:31Z</time>
      </trkpt>
      <trkpt lat="48.78293" lon="-0.37315">
        <ele>229</ele>
        <time>2016-05-21T10:32:36Z</time>
      </trkpt>
      <trkpt lat="48.78298" lon="-0.37343">
        <ele>227</ele>
        <time>2016-05-21T10:32:38Z</time>
      </trkpt>
      <trkpt lat="48.78303" lon="-0.37373">
        <ele>225</ele>
        <time>2016-05-21T10:32:40Z</time>
      </trkpt>
      <trkpt lat="48.7831" lon="-0.37403">
        <ele>223</ele>
        <time>2016-05-21T10:32:43Z</time>
      </trkpt>
      <trkpt lat="48.7832" lon="-0.37448">
        <ele>222</ele>
        <time>2016-05-21T10:32:47Z</time>
      </trkpt>
      <trkpt lat="48.78313" lon="-0.3747">
        <ele>221</ele>
        <time>2016-05-21T10:32:53Z</time>
      </trkpt>
      <trkpt lat="48.78328" lon="-0.37478">
        <ele>220</ele>
        <time>2016-05-21T10:33:00Z</time>
      </trkpt>
      <trkpt lat="48.78343" lon="-0.3747">
        <ele>219</ele>
        <time>2016-05-21T10:33:04Z</time>
      </trkpt>
      <trkpt lat="48.78358" lon="-0.37463">
        <ele>219</ele>
        <time>2016-05-21T10:33:07Z</time>
      </trkpt>
      <trkpt lat="48.78373" lon="-0.37455">
        <ele>219</ele>
        <time>2016-05-21T10:33:11Z</time>
      </trkpt>
      <trkpt lat="48.78385" lon="-0.37445">
        <ele>219</ele>
        <time>2016-05-21T10:33:15Z</time>
      </trkpt>
      <trkpt lat="48.78403" lon="-0.37438">
        <ele>219</ele>
        <time>2016-05-21T10:33:20Z</time>
      </trkpt>
      <trkpt lat="48.7842" lon="-0.3743">
        <ele>218</ele>
        <time>2016-05-21T10:33:26Z</time>
      </trkpt>
      <trkpt lat="48.78435" lon="-0.3742">
        <ele>218</ele>
        <time>2016-05-21T10:33:32Z</time>
      </trkpt>
      <trkpt lat="48.7845" lon="-0.3741">
        <ele>217</ele>
        <time>2016-05-21T10:33:38Z</time>
      </trkpt>
      <trkpt lat="48.78465" lon="-0.37403">
        <ele>218</ele>
        <time>2016-05-21T10:33:44Z</time>
      </trkpt>
      <trkpt lat="48.7848" lon="-0.37393">
        <ele>217</ele>
        <time>2016-05-21T10:33:48Z</time>
      </trkpt>
      <trkpt lat="48.78495" lon="-0.3738">
        <ele>218</ele>
        <time>2016-05-21T10:33:52Z</time>
      </trkpt>
      <trkpt lat="48.78513" lon="-0.3737">
        <ele>219</ele>
        <time>2016-05-21T10:33:57Z</time>
      </trkpt>
      <trkpt lat="48.78533" lon="-0.37358">
        <ele>218</ele>
        <time>2016-05-21T10:34:03Z</time>
      </trkpt>
      <trkpt lat="48.7855" lon="-0.37345">
        <ele>218</ele>
        <time>2016-05-21T10:34:08Z</time>
      </trkpt>
      <trkpt lat="48.78568" lon="-0.37338">
        <ele>217</ele>
        <time>2016-05-21T10:34:12Z</time>
      </trkpt>
      <trkpt lat="48.78585" lon="-0.37333">
        <ele>216</ele>
        <time>2016-05-21T10:34:15Z</time>
      </trkpt>
      <trkpt lat="48.786" lon="-0.3733">
        <ele>216</ele>
        <time>2016-05-21T10:34:18Z</time>
      </trkpt>
      <trkpt lat="48.78618" lon="-0.37323">
        <ele>216</ele>
        <time>2016-05-21T10:34:23Z</time>
      </trkpt>
      <trkpt lat="48.78633" lon="-0.3731">
        <ele>216</ele>
        <time>2016-05-21T10:34:25Z</time>
      </trkpt>
      <trkpt lat="48.78645" lon="-0.37293">
        <ele>216</ele>
        <time>2016-05-21T10:34:28Z</time>
      </trkpt>
      <trkpt lat="48.78658" lon="-0.37283">
        <ele>215</ele>
        <time>2016-05-21T10:34:32Z</time>
      </trkpt>
      <trkpt lat="48.78673" lon="-0.3728">
        <ele>214</ele>
        <time>2016-05-21T10:34:35Z</time>
      </trkpt>
      <trkpt lat="48.78715" lon="-0.3727">
        <ele>212</ele>
        <time>2016-05-21T10:34:42Z</time>
      </trkpt>
      <trkpt lat="48.78733" lon="-0.37265">
        <ele>212</ele>
        <time>2016-05-21T10:34:46Z</time>
      </trkpt>
      <trkpt lat="48.78755" lon="-0.37258">
        <ele>212</ele>
        <time>2016-05-21T10:34:51Z</time>
      </trkpt>
      <trkpt lat="48.7877" lon="-0.37253">
        <ele>212</ele>
        <time>2016-05-21T10:34:54Z</time>
      </trkpt>
      <trkpt lat="48.788" lon="-0.3724">
        <ele>212</ele>
        <time>2016-05-21T10:35:00Z</time>
      </trkpt>
      <trkpt lat="48.78823" lon="-0.3723">
        <ele>211</ele>
        <time>2016-05-21T10:35:05Z</time>
      </trkpt>
      <trkpt lat="48.78838" lon="-0.37223">
        <ele>212</ele>
        <time>2016-05-21T10:35:08Z</time>
      </trkpt>
      <trkpt lat="48.78853" lon="-0.37215">
        <ele>212</ele>
        <time>2016-05-21T10:35:10Z</time>
      </trkpt>
      <trkpt lat="48.7887" lon="-0.37208">
        <ele>212</ele>
        <time>2016-05-21T10:35:14Z</time>
      </trkpt>
      <trkpt lat="48.78885" lon="-0.37205">
        <ele>212</ele>
        <time>2016-05-21T10:35:19Z</time>
      </trkpt>
      <trkpt lat="48.78903" lon="-0.372">
        <ele>214</ele>
        <time>2016-05-21T10:35:23Z</time>
      </trkpt>
      <trkpt lat="48.78918" lon="-0.37195">
        <ele>212</ele>
        <time>2016-05-21T10:35:26Z</time>
      </trkpt>
      <trkpt lat="48.78935" lon="-0.37195">
        <ele>212</ele>
        <time>2016-05-21T10:35:30Z</time>
      </trkpt>
      <trkpt lat="48.78953" lon="-0.37195">
        <ele>212</ele>
        <time>2016-05-21T10:35:32Z</time>
      </trkpt>
      <trkpt lat="48.7897" lon="-0.37195">
        <ele>212</ele>
        <time>2016-05-21T10:35:37Z</time>
      </trkpt>
      <trkpt lat="48.78988" lon="-0.37188">
        <ele>211</ele>
        <time>2016-05-21T10:35:42Z</time>
      </trkpt>
      <trkpt lat="48.79" lon="-0.37175">
        <ele>211</ele>
        <time>2016-05-21T10:35:45Z</time>
      </trkpt>
      <trkpt lat="48.79015" lon="-0.37163">
        <ele>210</ele>
        <time>2016-05-21T10:35:49Z</time>
      </trkpt>
      <trkpt lat="48.79023" lon="-0.37145">
        <ele>208</ele>
        <time>2016-05-21T10:36:01Z</time>
      </trkpt>
      <trkpt lat="48.79038" lon="-0.3714">
        <ele>204</ele>
        <time>2016-05-21T10:42:59Z</time>
      </trkpt>
      <trkpt lat="48.79055" lon="-0.3714">
        <ele>203</ele>
        <time>2016-05-21T10:43:02Z</time>
      </trkpt>
      <trkpt lat="48.79073" lon="-0.3714">
        <ele>202</ele>
        <time>2016-05-21T10:43:05Z</time>
      </trkpt>
      <trkpt lat="48.79095" lon="-0.3714">
        <ele>201</ele>
        <time>2016-05-21T10:43:10Z</time>
      </trkpt>
      <trkpt lat="48.7911" lon="-0.37133">
        <ele>200</ele>
        <time>2016-05-21T10:43:15Z</time>
      </trkpt>
      <trkpt lat="48.79125" lon="-0.37138">
        <ele>200</ele>
        <time>2016-05-21T10:43:21Z</time>
      </trkpt>
      <trkpt lat="48.79138" lon="-0.37155">
        <ele>199</ele>
        <time>2016-05-21T10:43:26Z</time>
      </trkpt>
      <trkpt lat="48.79148" lon="-0.3717">
        <ele>198</ele>
        <time>2016-05-21T10:43:30Z</time>
      </trkpt>
      <trkpt lat="48.7917" lon="-0.37205">
        <ele>197</ele>
        <time>2016-05-21T10:43:36Z</time>
      </trkpt>
      <trkpt lat="48.79188" lon="-0.3723">
        <ele>196</ele>
        <time>2016-05-21T10:43:41Z</time>
      </trkpt>
      <trkpt lat="48.792" lon="-0.37243">
        <ele>196</ele>
        <time>2016-05-21T10:43:44Z</time>
      </trkpt>
      <trkpt lat="48.7921" lon="-0.37258">
        <ele>195</ele>
        <time>2016-05-21T10:43:48Z</time>
      </trkpt>
      <trkpt lat="48.79225" lon="-0.37283">
        <ele>193</ele>
        <time>2016-05-21T10:43:52Z</time>
      </trkpt>
      <trkpt lat="48.79235" lon="-0.37308">
        <ele>193</ele>
        <time>2016-05-21T10:43:54Z</time>
      </trkpt>
      <trkpt lat="48.7924" lon="-0.37335">
        <ele>192</ele>
        <time>2016-05-21T10:43:58Z</time>
      </trkpt>
      <trkpt lat="48.7924" lon="-0.37358">
        <ele>193</ele>
        <time>2016-05-21T10:44:01Z</time>
      </trkpt>
      <trkpt lat="48.79243" lon="-0.3738">
        <ele>192</ele>
        <time>2016-05-21T10:44:04Z</time>
      </trkpt>
      <trkpt lat="48.7924" lon="-0.37405">
        <ele>194</ele>
        <time>2016-05-21T10:44:08Z</time>
      </trkpt>
      <trkpt lat="48.7924" lon="-0.37428">
        <ele>194</ele>
        <time>2016-05-21T10:44:11Z</time>
      </trkpt>
      <trkpt lat="48.7924" lon="-0.37453">
        <ele>195</ele>
        <time>2016-05-21T10:44:17Z</time>
      </trkpt>
      <trkpt lat="48.79238" lon="-0.37475">
        <ele>197</ele>
        <time>2016-05-21T10:44:23Z</time>
      </trkpt>
      <trkpt lat="48.79238" lon="-0.37498">
        <ele>199</ele>
        <time>2016-05-21T10:44:29Z</time>
      </trkpt>
      <trkpt lat="48.79243" lon="-0.3752">
        <ele>200</ele>
        <time>2016-05-21T10:44:35Z</time>
      </trkpt>
      <trkpt lat="48.79255" lon="-0.37533">
        <ele>203</ele>
        <time>2016-05-21T10:44:41Z</time>
      </trkpt>
      <trkpt lat="48.7927" lon="-0.37543">
        <ele>205</ele>
        <time>2016-05-21T10:44:45Z</time>
      </trkpt>
      <trkpt lat="48.79283" lon="-0.37555">
        <ele>205</ele>
        <time>2016-05-21T10:44:48Z</time>
      </trkpt>
      <trkpt lat="48.79293" lon="-0.3757">
        <ele>207</ele>
        <time>2016-05-21T10:44:53Z</time>
      </trkpt>
      <trkpt lat="48.79303" lon="-0.37585">
        <ele>205</ele>
        <time>2016-05-21T10:44:57Z</time>
      </trkpt>
      <trkpt lat="48.79313" lon="-0.376">
        <ele>205</ele>
        <time>2016-05-21T10:45:00Z</time>
      </trkpt>
      <trkpt lat="48.7932" lon="-0.3762">
        <ele>205</ele>
        <time>2016-05-21T10:45:04Z</time>
      </trkpt>
      <trkpt lat="48.79333" lon="-0.37633">
        <ele>206</ele>
        <time>2016-05-21T10:45:09Z</time>
      </trkpt>
      <trkpt lat="48.79348" lon="-0.37643">
        <ele>210</ele>
        <time>2016-05-21T10:45:14Z</time>
      </trkpt>
      <trkpt lat="48.79365" lon="-0.37648">
        <ele>210</ele>
        <time>2016-05-21T10:45:20Z</time>
      </trkpt>
      <trkpt lat="48.79385" lon="-0.37653">
        <ele>208</ele>
        <time>2016-05-21T10:45:24Z</time>
      </trkpt>
      <trkpt lat="48.794" lon="-0.37658">
        <ele>208</ele>
        <time>2016-05-21T10:45:27Z</time>
      </trkpt>
      <trkpt lat="48.7941" lon="-0.37678">
        <ele>206</ele>
        <time>2016-05-21T10:45:33Z</time>
      </trkpt>
      <trkpt lat="48.79415" lon="-0.377">
        <ele>206</ele>
        <time>2016-05-21T10:45:37Z</time>
      </trkpt>
      <trkpt lat="48.7942" lon="-0.37725">
        <ele>207</ele>
        <time>2016-05-21T10:45:43Z</time>
      </trkpt>
      <trkpt lat="48.7942" lon="-0.37748">
        <ele>208</ele>
        <time>2016-05-21T10:45:48Z</time>
      </trkpt>
      <trkpt lat="48.7943" lon="-0.3779">
        <ele>214</ele>
        <time>2016-05-21T10:46:08Z</time>
      </trkpt>
      <trkpt lat="48.79445" lon="-0.37785">
        <ele>213</ele>
        <time>2016-05-21T10:46:12Z</time>
      </trkpt>
      <trkpt lat="48.7947" lon="-0.37775">
        <ele>211</ele>
        <time>2016-05-21T10:46:17Z</time>
      </trkpt>
      <trkpt lat="48.79488" lon="-0.37773">
        <ele>210</ele>
        <time>2016-05-21T10:46:21Z</time>
      </trkpt>
      <trkpt lat="48.79503" lon="-0.3777">
        <ele>209</ele>
        <time>2016-05-21T10:46:24Z</time>
      </trkpt>
      <trkpt lat="48.7953" lon="-0.37768">
        <ele>208</ele>
        <time>2016-05-21T10:46:29Z</time>
      </trkpt>
      <trkpt lat="48.79545" lon="-0.37765">
        <ele>207</ele>
        <time>2016-05-21T10:46:32Z</time>
      </trkpt>
      <trkpt lat="48.7956" lon="-0.37763">
        <ele>206</ele>
        <time>2016-05-21T10:46:35Z</time>
      </trkpt>
      <trkpt lat="48.7958" lon="-0.37758">
        <ele>205</ele>
        <time>2016-05-21T10:46:40Z</time>
      </trkpt>
      <trkpt lat="48.79598" lon="-0.37748">
        <ele>205</ele>
        <time>2016-05-21T10:46:44Z</time>
      </trkpt>
      <trkpt lat="48.79615" lon="-0.37745">
        <ele>204</ele>
        <time>2016-05-21T10:46:47Z</time>
      </trkpt>
      <trkpt lat="48.7963" lon="-0.3774">
        <ele>203</ele>
        <time>2016-05-21T10:46:50Z</time>
      </trkpt>
      <trkpt lat="48.79645" lon="-0.37738">
        <ele>203</ele>
        <time>2016-05-21T10:46:52Z</time>
      </trkpt>
      <trkpt lat="48.79663" lon="-0.37738">
        <ele>203</ele>
        <time>2016-05-21T10:46:59Z</time>
      </trkpt>
      <trkpt lat="48.79678" lon="-0.37743">
        <ele>203</ele>
        <time>2016-05-21T10:47:03Z</time>
      </trkpt>
      <trkpt lat="48.79695" lon="-0.37748">
        <ele>204</ele>
        <time>2016-05-21T10:47:09Z</time>
      </trkpt>
      <trkpt lat="48.797" lon="-0.3777">
        <ele>203</ele>
        <time>2016-05-21T10:47:15Z</time>
      </trkpt>
      <trkpt lat="48.79703" lon="-0.37795">
        <ele>202</ele>
        <time>2016-05-21T10:47:20Z</time>
      </trkpt>
      <trkpt lat="48.79715" lon="-0.37805">
        <ele>202</ele>
        <time>2016-05-21T10:47:25Z</time>
      </trkpt>
      <trkpt lat="48.7973" lon="-0.37803">
        <ele>201</ele>
        <time>2016-05-21T10:47:29Z</time>
      </trkpt>
      <trkpt lat="48.79738" lon="-0.37823">
        <ele>200</ele>
        <time>2016-05-21T10:47:34Z</time>
      </trkpt>
      <trkpt lat="48.79738" lon="-0.37845">
        <ele>199</ele>
        <time>2016-05-21T10:47:39Z</time>
      </trkpt>
      <trkpt lat="48.79743" lon="-0.37868">
        <ele>199</ele>
        <time>2016-05-21T10:47:42Z</time>
      </trkpt>
      <trkpt lat="48.79748" lon="-0.37888">
        <ele>198</ele>
        <time>2016-05-21T10:47:47Z</time>
      </trkpt>
      <trkpt lat="48.79753" lon="-0.3791">
        <ele>197</ele>
        <time>2016-05-21T10:47:53Z</time>
      </trkpt>
      <trkpt lat="48.79755" lon="-0.37933">
        <ele>196</ele>
        <time>2016-05-21T10:47:57Z</time>
      </trkpt>
      <trkpt lat="48.79758" lon="-0.3797">
        <ele>195</ele>
        <time>2016-05-21T10:48:05Z</time>
      </trkpt>
      <trkpt lat="48.79753" lon="-0.3799">
        <ele>194</ele>
        <time>2016-05-21T10:48:08Z</time>
      </trkpt>
      <trkpt lat="48.79745" lon="-0.38025">
        <ele>191</ele>
        <time>2016-05-21T10:48:12Z</time>
      </trkpt>
      <trkpt lat="48.79735" lon="-0.38048">
        <ele>189</ele>
        <time>2016-05-21T10:48:14Z</time>
      </trkpt>
      <trkpt lat="48.79728" lon="-0.38065">
        <ele>187</ele>
        <time>2016-05-21T10:48:16Z</time>
      </trkpt>
      <trkpt lat="48.79715" lon="-0.38095">
        <ele>186</ele>
        <time>2016-05-21T10:48:21Z</time>
      </trkpt>
      <trkpt lat="48.79695" lon="-0.38133">
        <ele>188</ele>
        <time>2016-05-21T10:48:39Z</time>
      </trkpt>
      <trkpt lat="48.7968" lon="-0.3815">
        <ele>187</ele>
        <time>2016-05-21T10:48:44Z</time>
      </trkpt>
      <trkpt lat="48.7967" lon="-0.38165">
        <ele>186</ele>
        <time>2016-05-21T10:48:46Z</time>
      </trkpt>
      <trkpt lat="48.79653" lon="-0.38175">
        <ele>185</ele>
        <time>2016-05-21T10:48:50Z</time>
      </trkpt>
      <trkpt lat="48.7964" lon="-0.3819">
        <ele>185</ele>
        <time>2016-05-21T10:48:53Z</time>
      </trkpt>
      <trkpt lat="48.7963" lon="-0.38213">
        <ele>185</ele>
        <time>2016-05-21T10:48:56Z</time>
      </trkpt>
      <trkpt lat="48.79618" lon="-0.3824">
        <ele>184</ele>
        <time>2016-05-21T10:48:58Z</time>
      </trkpt>
      <trkpt lat="48.79605" lon="-0.38253">
        <ele>182</ele>
        <time>2016-05-21T10:49:00Z</time>
      </trkpt>
      <trkpt lat="48.79593" lon="-0.38275">
        <ele>180</ele>
        <time>2016-05-21T10:49:04Z</time>
      </trkpt>
      <trkpt lat="48.79588" lon="-0.38298">
        <ele>178</ele>
        <time>2016-05-21T10:49:07Z</time>
      </trkpt>
      <trkpt lat="48.7958" lon="-0.3832">
        <ele>177</ele>
        <time>2016-05-21T10:49:10Z</time>
      </trkpt>
      <trkpt lat="48.7958" lon="-0.38348">
        <ele>175</ele>
        <time>2016-05-21T10:49:15Z</time>
      </trkpt>
      <trkpt lat="48.79585" lon="-0.38373">
        <ele>174</ele>
        <time>2016-05-21T10:49:18Z</time>
      </trkpt>
      <trkpt lat="48.79588" lon="-0.38395">
        <ele>172</ele>
        <time>2016-05-21T10:49:22Z</time>
      </trkpt>
      <trkpt lat="48.7958" lon="-0.38418">
        <ele>171</ele>
        <time>2016-05-21T10:49:24Z</time>
      </trkpt>
      <trkpt lat="48.79578" lon="-0.38443">
        <ele>171</ele>
        <time>2016-05-21T10:49:28Z</time>
      </trkpt>
      <trkpt lat="48.79583" lon="-0.3847">
        <ele>168</ele>
        <time>2016-05-21T10:49:31Z</time>
      </trkpt>
      <trkpt lat="48.7958" lon="-0.38503">
        <ele>166</ele>
        <time>2016-05-21T10:49:34Z</time>
      </trkpt>
      <trkpt lat="48.79583" lon="-0.38525">
        <ele>162</ele>
        <time>2016-05-21T10:49:37Z</time>
      </trkpt>
      <trkpt lat="48.79588" lon="-0.3855">
        <ele>156</ele>
        <time>2016-05-21T10:49:56Z</time>
      </trkpt>
      <trkpt lat="48.7959" lon="-0.38575">
        <ele>153</ele>
        <time>2016-05-21T10:50:01Z</time>
      </trkpt>
      <trkpt lat="48.79593" lon="-0.38608">
        <ele>152</ele>
        <time>2016-05-21T10:50:06Z</time>
      </trkpt>
      <trkpt lat="48.79598" lon="-0.3863">
        <ele>150</ele>
        <time>2016-05-21T10:50:11Z</time>
      </trkpt>
      <trkpt lat="48.796" lon="-0.38655">
        <ele>149</ele>
        <time>2016-05-21T10:50:17Z</time>
      </trkpt>
      <trkpt lat="48.79603" lon="-0.38678">
        <ele>149</ele>
        <time>2016-05-21T10:50:23Z</time>
      </trkpt>
      <trkpt lat="48.79605" lon="-0.387">
        <ele>148</ele>
        <time>2016-05-21T10:50:30Z</time>
      </trkpt>
      <trkpt lat="48.79605" lon="-0.38723">
        <ele>148</ele>
        <time>2016-05-21T10:50:34Z</time>
      </trkpt>
      <trkpt lat="48.79605" lon="-0.38748">
        <ele>147</ele>
        <time>2016-05-21T10:50:39Z</time>
      </trkpt>
      <trkpt lat="48.79598" lon="-0.38765">
        <ele>147</ele>
        <time>2016-05-21T10:50:43Z</time>
      </trkpt>
      <trkpt lat="48.79588" lon="-0.3879">
        <ele>147</ele>
        <time>2016-05-21T10:50:47Z</time>
      </trkpt>
      <trkpt lat="48.79578" lon="-0.38808">
        <ele>147</ele>
        <time>2016-05-21T10:50:51Z</time>
      </trkpt>
      <trkpt lat="48.7956" lon="-0.38838">
        <ele>145</ele>
        <time>2016-05-21T10:50:56Z</time>
      </trkpt>
      <trkpt lat="48.79545" lon="-0.38845">
        <ele>143</ele>
        <time>2016-05-21T10:51:01Z</time>
      </trkpt>
      <trkpt lat="48.79553" lon="-0.38873">
        <ele>141</ele>
        <time>2016-05-21T10:51:18Z</time>
      </trkpt>
      <trkpt lat="48.79565" lon="-0.38888">
        <ele>140</ele>
        <time>2016-05-21T10:51:21Z</time>
      </trkpt>
      <trkpt lat="48.79578" lon="-0.38898">
        <ele>138</ele>
        <time>2016-05-21T10:51:23Z</time>
      </trkpt>
      <trkpt lat="48.7961" lon="-0.38923">
        <ele>134</ele>
        <time>2016-05-21T10:51:31Z</time>
      </trkpt>
      <trkpt lat="48.79625" lon="-0.3893">
        <ele>131</ele>
        <time>2016-05-21T10:51:33Z</time>
      </trkpt>
      <trkpt lat="48.79643" lon="-0.38943">
        <ele>130</ele>
        <time>2016-05-21T10:51:38Z</time>
      </trkpt>
      <trkpt lat="48.7966" lon="-0.38948">
        <ele>128</ele>
        <time>2016-05-21T10:51:40Z</time>
      </trkpt>
      <trkpt lat="48.79678" lon="-0.38938">
        <ele>129</ele>
        <time>2016-05-21T10:51:44Z</time>
      </trkpt>
      <trkpt lat="48.7969" lon="-0.38918">
        <ele>129</ele>
        <time>2016-05-21T10:51:46Z</time>
      </trkpt>
      <trkpt lat="48.79708" lon="-0.38898">
        <ele>130</ele>
        <time>2016-05-21T10:51:50Z</time>
      </trkpt>
      <trkpt lat="48.7972" lon="-0.3888">
        <ele>132</ele>
        <time>2016-05-21T10:51:53Z</time>
      </trkpt>
      <trkpt lat="48.79718" lon="-0.38848">
        <ele>132</ele>
        <time>2016-05-21T10:52:10Z</time>
      </trkpt>
      <trkpt lat="48.79713" lon="-0.38828">
        <ele>134</ele>
        <time>2016-05-21T10:52:21Z</time>
      </trkpt>
      <trkpt lat="48.79708" lon="-0.38805">
        <ele>134</ele>
        <time>2016-05-21T10:52:29Z</time>
      </trkpt>
      <trkpt lat="48.797" lon="-0.38788">
        <ele>135</ele>
        <time>2016-05-21T10:52:34Z</time>
      </trkpt>
      <trkpt lat="48.79695" lon="-0.38768">
        <ele>136</ele>
        <time>2016-05-21T10:52:40Z</time>
      </trkpt>
      <trkpt lat="48.79688" lon="-0.38748">
        <ele>137</ele>
        <time>2016-05-21T10:52:46Z</time>
      </trkpt>
      <trkpt lat="48.79685" lon="-0.38725">
        <ele>138</ele>
        <time>2016-05-21T10:52:53Z</time>
      </trkpt>
      <trkpt lat="48.79688" lon="-0.38703">
        <ele>140</ele>
        <time>2016-05-21T10:53:01Z</time>
      </trkpt>
      <trkpt lat="48.79693" lon="-0.38675">
        <ele>139</ele>
        <time>2016-05-21T10:53:09Z</time>
      </trkpt>
      <trkpt lat="48.797" lon="-0.38655">
        <ele>139</ele>
        <time>2016-05-21T10:53:16Z</time>
      </trkpt>
      <trkpt lat="48.79708" lon="-0.38638">
        <ele>138</ele>
        <time>2016-05-21T10:53:22Z</time>
      </trkpt>
      <trkpt lat="48.79718" lon="-0.3862">
        <ele>140</ele>
        <time>2016-05-21T10:53:29Z</time>
      </trkpt>
      <trkpt lat="48.79725" lon="-0.38603">
        <ele>140</ele>
        <time>2016-05-21T10:53:37Z</time>
      </trkpt>
      <trkpt lat="48.79735" lon="-0.38588">
        <ele>141</ele>
        <time>2016-05-21T10:53:45Z</time>
      </trkpt>
      <trkpt lat="48.79745" lon="-0.38573">
        <ele>141</ele>
        <time>2016-05-21T10:53:52Z</time>
      </trkpt>
      <trkpt lat="48.7976" lon="-0.38553">
        <ele>142</ele>
        <time>2016-05-21T10:54:03Z</time>
      </trkpt>
      <trkpt lat="48.79775" lon="-0.38505">
        <ele>149</ele>
        <time>2016-05-21T10:55:00Z</time>
      </trkpt>
      <trkpt lat="48.79788" lon="-0.3848">
        <ele>150</ele>
        <time>2016-05-21T10:55:23Z</time>
      </trkpt>
      <trkpt lat="48.79795" lon="-0.3846">
        <ele>150</ele>
        <time>2016-05-21T10:55:32Z</time>
      </trkpt>
      <trkpt lat="48.79803" lon="-0.38443">
        <ele>151</ele>
        <time>2016-05-21T10:55:40Z</time>
      </trkpt>
      <trkpt lat="48.79815" lon="-0.38428">
        <ele>151</ele>
        <time>2016-05-21T10:55:48Z</time>
      </trkpt>
      <trkpt lat="48.7983" lon="-0.38405">
        <ele>152</ele>
        <time>2016-05-21T10:55:56Z</time>
      </trkpt>
      <trkpt lat="48.79845" lon="-0.38383">
        <ele>154</ele>
        <time>2016-05-21T10:56:04Z</time>
      </trkpt>
      <trkpt lat="48.79855" lon="-0.38368">
        <ele>153</ele>
        <time>2016-05-21T10:56:09Z</time>
      </trkpt>
      <trkpt lat="48.79865" lon="-0.38348">
        <ele>154</ele>
        <time>2016-05-21T10:56:16Z</time>
      </trkpt>
      <trkpt lat="48.79873" lon="-0.3833">
        <ele>154</ele>
        <time>2016-05-21T10:56:21Z</time>
      </trkpt>
      <trkpt lat="48.79883" lon="-0.38315">
        <ele>154</ele>
        <time>2016-05-21T10:56:25Z</time>
      </trkpt>
      <trkpt lat="48.79893" lon="-0.38298">
        <ele>154</ele>
        <time>2016-05-21T10:56:28Z</time>
      </trkpt>
      <trkpt lat="48.79908" lon="-0.38283">
        <ele>155</ele>
        <time>2016-05-21T10:56:34Z</time>
      </trkpt>
      <trkpt lat="48.7992" lon="-0.38265">
        <ele>156</ele>
        <time>2016-05-21T10:56:40Z</time>
      </trkpt>
      <trkpt lat="48.79935" lon="-0.3825">
        <ele>158</ele>
        <time>2016-05-21T10:56:46Z</time>
      </trkpt>
      <trkpt lat="48.79948" lon="-0.38238">
        <ele>159</ele>
        <time>2016-05-21T10:56:52Z</time>
      </trkpt>
      <trkpt lat="48.7996" lon="-0.38228">
        <ele>160</ele>
        <time>2016-05-21T10:56:56Z</time>
      </trkpt>
      <trkpt lat="48.79973" lon="-0.38218">
        <ele>161</ele>
        <time>2016-05-21T10:57:00Z</time>
      </trkpt>
      <trkpt lat="48.7999" lon="-0.38205">
        <ele>162</ele>
        <time>2016-05-21T10:57:06Z</time>
      </trkpt>
      <trkpt lat="48.80015" lon="-0.38183">
        <ele>167</ele>
        <time>2016-05-21T10:57:53Z</time>
      </trkpt>
      <trkpt lat="48.80025" lon="-0.38143">
        <ele>169</ele>
        <time>2016-05-21T10:58:46Z</time>
      </trkpt>
      <trkpt lat="48.80038" lon="-0.38133">
        <ele>166</ele>
        <time>2016-05-21T10:58:55Z</time>
      </trkpt>
      <trkpt lat="48.80068" lon="-0.38103">
        <ele>163</ele>
        <time>2016-05-21T10:59:37Z</time>
      </trkpt>
      <trkpt lat="48.80095" lon="-0.38073">
        <ele>161</ele>
        <time>2016-05-21T11:00:14Z</time>
      </trkpt>
      <trkpt lat="48.8011" lon="-0.3806">
        <ele>162</ele>
        <time>2016-05-21T11:00:27Z</time>
      </trkpt>
      <trkpt lat="48.80123" lon="-0.3805">
        <ele>162</ele>
        <time>2016-05-21T11:00:34Z</time>
      </trkpt>
      <trkpt lat="48.80135" lon="-0.38038">
        <ele>163</ele>
        <time>2016-05-21T11:00:43Z</time>
      </trkpt>
      <trkpt lat="48.80145" lon="-0.38023">
        <ele>162</ele>
        <time>2016-05-21T11:00:49Z</time>
      </trkpt>
      <trkpt lat="48.80155" lon="-0.38008">
        <ele>161</ele>
        <time>2016-05-21T11:00:56Z</time>
      </trkpt>
      <trkpt lat="48.80165" lon="-0.37993">
        <ele>161</ele>
        <time>2016-05-21T11:01:01Z</time>
      </trkpt>
      <trkpt lat="48.80178" lon="-0.3798">
        <ele>163</ele>
        <time>2016-05-21T11:01:05Z</time>
      </trkpt>
      <trkpt lat="48.80188" lon="-0.37965">
        <ele>162</ele>
        <time>2016-05-21T11:01:09Z</time>
      </trkpt>
      <trkpt lat="48.802" lon="-0.3795">
        <ele>163</ele>
        <time>2016-05-21T11:01:14Z</time>
      </trkpt>
      <trkpt lat="48.8021" lon="-0.37935">
        <ele>164</ele>
        <time>2016-05-21T11:01:18Z</time>
      </trkpt>
      <trkpt lat="48.8022" lon="-0.37915">
        <ele>163</ele>
        <time>2016-05-21T11:01:22Z</time>
      </trkpt>
      <trkpt lat="48.8023" lon="-0.37895">
        <ele>165</ele>
        <time>2016-05-21T11:01:27Z</time>
      </trkpt>
      <trkpt lat="48.8024" lon="-0.3788">
        <ele>165</ele>
        <time>2016-05-21T11:01:35Z</time>
      </trkpt>
      <trkpt lat="48.80248" lon="-0.3786">
        <ele>166</ele>
        <time>2016-05-21T11:01:41Z</time>
      </trkpt>
      <trkpt lat="48.80248" lon="-0.37838">
        <ele>166</ele>
        <time>2016-05-21T11:01:45Z</time>
      </trkpt>
      <trkpt lat="48.8025" lon="-0.37815">
        <ele>165</ele>
        <time>2016-05-21T11:01:51Z</time>
      </trkpt>
      <trkpt lat="48.80255" lon="-0.37795">
        <ele>166</ele>
        <time>2016-05-21T11:01:56Z</time>
      </trkpt>
      <trkpt lat="48.8026" lon="-0.37775">
        <ele>167</ele>
        <time>2016-05-21T11:02:02Z</time>
      </trkpt>
      <trkpt lat="48.80268" lon="-0.37758">
        <ele>168</ele>
        <time>2016-05-21T11:02:08Z</time>
      </trkpt>
      <trkpt lat="48.80275" lon="-0.3774">
        <ele>170</ele>
        <time>2016-05-21T11:02:13Z</time>
      </trkpt>
      <trkpt lat="48.80285" lon="-0.37718">
        <ele>172</ele>
        <time>2016-05-21T11:02:20Z</time>
      </trkpt>
      <trkpt lat="48.80295" lon="-0.37703">
        <ele>173</ele>
        <time>2016-05-21T11:02:24Z</time>
      </trkpt>
      <trkpt lat="48.80305" lon="-0.37685">
        <ele>174</ele>
        <time>2016-05-21T11:02:30Z</time>
      </trkpt>
      <trkpt lat="48.80318" lon="-0.3767">
        <ele>176</ele>
        <time>2016-05-21T11:02:36Z</time>
      </trkpt>
      <trkpt lat="48.80333" lon="-0.3766">
        <ele>178</ele>
        <time>2016-05-21T11:02:41Z</time>
      </trkpt>
      <trkpt lat="48.80345" lon="-0.3765">
        <ele>179</ele>
        <time>2016-05-21T11:02:46Z</time>
      </trkpt>
      <trkpt lat="48.80358" lon="-0.37638">
        <ele>181</ele>
        <time>2016-05-21T11:02:50Z</time>
      </trkpt>
      <trkpt lat="48.8037" lon="-0.3762">
        <ele>182</ele>
        <time>2016-05-21T11:02:55Z</time>
      </trkpt>
      <trkpt lat="48.80375" lon="-0.37598">
        <ele>182</ele>
        <time>2016-05-21T11:02:59Z</time>
      </trkpt>
      <trkpt lat="48.80375" lon="-0.37575">
        <ele>183</ele>
        <time>2016-05-21T11:03:03Z</time>
      </trkpt>
      <trkpt lat="48.80375" lon="-0.37553">
        <ele>183</ele>
        <time>2016-05-21T11:03:08Z</time>
      </trkpt>
      <trkpt lat="48.8038" lon="-0.3753">
        <ele>183</ele>
        <time>2016-05-21T11:03:12Z</time>
      </trkpt>
      <trkpt lat="48.8039" lon="-0.37493">
        <ele>184</ele>
        <time>2016-05-21T11:03:19Z</time>
      </trkpt>
      <trkpt lat="48.80393" lon="-0.3747">
        <ele>184</ele>
        <time>2016-05-21T11:03:22Z</time>
      </trkpt>
      <trkpt lat="48.80398" lon="-0.3745">
        <ele>184</ele>
        <time>2016-05-21T11:03:27Z</time>
      </trkpt>
      <trkpt lat="48.804" lon="-0.37425">
        <ele>184</ele>
        <time>2016-05-21T11:03:30Z</time>
      </trkpt>
      <trkpt lat="48.80405" lon="-0.37403">
        <ele>185</ele>
        <time>2016-05-21T11:03:35Z</time>
      </trkpt>
      <trkpt lat="48.80398" lon="-0.37383">
        <ele>185</ele>
        <time>2016-05-21T11:03:38Z</time>
      </trkpt>
      <trkpt lat="48.80388" lon="-0.37368">
        <ele>185</ele>
        <time>2016-05-21T11:03:42Z</time>
      </trkpt>
      <trkpt lat="48.80378" lon="-0.37353">
        <ele>185</ele>
        <time>2016-05-21T11:03:45Z</time>
      </trkpt>
      <trkpt lat="48.80363" lon="-0.37335">
        <ele>186</ele>
        <time>2016-05-21T11:03:48Z</time>
      </trkpt>
      <trkpt lat="48.8035" lon="-0.37318">
        <ele>186</ele>
        <time>2016-05-21T11:03:53Z</time>
      </trkpt>
      <trkpt lat="48.8034" lon="-0.373">
        <ele>188</ele>
        <time>2016-05-21T11:03:57Z</time>
      </trkpt>
      <trkpt lat="48.80325" lon="-0.37278">
        <ele>191</ele>
        <time>2016-05-21T11:04:04Z</time>
      </trkpt>
      <trkpt lat="48.80315" lon="-0.37258">
        <ele>193</ele>
        <time>2016-05-21T11:04:11Z</time>
      </trkpt>
      <trkpt lat="48.80305" lon="-0.3724">
        <ele>194</ele>
        <time>2016-05-21T11:04:15Z</time>
      </trkpt>
      <trkpt lat="48.80298" lon="-0.37218">
        <ele>195</ele>
        <time>2016-05-21T11:04:21Z</time>
      </trkpt>
      <trkpt lat="48.8029" lon="-0.37193">
        <ele>194</ele>
        <time>2016-05-21T11:04:27Z</time>
      </trkpt>
      <trkpt lat="48.80273" lon="-0.37128">
        <ele>196</ele>
        <time>2016-05-21T11:04:40Z</time>
      </trkpt>
      <trkpt lat="48.80268" lon="-0.37108">
        <ele>197</ele>
        <time>2016-05-21T11:04:44Z</time>
      </trkpt>
      <trkpt lat="48.80265" lon="-0.37085">
        <ele>197</ele>
        <time>2016-05-21T11:04:48Z</time>
      </trkpt>
      <trkpt lat="48.8026" lon="-0.37065">
        <ele>197</ele>
        <time>2016-05-21T11:04:51Z</time>
      </trkpt>
      <trkpt lat="48.80255" lon="-0.3704">
        <ele>197</ele>
        <time>2016-05-21T11:04:56Z</time>
      </trkpt>
      <trkpt lat="48.80253" lon="-0.37015">
        <ele>198</ele>
        <time>2016-05-21T11:05:02Z</time>
      </trkpt>
      <trkpt lat="48.80248" lon="-0.36995">
        <ele>199</ele>
        <time>2016-05-21T11:05:05Z</time>
      </trkpt>
      <trkpt lat="48.80245" lon="-0.3697">
        <ele>201</ele>
        <time>2016-05-21T11:05:11Z</time>
      </trkpt>
      <trkpt lat="48.80243" lon="-0.36948">
        <ele>203</ele>
        <time>2016-05-21T11:05:14Z</time>
      </trkpt>
      <trkpt lat="48.80238" lon="-0.36925">
        <ele>205</ele>
        <time>2016-05-21T11:05:20Z</time>
      </trkpt>
      <trkpt lat="48.8023" lon="-0.36908">
        <ele>208</ele>
        <time>2016-05-21T11:05:26Z</time>
      </trkpt>
      <trkpt lat="48.80238" lon="-0.3689">
        <ele>209</ele>
        <time>2016-05-21T11:05:33Z</time>
      </trkpt>
      <trkpt lat="48.8025" lon="-0.3688">
        <ele>210</ele>
        <time>2016-05-21T11:05:41Z</time>
      </trkpt>
      <trkpt lat="48.80265" lon="-0.36873">
        <ele>212</ele>
        <time>2016-05-21T11:05:47Z</time>
      </trkpt>
      <trkpt lat="48.8028" lon="-0.36863">
        <ele>214</ele>
        <time>2016-05-21T11:05:53Z</time>
      </trkpt>
      <trkpt lat="48.80295" lon="-0.3686">
        <ele>215</ele>
        <time>2016-05-21T11:06:00Z</time>
      </trkpt>
      <trkpt lat="48.8031" lon="-0.36863">
        <ele>217</ele>
        <time>2016-05-21T11:06:08Z</time>
      </trkpt>
      <trkpt lat="48.80345" lon="-0.36848">
        <ele>224</ele>
        <time>2016-05-21T11:06:35Z</time>
      </trkpt>
      <trkpt lat="48.80368" lon="-0.3683">
        <ele>227</ele>
        <time>2016-05-21T11:06:53Z</time>
      </trkpt>
      <trkpt lat="48.80403" lon="-0.36805">
        <ele>234</ele>
        <time>2016-05-21T11:07:14Z</time>
      </trkpt>
      <trkpt lat="48.80433" lon="-0.3679">
        <ele>238</ele>
        <time>2016-05-21T11:07:34Z</time>
      </trkpt>
      <trkpt lat="48.80448" lon="-0.36785">
        <ele>239</ele>
        <time>2016-05-21T11:07:44Z</time>
      </trkpt>
      <trkpt lat="48.80483" lon="-0.36753">
        <ele>237</ele>
        <time>2016-05-21T11:08:08Z</time>
      </trkpt>
      <trkpt lat="48.80493" lon="-0.36738">
        <ele>238</ele>
        <time>2016-05-21T11:08:15Z</time>
      </trkpt>
      <trkpt lat="48.80503" lon="-0.36723">
        <ele>239</ele>
        <time>2016-05-21T11:08:21Z</time>
      </trkpt>
      <trkpt lat="48.80513" lon="-0.36705">
        <ele>239</ele>
        <time>2016-05-21T11:08:26Z</time>
      </trkpt>
      <trkpt lat="48.80523" lon="-0.3669">
        <ele>239</ele>
        <time>2016-05-21T11:08:32Z</time>
      </trkpt>
      <trkpt lat="48.80535" lon="-0.36675">
        <ele>240</ele>
        <time>2016-05-21T11:08:36Z</time>
      </trkpt>
      <trkpt lat="48.80545" lon="-0.3666">
        <ele>240</ele>
        <time>2016-05-21T11:08:41Z</time>
      </trkpt>
      <trkpt lat="48.80558" lon="-0.36648">
        <ele>241</ele>
        <time>2016-05-21T11:08:45Z</time>
      </trkpt>
      <trkpt lat="48.80568" lon="-0.36633">
        <ele>242</ele>
        <time>2016-05-21T11:08:50Z</time>
      </trkpt>
      <trkpt lat="48.80578" lon="-0.36618">
        <ele>242</ele>
        <time>2016-05-21T11:08:55Z</time>
      </trkpt>
      <trkpt lat="48.80588" lon="-0.36603">
        <ele>243</ele>
        <time>2016-05-21T11:09:02Z</time>
      </trkpt>
      <trkpt lat="48.80603" lon="-0.36593">
        <ele>243</ele>
        <time>2016-05-21T11:09:08Z</time>
      </trkpt>
      <trkpt lat="48.8062" lon="-0.36578">
        <ele>242</ele>
        <time>2016-05-21T11:09:16Z</time>
      </trkpt>
      <trkpt lat="48.80635" lon="-0.3657">
        <ele>242</ele>
        <time>2016-05-21T11:09:21Z</time>
      </trkpt>
      <trkpt lat="48.8065" lon="-0.36565">
        <ele>243</ele>
        <time>2016-05-21T11:09:26Z</time>
      </trkpt>
      <trkpt lat="48.80668" lon="-0.3656">
        <ele>245</ele>
        <time>2016-05-21T11:09:30Z</time>
      </trkpt>
      <trkpt lat="48.8068" lon="-0.36548">
        <ele>245</ele>
        <time>2016-05-21T11:09:37Z</time>
      </trkpt>
      <trkpt lat="48.8069" lon="-0.36533">
        <ele>245</ele>
        <time>2016-05-21T11:09:41Z</time>
      </trkpt>
      <trkpt lat="48.80703" lon="-0.36518">
        <ele>245</ele>
        <time>2016-05-21T11:09:45Z</time>
      </trkpt>
      <trkpt lat="48.80715" lon="-0.36503">
        <ele>244</ele>
        <time>2016-05-21T11:09:50Z</time>
      </trkpt>
      <trkpt lat="48.80725" lon="-0.36488">
        <ele>245</ele>
        <time>2016-05-21T11:09:55Z</time>
      </trkpt>
      <trkpt lat="48.80733" lon="-0.3647">
        <ele>246</ele>
        <time>2016-05-21T11:10:01Z</time>
      </trkpt>
      <trkpt lat="48.80753" lon="-0.36435">
        <ele>250</ele>
        <time>2016-05-21T11:10:30Z</time>
      </trkpt>
      <trkpt lat="48.80763" lon="-0.36418">
        <ele>251</ele>
        <time>2016-05-21T11:10:42Z</time>
      </trkpt>
      <trkpt lat="48.8078" lon="-0.36413">
        <ele>250</ele>
        <time>2016-05-21T11:10:49Z</time>
      </trkpt>
      <trkpt lat="48.80795" lon="-0.36423">
        <ele>249</ele>
        <time>2016-05-21T11:10:53Z</time>
      </trkpt>
      <trkpt lat="48.80808" lon="-0.3641">
        <ele>248</ele>
        <time>2016-05-21T11:11:01Z</time>
      </trkpt>
      <trkpt lat="48.80813" lon="-0.3639">
        <ele>249</ele>
        <time>2016-05-21T11:11:12Z</time>
      </trkpt>
      <trkpt lat="48.8082" lon="-0.3637">
        <ele>248</ele>
        <time>2016-05-21T11:11:19Z</time>
      </trkpt>
      <trkpt lat="48.80828" lon="-0.3635">
        <ele>247</ele>
        <time>2016-05-21T11:11:25Z</time>
      </trkpt>
      <trkpt lat="48.80835" lon="-0.3632">
        <ele>254</ele>
        <time>2016-05-21T11:12:07Z</time>
      </trkpt>
      <trkpt lat="48.80843" lon="-0.36303">
        <ele>253</ele>
        <time>2016-05-21T11:12:13Z</time>
      </trkpt>
      <trkpt lat="48.80853" lon="-0.36285">
        <ele>254</ele>
        <time>2016-05-21T11:12:20Z</time>
      </trkpt>
      <trkpt lat="48.80865" lon="-0.36275">
        <ele>253</ele>
        <time>2016-05-21T11:12:27Z</time>
      </trkpt>
      <trkpt lat="48.80878" lon="-0.36263">
        <ele>253</ele>
        <time>2016-05-21T11:12:34Z</time>
      </trkpt>
      <trkpt lat="48.80885" lon="-0.36245">
        <ele>252</ele>
        <time>2016-05-21T11:12:40Z</time>
      </trkpt>
      <trkpt lat="48.80893" lon="-0.36225">
        <ele>253</ele>
        <time>2016-05-21T11:12:45Z</time>
      </trkpt>
      <trkpt lat="48.809" lon="-0.36203">
        <ele>252</ele>
        <time>2016-05-21T11:12:51Z</time>
      </trkpt>
      <trkpt lat="48.80908" lon="-0.3618">
        <ele>252</ele>
        <time>2016-05-21T11:12:56Z</time>
      </trkpt>
      <trkpt lat="48.80915" lon="-0.36155">
        <ele>252</ele>
        <time>2016-05-21T11:13:03Z</time>
      </trkpt>
      <trkpt lat="48.8092" lon="-0.36133">
        <ele>252</ele>
        <time>2016-05-21T11:13:08Z</time>
      </trkpt>
      <trkpt lat="48.80933" lon="-0.36118">
        <ele>252</ele>
        <time>2016-05-21T11:13:13Z</time>
      </trkpt>
      <trkpt lat="48.80943" lon="-0.361">
        <ele>252</ele>
        <time>2016-05-21T11:13:19Z</time>
      </trkpt>
      <trkpt lat="48.80953" lon="-0.36085">
        <ele>252</ele>
        <time>2016-05-21T11:13:23Z</time>
      </trkpt>
      <trkpt lat="48.8096" lon="-0.3606">
        <ele>253</ele>
        <time>2016-05-21T11:13:29Z</time>
      </trkpt>
      <trkpt lat="48.80968" lon="-0.36043">
        <ele>253</ele>
        <time>2016-05-21T11:13:33Z</time>
      </trkpt>
      <trkpt lat="48.80975" lon="-0.36023">
        <ele>252</ele>
        <time>2016-05-21T11:13:38Z</time>
      </trkpt>
      <trkpt lat="48.80985" lon="-0.36">
        <ele>252</ele>
        <time>2016-05-21T11:13:43Z</time>
      </trkpt>
      <trkpt lat="48.8099" lon="-0.35978">
        <ele>253</ele>
        <time>2016-05-21T11:13:48Z</time>
      </trkpt>
      <trkpt lat="48.80993" lon="-0.35945">
        <ele>252</ele>
        <time>2016-05-21T11:13:53Z</time>
      </trkpt>
      <trkpt lat="48.80998" lon="-0.35898">
        <ele>251</ele>
        <time>2016-05-21T11:14:00Z</time>
      </trkpt>
      <trkpt lat="48.81" lon="-0.3587">
        <ele>251</ele>
        <time>2016-05-21T11:14:04Z</time>
      </trkpt>
      <trkpt lat="48.81015" lon="-0.35848">
        <ele>250</ele>
        <time>2016-05-21T11:14:07Z</time>
      </trkpt>
      <trkpt lat="48.81025" lon="-0.3582">
        <ele>250</ele>
        <time>2016-05-21T11:14:10Z</time>
      </trkpt>
      <trkpt lat="48.81045" lon="-0.35783">
        <ele>251</ele>
        <time>2016-05-21T11:14:50Z</time>
      </trkpt>
      <trkpt lat="48.81053" lon="-0.35763">
        <ele>250</ele>
        <time>2016-05-21T11:14:56Z</time>
      </trkpt>
      <trkpt lat="48.81055" lon="-0.3574">
        <ele>249</ele>
        <time>2016-05-21T11:15:01Z</time>
      </trkpt>
      <trkpt lat="48.8106" lon="-0.3572">
        <ele>247</ele>
        <time>2016-05-21T11:15:05Z</time>
      </trkpt>
      <trkpt lat="48.8107" lon="-0.35703">
        <ele>246</ele>
        <time>2016-05-21T11:15:10Z</time>
      </trkpt>
      <trkpt lat="48.81078" lon="-0.35685">
        <ele>246</ele>
        <time>2016-05-21T11:15:14Z</time>
      </trkpt>
      <trkpt lat="48.81083" lon="-0.35665">
        <ele>246</ele>
        <time>2016-05-21T11:15:17Z</time>
      </trkpt>
      <trkpt lat="48.81088" lon="-0.35645">
        <ele>246</ele>
        <time>2016-05-21T11:15:21Z</time>
      </trkpt>
      <trkpt lat="48.81088" lon="-0.3562">
        <ele>244</ele>
        <time>2016-05-21T11:15:25Z</time>
      </trkpt>
      <trkpt lat="48.81093" lon="-0.356">
        <ele>243</ele>
        <time>2016-05-21T11:15:28Z</time>
      </trkpt>
      <trkpt lat="48.811" lon="-0.35578">
        <ele>244</ele>
        <time>2016-05-21T11:15:34Z</time>
      </trkpt>
      <trkpt lat="48.8111" lon="-0.3555">
        <ele>242</ele>
        <time>2016-05-21T11:15:38Z</time>
      </trkpt>
      <trkpt lat="48.81115" lon="-0.35528">
        <ele>242</ele>
        <time>2016-05-21T11:15:42Z</time>
      </trkpt>
      <trkpt lat="48.81115" lon="-0.35505">
        <ele>241</ele>
        <time>2016-05-21T11:15:45Z</time>
      </trkpt>
      <trkpt lat="48.81113" lon="-0.35483">
        <ele>242</ele>
        <time>2016-05-21T11:15:50Z</time>
      </trkpt>
      <trkpt lat="48.81113" lon="-0.35453">
        <ele>240</ele>
        <time>2016-05-21T11:15:54Z</time>
      </trkpt>
      <trkpt lat="48.81113" lon="-0.35428">
        <ele>240</ele>
        <time>2016-05-21T11:15:57Z</time>
      </trkpt>
      <trkpt lat="48.81113" lon="-0.35405">
        <ele>240</ele>
        <time>2016-05-21T11:16:01Z</time>
      </trkpt>
      <trkpt lat="48.81113" lon="-0.35383">
        <ele>239</ele>
        <time>2016-05-21T11:16:05Z</time>
      </trkpt>
      <trkpt lat="48.81113" lon="-0.35345">
        <ele>238</ele>
        <time>2016-05-21T11:17:45Z</time>
      </trkpt>
      <trkpt lat="48.8111" lon="-0.3532">
        <ele>237</ele>
        <time>2016-05-21T11:17:50Z</time>
      </trkpt>
      <trkpt lat="48.81113" lon="-0.35293">
        <ele>236</ele>
        <time>2016-05-21T11:17:55Z</time>
      </trkpt>
      <trkpt lat="48.81105" lon="-0.3527">
        <ele>235</ele>
        <time>2016-05-21T11:18:00Z</time>
      </trkpt>
      <trkpt lat="48.8109" lon="-0.35268">
        <ele>234</ele>
        <time>2016-05-21T11:18:02Z</time>
      </trkpt>
      <trkpt lat="48.81075" lon="-0.35263">
        <ele>233</ele>
        <time>2016-05-21T11:18:06Z</time>
      </trkpt>
      <trkpt lat="48.81048" lon="-0.35255">
        <ele>233</ele>
        <time>2016-05-21T11:18:11Z</time>
      </trkpt>
      <trkpt lat="48.81033" lon="-0.35253">
        <ele>233</ele>
        <time>2016-05-21T11:18:14Z</time>
      </trkpt>
      <trkpt lat="48.81018" lon="-0.35243">
        <ele>232</ele>
        <time>2016-05-21T11:18:17Z</time>
      </trkpt>
      <trkpt lat="48.81005" lon="-0.3523">
        <ele>233</ele>
        <time>2016-05-21T11:18:20Z</time>
      </trkpt>
      <trkpt lat="48.80993" lon="-0.35218">
        <ele>233</ele>
        <time>2016-05-21T11:18:23Z</time>
      </trkpt>
      <trkpt lat="48.80985" lon="-0.352">
        <ele>233</ele>
        <time>2016-05-21T11:18:27Z</time>
      </trkpt>
      <trkpt lat="48.80993" lon="-0.3518">
        <ele>231</ele>
        <time>2016-05-21T11:18:32Z</time>
      </trkpt>
      <trkpt lat="48.80993" lon="-0.35158">
        <ele>231</ele>
        <time>2016-05-21T11:18:35Z</time>
      </trkpt>
      <trkpt lat="48.80988" lon="-0.35133">
        <ele>230</ele>
        <time>2016-05-21T11:18:38Z</time>
      </trkpt>
      <trkpt lat="48.80988" lon="-0.35108">
        <ele>230</ele>
        <time>2016-05-21T11:18:44Z</time>
      </trkpt>
      <trkpt lat="48.80988" lon="-0.35085">
        <ele>230</ele>
        <time>2016-05-21T11:18:47Z</time>
      </trkpt>
      <trkpt lat="48.80985" lon="-0.3506">
        <ele>229</ele>
        <time>2016-05-21T11:18:52Z</time>
      </trkpt>
      <trkpt lat="48.80985" lon="-0.35038">
        <ele>229</ele>
        <time>2016-05-21T11:18:56Z</time>
      </trkpt>
      <trkpt lat="48.80985" lon="-0.35013">
        <ele>228</ele>
        <time>2016-05-21T11:19:00Z</time>
      </trkpt>
      <trkpt lat="48.80988" lon="-0.34988">
        <ele>228</ele>
        <time>2016-05-21T11:19:05Z</time>
      </trkpt>
      <trkpt lat="48.80993" lon="-0.34963">
        <ele>229</ele>
        <time>2016-05-21T11:19:10Z</time>
      </trkpt>
      <trkpt lat="48.80995" lon="-0.3494">
        <ele>229</ele>
        <time>2016-05-21T11:19:16Z</time>
      </trkpt>
      <trkpt lat="48.80995" lon="-0.34918">
        <ele>228</ele>
        <time>2016-05-21T11:19:23Z</time>
      </trkpt>
      <trkpt lat="48.81003" lon="-0.349">
        <ele>228</ele>
        <time>2016-05-21T11:19:26Z</time>
      </trkpt>
      <trkpt lat="48.8101" lon="-0.34878">
        <ele>229</ele>
        <time>2016-05-21T11:19:31Z</time>
      </trkpt>
      <trkpt lat="48.81015" lon="-0.34858">
        <ele>231</ele>
        <time>2016-05-21T11:19:36Z</time>
      </trkpt>
      <trkpt lat="48.80998" lon="-0.34858">
        <ele>231</ele>
        <time>2016-05-21T11:19:40Z</time>
      </trkpt>
      <trkpt lat="48.80945" lon="-0.34855">
        <ele>230</ele>
        <time>2016-05-21T11:19:49Z</time>
      </trkpt>
      <trkpt lat="48.8093" lon="-0.34855">
        <ele>229</ele>
        <time>2016-05-21T11:19:51Z</time>
      </trkpt>
      <trkpt lat="48.8091" lon="-0.3485">
        <ele>228</ele>
        <time>2016-05-21T11:19:54Z</time>
      </trkpt>
      <trkpt lat="48.80893" lon="-0.34843">
        <ele>228</ele>
        <time>2016-05-21T11:19:58Z</time>
      </trkpt>
      <trkpt lat="48.80868" lon="-0.3484">
        <ele>227</ele>
        <time>2016-05-21T11:20:02Z</time>
      </trkpt>
      <trkpt lat="48.8085" lon="-0.34833">
        <ele>225</ele>
        <time>2016-05-21T11:20:05Z</time>
      </trkpt>
      <trkpt lat="48.80848" lon="-0.3481">
        <ele>224</ele>
        <time>2016-05-21T11:20:09Z</time>
      </trkpt>
      <trkpt lat="48.80848" lon="-0.34785">
        <ele>223</ele>
        <time>2016-05-21T11:20:13Z</time>
      </trkpt>
      <trkpt lat="48.80848" lon="-0.3476">
        <ele>222</ele>
        <time>2016-05-21T11:20:16Z</time>
      </trkpt>
      <trkpt lat="48.8085" lon="-0.34738">
        <ele>221</ele>
        <time>2016-05-21T11:20:20Z</time>
      </trkpt>
      <trkpt lat="48.8085" lon="-0.34715">
        <ele>221</ele>
        <time>2016-05-21T11:20:22Z</time>
      </trkpt>
      <trkpt lat="48.8085" lon="-0.34693">
        <ele>221</ele>
        <time>2016-05-21T11:20:26Z</time>
      </trkpt>
      <trkpt lat="48.80843" lon="-0.3467">
        <ele>221</ele>
        <time>2016-05-21T11:20:29Z</time>
      </trkpt>
      <trkpt lat="48.80833" lon="-0.3464">
        <ele>221</ele>
        <time>2016-05-21T11:20:32Z</time>
      </trkpt>
      <trkpt lat="48.80828" lon="-0.34618">
        <ele>221</ele>
        <time>2016-05-21T11:20:37Z</time>
      </trkpt>
      <trkpt lat="48.80833" lon="-0.34598">
        <ele>223</ele>
        <time>2016-05-21T11:21:10Z</time>
      </trkpt>
      <trkpt lat="48.80825" lon="-0.3458">
        <ele>221</ele>
        <time>2016-05-21T11:21:14Z</time>
      </trkpt>
      <trkpt lat="48.8081" lon="-0.34565">
        <ele>221</ele>
        <time>2016-05-21T11:21:18Z</time>
      </trkpt>
      <trkpt lat="48.80795" lon="-0.34558">
        <ele>221</ele>
        <time>2016-05-21T11:21:21Z</time>
      </trkpt>
      <trkpt lat="48.80775" lon="-0.34548">
        <ele>221</ele>
        <time>2016-05-21T11:21:24Z</time>
      </trkpt>
      <trkpt lat="48.80758" lon="-0.34543">
        <ele>221</ele>
        <time>2016-05-21T11:21:27Z</time>
      </trkpt>
      <trkpt lat="48.80743" lon="-0.34543">
        <ele>221</ele>
        <time>2016-05-21T11:21:30Z</time>
      </trkpt>
      <trkpt lat="48.80728" lon="-0.34543">
        <ele>221</ele>
        <time>2016-05-21T11:21:34Z</time>
      </trkpt>
      <trkpt lat="48.8071" lon="-0.34543">
        <ele>222</ele>
        <time>2016-05-21T11:21:38Z</time>
      </trkpt>
      <trkpt lat="48.80693" lon="-0.34543">
        <ele>222</ele>
        <time>2016-05-21T11:21:42Z</time>
      </trkpt>
      <trkpt lat="48.80675" lon="-0.34538">
        <ele>221</ele>
        <time>2016-05-21T11:21:45Z</time>
      </trkpt>
      <trkpt lat="48.80658" lon="-0.34528">
        <ele>221</ele>
        <time>2016-05-21T11:21:50Z</time>
      </trkpt>
      <trkpt lat="48.8064" lon="-0.34518">
        <ele>221</ele>
        <time>2016-05-21T11:21:53Z</time>
      </trkpt>
      <trkpt lat="48.80623" lon="-0.34508">
        <ele>222</ele>
        <time>2016-05-21T11:21:57Z</time>
      </trkpt>
      <trkpt lat="48.80605" lon="-0.34498">
        <ele>222</ele>
        <time>2016-05-21T11:22:00Z</time>
      </trkpt>
      <trkpt lat="48.8059" lon="-0.34488">
        <ele>222</ele>
        <time>2016-05-21T11:22:03Z</time>
      </trkpt>
      <trkpt lat="48.80565" lon="-0.3447">
        <ele>221</ele>
        <time>2016-05-21T11:22:08Z</time>
      </trkpt>
      <trkpt lat="48.80545" lon="-0.34453">
        <ele>220</ele>
        <time>2016-05-21T11:22:11Z</time>
      </trkpt>
      <trkpt lat="48.80528" lon="-0.34438">
        <ele>219</ele>
        <time>2016-05-21T11:22:14Z</time>
      </trkpt>
      <trkpt lat="48.8051" lon="-0.34418">
        <ele>218</ele>
        <time>2016-05-21T11:22:17Z</time>
      </trkpt>
      <trkpt lat="48.805" lon="-0.344">
        <ele>217</ele>
        <time>2016-05-21T11:22:20Z</time>
      </trkpt>
      <trkpt lat="48.80495" lon="-0.3438">
        <ele>216</ele>
        <time>2016-05-21T11:22:23Z</time>
      </trkpt>
      <trkpt lat="48.8051" lon="-0.34375">
        <ele>216</ele>
        <time>2016-05-21T11:22:28Z</time>
      </trkpt>
      <trkpt lat="48.80525" lon="-0.3438">
        <ele>215</ele>
        <time>2016-05-21T11:22:33Z</time>
      </trkpt>
      <trkpt lat="48.80543" lon="-0.34383">
        <ele>214</ele>
        <time>2016-05-21T11:22:37Z</time>
      </trkpt>
      <trkpt lat="48.8056" lon="-0.3438">
        <ele>214</ele>
        <time>2016-05-21T11:22:40Z</time>
      </trkpt>
      <trkpt lat="48.80575" lon="-0.34375">
        <ele>214</ele>
        <time>2016-05-21T11:22:45Z</time>
      </trkpt>
      <trkpt lat="48.80593" lon="-0.3437">
        <ele>214</ele>
        <time>2016-05-21T11:22:48Z</time>
      </trkpt>
      <trkpt lat="48.80613" lon="-0.3435">
        <ele>215</ele>
        <time>2016-05-21T11:22:53Z</time>
      </trkpt>
      <trkpt lat="48.80638" lon="-0.34323">
        <ele>215</ele>
        <time>2016-05-21T11:23:01Z</time>
      </trkpt>
      <trkpt lat="48.80653" lon="-0.3433">
        <ele>216</ele>
        <time>2016-05-21T11:23:03Z</time>
      </trkpt>
      <trkpt lat="48.80668" lon="-0.3434">
        <ele>216</ele>
        <time>2016-05-21T11:23:08Z</time>
      </trkpt>
      <trkpt lat="48.8068" lon="-0.3432">
        <ele>215</ele>
        <time>2016-05-21T11:23:12Z</time>
      </trkpt>
      <trkpt lat="48.80695" lon="-0.343">
        <ele>214</ele>
        <time>2016-05-21T11:23:15Z</time>
      </trkpt>
      <trkpt lat="48.80718" lon="-0.34265">
        <ele>213</ele>
        <time>2016-05-21T11:23:21Z</time>
      </trkpt>
      <trkpt lat="48.8073" lon="-0.3425">
        <ele>213</ele>
        <time>2016-05-21T11:23:24Z</time>
      </trkpt>
      <trkpt lat="48.80748" lon="-0.3423">
        <ele>213</ele>
        <time>2016-05-21T11:23:29Z</time>
      </trkpt>
      <trkpt lat="48.8076" lon="-0.34215">
        <ele>212</ele>
        <time>2016-05-21T11:23:32Z</time>
      </trkpt>
      <trkpt lat="48.8077" lon="-0.342">
        <ele>212</ele>
        <time>2016-05-21T11:23:34Z</time>
      </trkpt>
      <trkpt lat="48.80783" lon="-0.3418">
        <ele>212</ele>
        <time>2016-05-21T11:23:38Z</time>
      </trkpt>
      <trkpt lat="48.80798" lon="-0.34163">
        <ele>212</ele>
        <time>2016-05-21T11:23:40Z</time>
      </trkpt>
      <trkpt lat="48.8081" lon="-0.34148">
        <ele>212</ele>
        <time>2016-05-21T11:23:44Z</time>
      </trkpt>
      <trkpt lat="48.80828" lon="-0.34153">
        <ele>212</ele>
        <time>2016-05-21T11:23:48Z</time>
      </trkpt>
      <trkpt lat="48.80843" lon="-0.3416">
        <ele>213</ele>
        <time>2016-05-21T11:23:51Z</time>
      </trkpt>
      <trkpt lat="48.8086" lon="-0.34168">
        <ele>213</ele>
        <time>2016-05-21T11:23:56Z</time>
      </trkpt>
      <trkpt lat="48.80878" lon="-0.34168">
        <ele>213</ele>
        <time>2016-05-21T11:23:59Z</time>
      </trkpt>
      <trkpt lat="48.80893" lon="-0.3416">
        <ele>214</ele>
        <time>2016-05-21T11:24:03Z</time>
      </trkpt>
      <trkpt lat="48.80905" lon="-0.34173">
        <ele>214</ele>
        <time>2016-05-21T11:24:07Z</time>
      </trkpt>
      <trkpt lat="48.8092" lon="-0.3417">
        <ele>214</ele>
        <time>2016-05-21T11:24:11Z</time>
      </trkpt>
      <trkpt lat="48.80935" lon="-0.3417">
        <ele>213</ele>
        <time>2016-05-21T11:24:16Z</time>
      </trkpt>
      <trkpt lat="48.8095" lon="-0.3417">
        <ele>215</ele>
        <time>2016-05-21T11:24:20Z</time>
      </trkpt>
      <trkpt lat="48.80965" lon="-0.3417">
        <ele>215</ele>
        <time>2016-05-21T11:24:26Z</time>
      </trkpt>
      <trkpt lat="48.8098" lon="-0.34173">
        <ele>214</ele>
        <time>2016-05-21T11:24:31Z</time>
      </trkpt>
      <trkpt lat="48.80995" lon="-0.34163">
        <ele>214</ele>
        <time>2016-05-21T11:24:35Z</time>
      </trkpt>
      <trkpt lat="48.81013" lon="-0.34163">
        <ele>215</ele>
        <time>2016-05-21T11:24:39Z</time>
      </trkpt>
      <trkpt lat="48.81028" lon="-0.34165">
        <ele>214</ele>
        <time>2016-05-21T11:24:43Z</time>
      </trkpt>
      <trkpt lat="48.81065" lon="-0.3417">
        <ele>216</ele>
        <time>2016-05-21T11:24:53Z</time>
      </trkpt>
      <trkpt lat="48.8108" lon="-0.34173">
        <ele>217</ele>
        <time>2016-05-21T11:24:57Z</time>
      </trkpt>
      <trkpt lat="48.811" lon="-0.34178">
        <ele>218</ele>
        <time>2016-05-21T11:25:04Z</time>
      </trkpt>
      <trkpt lat="48.81115" lon="-0.34183">
        <ele>218</ele>
        <time>2016-05-21T11:25:08Z</time>
      </trkpt>
      <trkpt lat="48.81135" lon="-0.34185">
        <ele>218</ele>
        <time>2016-05-21T11:25:12Z</time>
      </trkpt>
      <trkpt lat="48.8115" lon="-0.3419">
        <ele>219</ele>
        <time>2016-05-21T11:25:17Z</time>
      </trkpt>
      <trkpt lat="48.81165" lon="-0.34195">
        <ele>220</ele>
        <time>2016-05-21T11:25:22Z</time>
      </trkpt>
      <trkpt lat="48.81193" lon="-0.34203">
        <ele>243</ele>
        <time>2016-05-21T11:28:35Z</time>
      </trkpt>
      <trkpt lat="48.81205" lon="-0.34188">
        <ele>224</ele>
        <time>2016-05-21T11:30:09Z</time>
      </trkpt>
      <trkpt lat="48.8122" lon="-0.34175">
        <ele>222</ele>
        <time>2016-05-21T11:30:16Z</time>
      </trkpt>
      <trkpt lat="48.81235" lon="-0.34175">
        <ele>222</ele>
        <time>2016-05-21T11:30:20Z</time>
      </trkpt>
      <trkpt lat="48.8124" lon="-0.342">
        <ele>221</ele>
        <time>2016-05-21T11:30:23Z</time>
      </trkpt>
      <trkpt lat="48.81248" lon="-0.34238">
        <ele>222</ele>
        <time>2016-05-21T11:30:26Z</time>
      </trkpt>
      <trkpt lat="48.8126" lon="-0.34258">
        <ele>221</ele>
        <time>2016-05-21T11:30:29Z</time>
      </trkpt>
      <trkpt lat="48.81275" lon="-0.3426">
        <ele>219</ele>
        <time>2016-05-21T11:30:32Z</time>
      </trkpt>
      <trkpt lat="48.81298" lon="-0.34245">
        <ele>216</ele>
        <time>2016-05-21T11:30:34Z</time>
      </trkpt>
      <trkpt lat="48.81325" lon="-0.34228">
        <ele>211</ele>
        <time>2016-05-21T11:30:38Z</time>
      </trkpt>
      <trkpt lat="48.81355" lon="-0.3422">
        <ele>206</ele>
        <time>2016-05-21T11:30:41Z</time>
      </trkpt>
      <trkpt lat="48.81375" lon="-0.34225">
        <ele>201</ele>
        <time>2016-05-21T11:30:44Z</time>
      </trkpt>
      <trkpt lat="48.81383" lon="-0.34253">
        <ele>198</ele>
        <time>2016-05-21T11:30:47Z</time>
      </trkpt>
      <trkpt lat="48.8139" lon="-0.34278">
        <ele>196</ele>
        <time>2016-05-21T11:30:50Z</time>
      </trkpt>
      <trkpt lat="48.81403" lon="-0.343">
        <ele>196</ele>
        <time>2016-05-21T11:30:52Z</time>
      </trkpt>
      <trkpt lat="48.81413" lon="-0.34318">
        <ele>197</ele>
        <time>2016-05-21T11:30:56Z</time>
      </trkpt>
      <trkpt lat="48.81428" lon="-0.3433">
        <ele>198</ele>
        <time>2016-05-21T11:30:58Z</time>
      </trkpt>
      <trkpt lat="48.81443" lon="-0.34348">
        <ele>198</ele>
        <time>2016-05-21T11:31:02Z</time>
      </trkpt>
      <trkpt lat="48.81453" lon="-0.34373">
        <ele>198</ele>
        <time>2016-05-21T11:31:04Z</time>
      </trkpt>
      <trkpt lat="48.8146" lon="-0.34395">
        <ele>198</ele>
        <time>2016-05-21T11:31:08Z</time>
      </trkpt>
      <trkpt lat="48.8147" lon="-0.3442">
        <ele>197</ele>
        <time>2016-05-21T11:31:11Z</time>
      </trkpt>
      <trkpt lat="48.81488" lon="-0.34463">
        <ele>197</ele>
        <time>2016-05-21T11:31:16Z</time>
      </trkpt>
      <trkpt lat="48.81493" lon="-0.34488">
        <ele>197</ele>
        <time>2016-05-21T11:31:19Z</time>
      </trkpt>
      <trkpt lat="48.815" lon="-0.34513">
        <ele>196</ele>
        <time>2016-05-21T11:31:21Z</time>
      </trkpt>
      <trkpt lat="48.8151" lon="-0.3454">
        <ele>196</ele>
        <time>2016-05-21T11:31:24Z</time>
      </trkpt>
      <trkpt lat="48.8152" lon="-0.34563">
        <ele>196</ele>
        <time>2016-05-21T11:31:27Z</time>
      </trkpt>
      <trkpt lat="48.81543" lon="-0.34603">
        <ele>195</ele>
        <time>2016-05-21T11:31:33Z</time>
      </trkpt>
      <trkpt lat="48.8156" lon="-0.34628">
        <ele>195</ele>
        <time>2016-05-21T11:31:36Z</time>
      </trkpt>
      <trkpt lat="48.81573" lon="-0.34655">
        <ele>195</ele>
        <time>2016-05-21T11:31:39Z</time>
      </trkpt>
      <trkpt lat="48.8158" lon="-0.34683">
        <ele>195</ele>
        <time>2016-05-21T11:31:42Z</time>
      </trkpt>
      <trkpt lat="48.81593" lon="-0.34708">
        <ele>194</ele>
        <time>2016-05-21T11:31:45Z</time>
      </trkpt>
      <trkpt lat="48.81615" lon="-0.34743">
        <ele>194</ele>
        <time>2016-05-21T11:31:49Z</time>
      </trkpt>
      <trkpt lat="48.81623" lon="-0.3476">
        <ele>193</ele>
        <time>2016-05-21T11:31:52Z</time>
      </trkpt>
      <trkpt lat="48.8163" lon="-0.34785">
        <ele>193</ele>
        <time>2016-05-21T11:31:55Z</time>
      </trkpt>
      <trkpt lat="48.81638" lon="-0.34805">
        <ele>194</ele>
        <time>2016-05-21T11:31:57Z</time>
      </trkpt>
      <trkpt lat="48.81645" lon="-0.3483">
        <ele>195</ele>
        <time>2016-05-21T11:32:02Z</time>
      </trkpt>
      <trkpt lat="48.8165" lon="-0.34853">
        <ele>197</ele>
        <time>2016-05-21T11:32:06Z</time>
      </trkpt>
      <trkpt lat="48.81658" lon="-0.34875">
        <ele>198</ele>
        <time>2016-05-21T11:32:10Z</time>
      </trkpt>
      <trkpt lat="48.81663" lon="-0.34895">
        <ele>199</ele>
        <time>2016-05-21T11:32:13Z</time>
      </trkpt>
      <trkpt lat="48.81668" lon="-0.3492">
        <ele>199</ele>
        <time>2016-05-21T11:32:17Z</time>
      </trkpt>
      <trkpt lat="48.81668" lon="-0.34943">
        <ele>201</ele>
        <time>2016-05-21T11:32:21Z</time>
      </trkpt>
      <trkpt lat="48.81668" lon="-0.34968">
        <ele>202</ele>
        <time>2016-05-21T11:32:25Z</time>
      </trkpt>
      <trkpt lat="48.81665" lon="-0.34993">
        <ele>203</ele>
        <time>2016-05-21T11:32:29Z</time>
      </trkpt>
      <trkpt lat="48.8166" lon="-0.35018">
        <ele>204</ele>
        <time>2016-05-21T11:32:33Z</time>
      </trkpt>
      <trkpt lat="48.81653" lon="-0.3504">
        <ele>204</ele>
        <time>2016-05-21T11:32:37Z</time>
      </trkpt>
      <trkpt lat="48.81648" lon="-0.3506">
        <ele>205</ele>
        <time>2016-05-21T11:32:40Z</time>
      </trkpt>
      <trkpt lat="48.81643" lon="-0.35085">
        <ele>206</ele>
        <time>2016-05-21T11:32:43Z</time>
      </trkpt>
      <trkpt lat="48.81635" lon="-0.35105">
        <ele>208</ele>
        <time>2016-05-21T11:32:46Z</time>
      </trkpt>
      <trkpt lat="48.8163" lon="-0.35128">
        <ele>208</ele>
        <time>2016-05-21T11:32:49Z</time>
      </trkpt>
      <trkpt lat="48.81625" lon="-0.3515">
        <ele>209</ele>
        <time>2016-05-21T11:32:51Z</time>
      </trkpt>
      <trkpt lat="48.81613" lon="-0.35165">
        <ele>209</ele>
        <time>2016-05-21T11:32:54Z</time>
      </trkpt>
      <trkpt lat="48.81598" lon="-0.35185">
        <ele>210</ele>
        <time>2016-05-21T11:32:59Z</time>
      </trkpt>
      <trkpt lat="48.81583" lon="-0.35203">
        <ele>210</ele>
        <time>2016-05-21T11:33:03Z</time>
      </trkpt>
      <trkpt lat="48.81565" lon="-0.35228">
        <ele>212</ele>
        <time>2016-05-21T11:33:10Z</time>
      </trkpt>
      <trkpt lat="48.8155" lon="-0.3524">
        <ele>214</ele>
        <time>2016-05-21T11:33:15Z</time>
      </trkpt>
      <trkpt lat="48.81538" lon="-0.35255">
        <ele>218</ele>
        <time>2016-05-21T11:33:48Z</time>
      </trkpt>
      <trkpt lat="48.81525" lon="-0.35265">
        <ele>218</ele>
        <time>2016-05-21T11:33:54Z</time>
      </trkpt>
      <trkpt lat="48.81513" lon="-0.35278">
        <ele>218</ele>
        <time>2016-05-21T11:33:59Z</time>
      </trkpt>
      <trkpt lat="48.81498" lon="-0.3529">
        <ele>217</ele>
        <time>2016-05-21T11:34:03Z</time>
      </trkpt>
      <trkpt lat="48.81483" lon="-0.35293">
        <ele>220</ele>
        <time>2016-05-21T11:34:11Z</time>
      </trkpt>
      <trkpt lat="48.81458" lon="-0.35305">
        <ele>228</ele>
        <time>2016-05-21T11:34:52Z</time>
      </trkpt>
      <trkpt lat="48.81425" lon="-0.35323">
        <ele>234</ele>
        <time>2016-05-21T11:35:21Z</time>
      </trkpt>
      <trkpt lat="48.81395" lon="-0.3535">
        <ele>234</ele>
        <time>2016-05-21T11:35:41Z</time>
      </trkpt>
      <trkpt lat="48.81383" lon="-0.35363">
        <ele>234</ele>
        <time>2016-05-21T11:35:50Z</time>
      </trkpt>
      <trkpt lat="48.8137" lon="-0.35373">
        <ele>234</ele>
        <time>2016-05-21T11:35:56Z</time>
      </trkpt>
      <trkpt lat="48.81363" lon="-0.3539">
        <ele>233</ele>
        <time>2016-05-21T11:36:05Z</time>
      </trkpt>
      <trkpt lat="48.81368" lon="-0.3541">
        <ele>235</ele>
        <time>2016-05-21T11:36:14Z</time>
      </trkpt>
      <trkpt lat="48.81373" lon="-0.35433">
        <ele>236</ele>
        <time>2016-05-21T11:36:19Z</time>
      </trkpt>
      <trkpt lat="48.81378" lon="-0.35455">
        <ele>236</ele>
        <time>2016-05-21T11:36:23Z</time>
      </trkpt>
      <trkpt lat="48.81383" lon="-0.35478">
        <ele>235</ele>
        <time>2016-05-21T11:36:27Z</time>
      </trkpt>
      <trkpt lat="48.81385" lon="-0.355">
        <ele>236</ele>
        <time>2016-05-21T11:36:30Z</time>
      </trkpt>
      <trkpt lat="48.81413" lon="-0.3561">
        <ele>233</ele>
        <time>2016-05-21T11:36:42Z</time>
      </trkpt>
      <trkpt lat="48.81418" lon="-0.35635">
        <ele>232</ele>
        <time>2016-05-21T11:36:45Z</time>
      </trkpt>
      <trkpt lat="48.81423" lon="-0.35675">
        <ele>232</ele>
        <time>2016-05-21T11:36:49Z</time>
      </trkpt>
      <trkpt lat="48.81425" lon="-0.357">
        <ele>232</ele>
        <time>2016-05-21T11:36:52Z</time>
      </trkpt>
      <trkpt lat="48.81435" lon="-0.3572">
        <ele>232</ele>
        <time>2016-05-21T11:36:56Z</time>
      </trkpt>
      <trkpt lat="48.81443" lon="-0.35738">
        <ele>231</ele>
        <time>2016-05-21T11:36:59Z</time>
      </trkpt>
      <trkpt lat="48.8145" lon="-0.3576">
        <ele>231</ele>
        <time>2016-05-21T11:37:03Z</time>
      </trkpt>
      <trkpt lat="48.81463" lon="-0.3578">
        <ele>232</ele>
        <time>2016-05-21T11:37:07Z</time>
      </trkpt>
      <trkpt lat="48.81478" lon="-0.35785">
        <ele>231</ele>
        <time>2016-05-21T11:37:13Z</time>
      </trkpt>
      <trkpt lat="48.8149" lon="-0.35795">
        <ele>230</ele>
        <time>2016-05-21T11:37:18Z</time>
      </trkpt>
      <trkpt lat="48.81503" lon="-0.35808">
        <ele>228</ele>
        <time>2016-05-21T11:37:25Z</time>
      </trkpt>
      <trkpt lat="48.81518" lon="-0.3582">
        <ele>226</ele>
        <time>2016-05-21T11:37:30Z</time>
      </trkpt>
      <trkpt lat="48.81533" lon="-0.3583">
        <ele>224</ele>
        <time>2016-05-21T11:37:35Z</time>
      </trkpt>
      <trkpt lat="48.81545" lon="-0.35843">
        <ele>224</ele>
        <time>2016-05-21T11:37:39Z</time>
      </trkpt>
      <trkpt lat="48.81545" lon="-0.3587">
        <ele>226</ele>
        <time>2016-05-21T11:37:44Z</time>
      </trkpt>
      <trkpt lat="48.81548" lon="-0.35898">
        <ele>227</ele>
        <time>2016-05-21T11:37:47Z</time>
      </trkpt>
      <trkpt lat="48.81545" lon="-0.3592">
        <ele>228</ele>
        <time>2016-05-21T11:37:52Z</time>
      </trkpt>
      <trkpt lat="48.81533" lon="-0.35935">
        <ele>229</ele>
        <time>2016-05-21T11:37:57Z</time>
      </trkpt>
      <trkpt lat="48.8152" lon="-0.35945">
        <ele>230</ele>
        <time>2016-05-21T11:38:02Z</time>
      </trkpt>
      <trkpt lat="48.8148" lon="-0.35978">
        <ele>231</ele>
        <time>2016-05-21T11:38:12Z</time>
      </trkpt>
      <trkpt lat="48.8147" lon="-0.36003">
        <ele>233</ele>
        <time>2016-05-21T11:38:17Z</time>
      </trkpt>
      <trkpt lat="48.8147" lon="-0.36028">
        <ele>235</ele>
        <time>2016-05-21T11:38:22Z</time>
      </trkpt>
      <trkpt lat="48.81478" lon="-0.3605">
        <ele>235</ele>
        <time>2016-05-21T11:38:27Z</time>
      </trkpt>
      <trkpt lat="48.8148" lon="-0.36073">
        <ele>236</ele>
        <time>2016-05-21T11:38:31Z</time>
      </trkpt>
      <trkpt lat="48.8148" lon="-0.36095">
        <ele>237</ele>
        <time>2016-05-21T11:38:36Z</time>
      </trkpt>
      <trkpt lat="48.81485" lon="-0.36115">
        <ele>238</ele>
        <time>2016-05-21T11:38:39Z</time>
      </trkpt>
      <trkpt lat="48.8149" lon="-0.36135">
        <ele>238</ele>
        <time>2016-05-21T11:38:44Z</time>
      </trkpt>
      <trkpt lat="48.81495" lon="-0.36155">
        <ele>239</ele>
        <time>2016-05-21T11:38:50Z</time>
      </trkpt>
      <trkpt lat="48.815" lon="-0.36175">
        <ele>240</ele>
        <time>2016-05-21T11:38:57Z</time>
      </trkpt>
      <trkpt lat="48.81508" lon="-0.36195">
        <ele>240</ele>
        <time>2016-05-21T11:41:43Z</time>
      </trkpt>
      <trkpt lat="48.8152" lon="-0.36208">
        <ele>239</ele>
        <time>2016-05-21T11:41:47Z</time>
      </trkpt>
      <trkpt lat="48.8153" lon="-0.36223">
        <ele>239</ele>
        <time>2016-05-21T11:41:51Z</time>
      </trkpt>
      <trkpt lat="48.81543" lon="-0.36233">
        <ele>239</ele>
        <time>2016-05-21T11:41:55Z</time>
      </trkpt>
      <trkpt lat="48.81555" lon="-0.36243">
        <ele>239</ele>
        <time>2016-05-21T11:41:59Z</time>
      </trkpt>
      <trkpt lat="48.81568" lon="-0.36258">
        <ele>239</ele>
        <time>2016-05-21T11:42:03Z</time>
      </trkpt>
      <trkpt lat="48.8158" lon="-0.3627">
        <ele>239</ele>
        <time>2016-05-21T11:42:06Z</time>
      </trkpt>
      <trkpt lat="48.81598" lon="-0.36285">
        <ele>239</ele>
        <time>2016-05-21T11:42:10Z</time>
      </trkpt>
      <trkpt lat="48.8161" lon="-0.363">
        <ele>239</ele>
        <time>2016-05-21T11:42:14Z</time>
      </trkpt>
      <trkpt lat="48.81625" lon="-0.3631">
        <ele>239</ele>
        <time>2016-05-21T11:42:17Z</time>
      </trkpt>
      <trkpt lat="48.8164" lon="-0.36325">
        <ele>239</ele>
        <time>2016-05-21T11:42:21Z</time>
      </trkpt>
      <trkpt lat="48.81653" lon="-0.36338">
        <ele>239</ele>
        <time>2016-05-21T11:42:23Z</time>
      </trkpt>
      <trkpt lat="48.81663" lon="-0.36355">
        <ele>238</ele>
        <time>2016-05-21T11:42:27Z</time>
      </trkpt>
      <trkpt lat="48.81678" lon="-0.36373">
        <ele>238</ele>
        <time>2016-05-21T11:42:31Z</time>
      </trkpt>
      <trkpt lat="48.8169" lon="-0.36383">
        <ele>237</ele>
        <time>2016-05-21T11:42:33Z</time>
      </trkpt>
      <trkpt lat="48.81708" lon="-0.36388">
        <ele>237</ele>
        <time>2016-05-21T11:42:38Z</time>
      </trkpt>
      <trkpt lat="48.81725" lon="-0.36385">
        <ele>236</ele>
        <time>2016-05-21T11:42:40Z</time>
      </trkpt>
      <trkpt lat="48.81745" lon="-0.3638">
        <ele>236</ele>
        <time>2016-05-21T11:42:44Z</time>
      </trkpt>
      <trkpt lat="48.81765" lon="-0.3638">
        <ele>237</ele>
        <time>2016-05-21T11:42:47Z</time>
      </trkpt>
      <trkpt lat="48.81783" lon="-0.36385">
        <ele>237</ele>
        <time>2016-05-21T11:42:50Z</time>
      </trkpt>
      <trkpt lat="48.81798" lon="-0.36395">
        <ele>237</ele>
        <time>2016-05-21T11:42:53Z</time>
      </trkpt>
      <trkpt lat="48.81813" lon="-0.36408">
        <ele>237</ele>
        <time>2016-05-21T11:42:56Z</time>
      </trkpt>
      <trkpt lat="48.81825" lon="-0.3642">
        <ele>237</ele>
        <time>2016-05-21T11:42:58Z</time>
      </trkpt>
      <trkpt lat="48.81838" lon="-0.36435">
        <ele>239</ele>
        <time>2016-05-21T11:43:01Z</time>
      </trkpt>
      <trkpt lat="48.81855" lon="-0.36445">
        <ele>239</ele>
        <time>2016-05-21T11:43:04Z</time>
      </trkpt>
      <trkpt lat="48.81873" lon="-0.36455">
        <ele>238</ele>
        <time>2016-05-21T11:43:07Z</time>
      </trkpt>
      <trkpt lat="48.81888" lon="-0.36468">
        <ele>237</ele>
        <time>2016-05-21T11:43:09Z</time>
      </trkpt>
      <trkpt lat="48.8191" lon="-0.36485">
        <ele>237</ele>
        <time>2016-05-21T11:43:13Z</time>
      </trkpt>
      <trkpt lat="48.81923" lon="-0.36508">
        <ele>236</ele>
        <time>2016-05-21T11:43:17Z</time>
      </trkpt>
      <trkpt lat="48.81938" lon="-0.36528">
        <ele>235</ele>
        <time>2016-05-21T11:43:20Z</time>
      </trkpt>
      <trkpt lat="48.81953" lon="-0.36553">
        <ele>234</ele>
        <time>2016-05-21T11:43:23Z</time>
      </trkpt>
      <trkpt lat="48.81968" lon="-0.36578">
        <ele>233</ele>
        <time>2016-05-21T11:43:26Z</time>
      </trkpt>
      <trkpt lat="48.81983" lon="-0.366">
        <ele>230</ele>
        <time>2016-05-21T11:43:29Z</time>
      </trkpt>
      <trkpt lat="48.82005" lon="-0.36623">
        <ele>230</ele>
        <time>2016-05-21T11:43:32Z</time>
      </trkpt>
      <trkpt lat="48.82023" lon="-0.3664">
        <ele>231</ele>
        <time>2016-05-21T11:43:35Z</time>
      </trkpt>
      <trkpt lat="48.82033" lon="-0.36655">
        <ele>231</ele>
        <time>2016-05-21T11:43:37Z</time>
      </trkpt>
      <trkpt lat="48.82043" lon="-0.36678">
        <ele>229</ele>
        <time>2016-05-21T11:43:39Z</time>
      </trkpt>
      <trkpt lat="48.8206" lon="-0.36703">
        <ele>224</ele>
        <time>2016-05-21T11:43:42Z</time>
      </trkpt>
      <trkpt lat="48.82083" lon="-0.36748">
        <ele>222</ele>
        <time>2016-05-21T11:43:46Z</time>
      </trkpt>
      <trkpt lat="48.82093" lon="-0.36768">
        <ele>221</ele>
        <time>2016-05-21T11:43:48Z</time>
      </trkpt>
      <trkpt lat="48.82105" lon="-0.368">
        <ele>221</ele>
        <time>2016-05-21T11:43:51Z</time>
      </trkpt>
      <trkpt lat="48.8212" lon="-0.36828">
        <ele>222</ele>
        <time>2016-05-21T11:43:54Z</time>
      </trkpt>
      <trkpt lat="48.82128" lon="-0.36845">
        <ele>221</ele>
        <time>2016-05-21T11:43:56Z</time>
      </trkpt>
      <trkpt lat="48.82135" lon="-0.36873">
        <ele>221</ele>
        <time>2016-05-21T11:43:59Z</time>
      </trkpt>
      <trkpt lat="48.82143" lon="-0.36898">
        <ele>221</ele>
        <time>2016-05-21T11:44:02Z</time>
      </trkpt>
      <trkpt lat="48.8215" lon="-0.36923">
        <ele>221</ele>
        <time>2016-05-21T11:44:05Z</time>
      </trkpt>
      <trkpt lat="48.82163" lon="-0.36945">
        <ele>221</ele>
        <time>2016-05-21T11:44:07Z</time>
      </trkpt>
      <trkpt lat="48.82178" lon="-0.3695">
        <ele>222</ele>
        <time>2016-05-21T11:44:11Z</time>
      </trkpt>
      <trkpt lat="48.82195" lon="-0.36938">
        <ele>221</ele>
        <time>2016-05-21T11:44:14Z</time>
      </trkpt>
      <trkpt lat="48.8221" lon="-0.36923">
        <ele>221</ele>
        <time>2016-05-21T11:44:16Z</time>
      </trkpt>
      <trkpt lat="48.82225" lon="-0.36925">
        <ele>220</ele>
        <time>2016-05-21T11:44:20Z</time>
      </trkpt>
      <trkpt lat="48.82233" lon="-0.36943">
        <ele>219</ele>
        <time>2016-05-21T11:44:23Z</time>
      </trkpt>
      <trkpt lat="48.8224" lon="-0.36963">
        <ele>218</ele>
        <time>2016-05-21T11:44:26Z</time>
      </trkpt>
      <trkpt lat="48.82243" lon="-0.36988">
        <ele>218</ele>
        <time>2016-05-21T11:44:30Z</time>
      </trkpt>
      <trkpt lat="48.8225" lon="-0.37008">
        <ele>218</ele>
        <time>2016-05-21T11:44:33Z</time>
      </trkpt>
      <trkpt lat="48.82265" lon="-0.37053">
        <ele>216</ele>
        <time>2016-05-21T11:44:39Z</time>
      </trkpt>
      <trkpt lat="48.82275" lon="-0.3708">
        <ele>215</ele>
        <time>2016-05-21T11:44:42Z</time>
      </trkpt>
      <trkpt lat="48.8229" lon="-0.37125">
        <ele>213</ele>
        <time>2016-05-21T11:44:46Z</time>
      </trkpt>
      <trkpt lat="48.823" lon="-0.37155">
        <ele>212</ele>
        <time>2016-05-21T11:44:48Z</time>
      </trkpt>
      <trkpt lat="48.82318" lon="-0.37183">
        <ele>210</ele>
        <time>2016-05-21T11:44:51Z</time>
      </trkpt>
      <trkpt lat="48.82333" lon="-0.37203">
        <ele>209</ele>
        <time>2016-05-21T11:44:54Z</time>
      </trkpt>
      <trkpt lat="48.8235" lon="-0.37228">
        <ele>208</ele>
        <time>2016-05-21T11:44:56Z</time>
      </trkpt>
      <trkpt lat="48.82388" lon="-0.37283">
        <ele>204</ele>
        <time>2016-05-21T11:45:01Z</time>
      </trkpt>
      <trkpt lat="48.82408" lon="-0.3731">
        <ele>201</ele>
        <time>2016-05-21T11:45:04Z</time>
      </trkpt>
      <trkpt lat="48.82425" lon="-0.3733">
        <ele>199</ele>
        <time>2016-05-21T11:45:06Z</time>
      </trkpt>
      <trkpt lat="48.82453" lon="-0.37358">
        <ele>195</ele>
        <time>2016-05-21T11:45:09Z</time>
      </trkpt>
      <trkpt lat="48.82468" lon="-0.37365">
        <ele>194</ele>
        <time>2016-05-21T11:45:11Z</time>
      </trkpt>
      <trkpt lat="48.82483" lon="-0.3737">
        <ele>194</ele>
        <time>2016-05-21T11:45:15Z</time>
      </trkpt>
      <trkpt lat="48.82495" lon="-0.3739">
        <ele>193</ele>
        <time>2016-05-21T11:45:21Z</time>
      </trkpt>
      <trkpt lat="48.82505" lon="-0.37405">
        <ele>192</ele>
        <time>2016-05-21T11:45:23Z</time>
      </trkpt>
      <trkpt lat="48.82513" lon="-0.37425">
        <ele>191</ele>
        <time>2016-05-21T11:45:26Z</time>
      </trkpt>
      <trkpt lat="48.82523" lon="-0.37448">
        <ele>190</ele>
        <time>2016-05-21T11:45:31Z</time>
      </trkpt>
      <trkpt lat="48.8255" lon="-0.37505">
        <ele>188</ele>
        <time>2016-05-21T11:45:41Z</time>
      </trkpt>
      <trkpt lat="48.82558" lon="-0.37528">
        <ele>188</ele>
        <time>2016-05-21T11:45:45Z</time>
      </trkpt>
      <trkpt lat="48.82565" lon="-0.3755">
        <ele>188</ele>
        <time>2016-05-21T11:45:48Z</time>
      </trkpt>
      <trkpt lat="48.82573" lon="-0.3757">
        <ele>188</ele>
        <time>2016-05-21T11:45:52Z</time>
      </trkpt>
      <trkpt lat="48.82583" lon="-0.37585">
        <ele>188</ele>
        <time>2016-05-21T11:45:56Z</time>
      </trkpt>
      <trkpt lat="48.82593" lon="-0.37603">
        <ele>187</ele>
        <time>2016-05-21T11:45:59Z</time>
      </trkpt>
      <trkpt lat="48.82603" lon="-0.37625">
        <ele>187</ele>
        <time>2016-05-21T11:46:01Z</time>
      </trkpt>
      <trkpt lat="48.82613" lon="-0.37648">
        <ele>186</ele>
        <time>2016-05-21T11:46:04Z</time>
      </trkpt>
      <trkpt lat="48.82625" lon="-0.37668">
        <ele>185</ele>
        <time>2016-05-21T11:46:08Z</time>
      </trkpt>
      <trkpt lat="48.82635" lon="-0.37688">
        <ele>183</ele>
        <time>2016-05-21T11:46:10Z</time>
      </trkpt>
      <trkpt lat="48.82643" lon="-0.37708">
        <ele>184</ele>
        <time>2016-05-21T11:46:18Z</time>
      </trkpt>
      <trkpt lat="48.8265" lon="-0.37728">
        <ele>183</ele>
        <time>2016-05-21T11:46:25Z</time>
      </trkpt>
      <trkpt lat="48.82658" lon="-0.37745">
        <ele>181</ele>
        <time>2016-05-21T11:46:28Z</time>
      </trkpt>
      <trkpt lat="48.8267" lon="-0.37765">
        <ele>180</ele>
        <time>2016-05-21T11:46:32Z</time>
      </trkpt>
      <trkpt lat="48.82695" lon="-0.37815">
        <ele>179</ele>
        <time>2016-05-21T11:46:40Z</time>
      </trkpt>
      <trkpt lat="48.82703" lon="-0.37833">
        <ele>179</ele>
        <time>2016-05-21T11:46:43Z</time>
      </trkpt>
      <trkpt lat="48.82708" lon="-0.37853">
        <ele>179</ele>
        <time>2016-05-21T11:46:50Z</time>
      </trkpt>
      <trkpt lat="48.82715" lon="-0.3787">
        <ele>177</ele>
        <time>2016-05-21T11:46:57Z</time>
      </trkpt>
      <trkpt lat="48.82728" lon="-0.3788">
        <ele>176</ele>
        <time>2016-05-21T11:47:02Z</time>
      </trkpt>
      <trkpt lat="48.8274" lon="-0.37893">
        <ele>175</ele>
        <time>2016-05-21T11:47:08Z</time>
      </trkpt>
      <trkpt lat="48.82745" lon="-0.37913">
        <ele>173</ele>
        <time>2016-05-21T11:47:17Z</time>
      </trkpt>
      <trkpt lat="48.82763" lon="-0.37913">
        <ele>172</ele>
        <time>2016-05-21T11:47:24Z</time>
      </trkpt>
      <trkpt lat="48.82773" lon="-0.37928">
        <ele>172</ele>
        <time>2016-05-21T11:47:28Z</time>
      </trkpt>
      <trkpt lat="48.82778" lon="-0.37948">
        <ele>170</ele>
        <time>2016-05-21T11:47:33Z</time>
      </trkpt>
      <trkpt lat="48.82788" lon="-0.37963">
        <ele>169</ele>
        <time>2016-05-21T11:47:38Z</time>
      </trkpt>
      <trkpt lat="48.82803" lon="-0.3796">
        <ele>169</ele>
        <time>2016-05-21T11:48:20Z</time>
      </trkpt>
      <trkpt lat="48.82805" lon="-0.37995">
        <ele>169</ele>
        <time>2016-05-21T11:51:38Z</time>
      </trkpt>
      <trkpt lat="48.82818" lon="-0.38005">
        <ele>168</ele>
        <time>2016-05-21T11:51:41Z</time>
      </trkpt>
      <trkpt lat="48.82828" lon="-0.3802">
        <ele>169</ele>
        <time>2016-05-21T11:51:44Z</time>
      </trkpt>
      <trkpt lat="48.82835" lon="-0.38038">
        <ele>167</ele>
        <time>2016-05-21T11:51:51Z</time>
      </trkpt>
      <trkpt lat="48.82835" lon="-0.38063">
        <ele>168</ele>
        <time>2016-05-21T11:51:57Z</time>
      </trkpt>
      <trkpt lat="48.82828" lon="-0.38083">
        <ele>169</ele>
        <time>2016-05-21T11:52:04Z</time>
      </trkpt>
      <trkpt lat="48.82835" lon="-0.38065">
        <ele>170</ele>
        <time>2016-05-21T11:56:34Z</time>
      </trkpt>
      <trkpt lat="48.82835" lon="-0.3804">
        <ele>169</ele>
        <time>2016-05-21T11:56:44Z</time>
      </trkpt>
      <trkpt lat="48.82825" lon="-0.3802">
        <ele>168</ele>
        <time>2016-05-21T11:56:49Z</time>
      </trkpt>
      <trkpt lat="48.82813" lon="-0.38003">
        <ele>168</ele>
        <time>2016-05-21T11:56:54Z</time>
      </trkpt>
      <trkpt lat="48.828" lon="-0.3799">
        <ele>168</ele>
        <time>2016-05-21T11:57:00Z</time>
      </trkpt>
      <trkpt lat="48.82788" lon="-0.3797">
        <ele>169</ele>
        <time>2016-05-21T11:57:07Z</time>
      </trkpt>
      <trkpt lat="48.8278" lon="-0.37948">
        <ele>169</ele>
        <time>2016-05-21T11:57:13Z</time>
      </trkpt>
      <trkpt lat="48.82773" lon="-0.3793">
        <ele>170</ele>
        <time>2016-05-21T11:57:16Z</time>
      </trkpt>
      <trkpt lat="48.8275" lon="-0.3792">
        <ele>169</ele>
        <time>2016-05-21T11:57:48Z</time>
      </trkpt>
      <trkpt lat="48.82745" lon="-0.379">
        <ele>170</ele>
        <time>2016-05-21T11:57:57Z</time>
      </trkpt>
      <trkpt lat="48.8273" lon="-0.37885">
        <ele>171</ele>
        <time>2016-05-21T11:58:04Z</time>
      </trkpt>
      <trkpt lat="48.82718" lon="-0.37875">
        <ele>171</ele>
        <time>2016-05-21T11:58:09Z</time>
      </trkpt>
      <trkpt lat="48.82705" lon="-0.37863">
        <ele>172</ele>
        <time>2016-05-21T11:58:16Z</time>
      </trkpt>
      <trkpt lat="48.82695" lon="-0.37848">
        <ele>172</ele>
        <time>2016-05-21T11:58:20Z</time>
      </trkpt>
      <trkpt lat="48.82685" lon="-0.3783">
        <ele>173</ele>
        <time>2016-05-21T11:58:25Z</time>
      </trkpt>
      <trkpt lat="48.82675" lon="-0.37813">
        <ele>175</ele>
        <time>2016-05-21T11:58:32Z</time>
      </trkpt>
      <trkpt lat="48.82668" lon="-0.37795">
        <ele>176</ele>
        <time>2016-05-21T11:58:39Z</time>
      </trkpt>
      <trkpt lat="48.8266" lon="-0.37778">
        <ele>178</ele>
        <time>2016-05-21T11:58:49Z</time>
      </trkpt>
      <trkpt lat="48.8265" lon="-0.37763">
        <ele>180</ele>
        <time>2016-05-21T11:58:56Z</time>
      </trkpt>
      <trkpt lat="48.82638" lon="-0.37748">
        <ele>180</ele>
        <time>2016-05-21T11:59:02Z</time>
      </trkpt>
      <trkpt lat="48.82623" lon="-0.37743">
        <ele>181</ele>
        <time>2016-05-21T11:59:09Z</time>
      </trkpt>
      <trkpt lat="48.82608" lon="-0.37733">
        <ele>182</ele>
        <time>2016-05-21T11:59:16Z</time>
      </trkpt>
      <trkpt lat="48.82608" lon="-0.3771">
        <ele>183</ele>
        <time>2016-05-21T11:59:23Z</time>
      </trkpt>
      <trkpt lat="48.82623" lon="-0.37715">
        <ele>183</ele>
        <time>2016-05-21T11:59:31Z</time>
      </trkpt>
      <trkpt lat="48.82638" lon="-0.3772">
        <ele>183</ele>
        <time>2016-05-21T11:59:38Z</time>
      </trkpt>
      <trkpt lat="48.82633" lon="-0.377">
        <ele>183</ele>
        <time>2016-05-21T11:59:45Z</time>
      </trkpt>
      <trkpt lat="48.82625" lon="-0.37683">
        <ele>183</ele>
        <time>2016-05-21T11:59:50Z</time>
      </trkpt>
      <trkpt lat="48.8261" lon="-0.37658">
        <ele>184</ele>
        <time>2016-05-21T11:59:57Z</time>
      </trkpt>
      <trkpt lat="48.82603" lon="-0.3764">
        <ele>185</ele>
        <time>2016-05-21T12:00:01Z</time>
      </trkpt>
      <trkpt lat="48.8259" lon="-0.3761">
        <ele>185</ele>
        <time>2016-05-21T12:00:06Z</time>
      </trkpt>
      <trkpt lat="48.8258" lon="-0.3759">
        <ele>186</ele>
        <time>2016-05-21T12:00:09Z</time>
      </trkpt>
      <trkpt lat="48.82565" lon="-0.37575">
        <ele>186</ele>
        <time>2016-05-21T12:00:14Z</time>
      </trkpt>
      <trkpt lat="48.8255" lon="-0.37565">
        <ele>187</ele>
        <time>2016-05-21T12:00:18Z</time>
      </trkpt>
      <trkpt lat="48.82533" lon="-0.37563">
        <ele>187</ele>
        <time>2016-05-21T12:00:22Z</time>
      </trkpt>
      <trkpt lat="48.82518" lon="-0.3756">
        <ele>187</ele>
        <time>2016-05-21T12:00:26Z</time>
      </trkpt>
      <trkpt lat="48.8246" lon="-0.37543">
        <ele>183</ele>
        <time>2016-05-21T12:00:33Z</time>
      </trkpt>
      <trkpt lat="48.82358" lon="-0.37515">
        <ele>177</ele>
        <time>2016-05-21T12:00:44Z</time>
      </trkpt>
      <trkpt lat="48.82298" lon="-0.37503">
        <ele>176</ele>
        <time>2016-05-21T12:00:51Z</time>
      </trkpt>
      <trkpt lat="48.82273" lon="-0.375">
        <ele>176</ele>
        <time>2016-05-21T12:00:54Z</time>
      </trkpt>
      <trkpt lat="48.82253" lon="-0.37503">
        <ele>176</ele>
        <time>2016-05-21T12:00:56Z</time>
      </trkpt>
      <trkpt lat="48.82223" lon="-0.37508">
        <ele>177</ele>
        <time>2016-05-21T12:01:02Z</time>
      </trkpt>
      <trkpt lat="48.82205" lon="-0.3751">
        <ele>177</ele>
        <time>2016-05-21T12:01:05Z</time>
      </trkpt>
      <trkpt lat="48.82183" lon="-0.37515">
        <ele>178</ele>
        <time>2016-05-21T12:01:09Z</time>
      </trkpt>
      <trkpt lat="48.82165" lon="-0.37518">
        <ele>177</ele>
        <time>2016-05-21T12:01:12Z</time>
      </trkpt>
      <trkpt lat="48.82148" lon="-0.37523">
        <ele>177</ele>
        <time>2016-05-21T12:01:15Z</time>
      </trkpt>
      <trkpt lat="48.8213" lon="-0.37528">
        <ele>177</ele>
        <time>2016-05-21T12:01:17Z</time>
      </trkpt>
      <trkpt lat="48.82115" lon="-0.3752">
        <ele>178</ele>
        <time>2016-05-21T12:01:20Z</time>
      </trkpt>
      <trkpt lat="48.82103" lon="-0.37505">
        <ele>180</ele>
        <time>2016-05-21T12:01:27Z</time>
      </trkpt>
      <trkpt lat="48.821" lon="-0.37478">
        <ele>181</ele>
        <time>2016-05-21T12:01:36Z</time>
      </trkpt>
      <trkpt lat="48.8211" lon="-0.37463">
        <ele>182</ele>
        <time>2016-05-21T12:01:41Z</time>
      </trkpt>
      <trkpt lat="48.82123" lon="-0.37453">
        <ele>183</ele>
        <time>2016-05-21T12:01:46Z</time>
      </trkpt>
      <trkpt lat="48.82135" lon="-0.3744">
        <ele>185</ele>
        <time>2016-05-21T12:01:51Z</time>
      </trkpt>
      <trkpt lat="48.8214" lon="-0.3742">
        <ele>187</ele>
        <time>2016-05-21T12:01:56Z</time>
      </trkpt>
      <trkpt lat="48.82133" lon="-0.374">
        <ele>190</ele>
        <time>2016-05-21T12:02:01Z</time>
      </trkpt>
      <trkpt lat="48.8213" lon="-0.37378">
        <ele>192</ele>
        <time>2016-05-21T12:02:07Z</time>
      </trkpt>
      <trkpt lat="48.82135" lon="-0.37358">
        <ele>195</ele>
        <time>2016-05-21T12:02:16Z</time>
      </trkpt>
      <trkpt lat="48.8213" lon="-0.37338">
        <ele>196</ele>
        <time>2016-05-21T12:02:26Z</time>
      </trkpt>
      <trkpt lat="48.82123" lon="-0.37318">
        <ele>198</ele>
        <time>2016-05-21T12:02:36Z</time>
      </trkpt>
      <trkpt lat="48.82113" lon="-0.373">
        <ele>200</ele>
        <time>2016-05-21T12:02:45Z</time>
      </trkpt>
      <trkpt lat="48.82105" lon="-0.3728">
        <ele>202</ele>
        <time>2016-05-21T12:02:54Z</time>
      </trkpt>
      <trkpt lat="48.82095" lon="-0.37263">
        <ele>205</ele>
        <time>2016-05-21T12:03:02Z</time>
      </trkpt>
      <trkpt lat="48.82088" lon="-0.37245">
        <ele>206</ele>
        <time>2016-05-21T12:03:12Z</time>
      </trkpt>
      <trkpt lat="48.82078" lon="-0.37228">
        <ele>208</ele>
        <time>2016-05-21T12:03:21Z</time>
      </trkpt>
      <trkpt lat="48.8207" lon="-0.3721">
        <ele>211</ele>
        <time>2016-05-21T12:03:30Z</time>
      </trkpt>
      <trkpt lat="48.82058" lon="-0.3722">
        <ele>212</ele>
        <time>2016-05-21T12:03:39Z</time>
      </trkpt>
      <trkpt lat="48.82045" lon="-0.37235">
        <ele>215</ele>
        <time>2016-05-21T12:03:49Z</time>
      </trkpt>
      <trkpt lat="48.82025" lon="-0.3726">
        <ele>217</ele>
        <time>2016-05-21T12:04:26Z</time>
      </trkpt>
      <trkpt lat="48.82008" lon="-0.37278">
        <ele>217</ele>
        <time>2016-05-21T12:04:37Z</time>
      </trkpt>
      <trkpt lat="48.82013" lon="-0.373">
        <ele>217</ele>
        <time>2016-05-21T12:04:45Z</time>
      </trkpt>
      <trkpt lat="48.8202" lon="-0.37318">
        <ele>216</ele>
        <time>2016-05-21T12:04:49Z</time>
      </trkpt>
      <trkpt lat="48.82028" lon="-0.37345">
        <ele>216</ele>
        <time>2016-05-21T12:04:54Z</time>
      </trkpt>
      <trkpt lat="48.82038" lon="-0.3736">
        <ele>216</ele>
        <time>2016-05-21T12:04:58Z</time>
      </trkpt>
      <trkpt lat="48.82028" lon="-0.3738">
        <ele>213</ele>
        <time>2016-05-21T12:05:02Z</time>
      </trkpt>
      <trkpt lat="48.8202" lon="-0.37398">
        <ele>211</ele>
        <time>2016-05-21T12:05:05Z</time>
      </trkpt>
      <trkpt lat="48.82005" lon="-0.37413">
        <ele>211</ele>
        <time>2016-05-21T12:05:08Z</time>
      </trkpt>
      <trkpt lat="48.81993" lon="-0.37425">
        <ele>210</ele>
        <time>2016-05-21T12:05:11Z</time>
      </trkpt>
      <trkpt lat="48.81978" lon="-0.37438">
        <ele>209</ele>
        <time>2016-05-21T12:05:14Z</time>
      </trkpt>
      <trkpt lat="48.81963" lon="-0.37448">
        <ele>210</ele>
        <time>2016-05-21T12:05:18Z</time>
      </trkpt>
      <trkpt lat="48.81928" lon="-0.37458">
        <ele>213</ele>
        <time>2016-05-21T12:06:01Z</time>
      </trkpt>
      <trkpt lat="48.819" lon="-0.37443">
        <ele>219</ele>
        <time>2016-05-21T12:07:50Z</time>
      </trkpt>
      <trkpt lat="48.81878" lon="-0.3742">
        <ele>218</ele>
        <time>2016-05-21T12:09:07Z</time>
      </trkpt>
      <trkpt lat="48.81853" lon="-0.37403">
        <ele>226</ele>
        <time>2016-05-21T12:10:58Z</time>
      </trkpt>
      <trkpt lat="48.81838" lon="-0.37405">
        <ele>230</ele>
        <time>2016-05-21T12:11:30Z</time>
      </trkpt>
      <trkpt lat="48.81823" lon="-0.374">
        <ele>233</ele>
        <time>2016-05-21T12:11:38Z</time>
      </trkpt>
      <trkpt lat="48.81808" lon="-0.37403">
        <ele>234</ele>
        <time>2016-05-21T12:11:45Z</time>
      </trkpt>
      <trkpt lat="48.81795" lon="-0.37413">
        <ele>233</ele>
        <time>2016-05-21T12:11:49Z</time>
      </trkpt>
      <trkpt lat="48.81783" lon="-0.37423">
        <ele>233</ele>
        <time>2016-05-21T12:11:53Z</time>
      </trkpt>
      <trkpt lat="48.81765" lon="-0.37428">
        <ele>232</ele>
        <time>2016-05-21T12:11:57Z</time>
      </trkpt>
      <trkpt lat="48.8175" lon="-0.37435">
        <ele>232</ele>
        <time>2016-05-21T12:12:00Z</time>
      </trkpt>
      <trkpt lat="48.81738" lon="-0.37445">
        <ele>230</ele>
        <time>2016-05-21T12:12:03Z</time>
      </trkpt>
      <trkpt lat="48.81723" lon="-0.37455">
        <ele>229</ele>
        <time>2016-05-21T12:12:07Z</time>
      </trkpt>
      <trkpt lat="48.81705" lon="-0.37458">
        <ele>228</ele>
        <time>2016-05-21T12:12:13Z</time>
      </trkpt>
      <trkpt lat="48.8169" lon="-0.37465">
        <ele>227</ele>
        <time>2016-05-21T12:12:17Z</time>
      </trkpt>
      <trkpt lat="48.81675" lon="-0.37463">
        <ele>227</ele>
        <time>2016-05-21T12:12:21Z</time>
      </trkpt>
      <trkpt lat="48.8166" lon="-0.3746">
        <ele>225</ele>
        <time>2016-05-21T12:12:24Z</time>
      </trkpt>
      <trkpt lat="48.81643" lon="-0.37455">
        <ele>224</ele>
        <time>2016-05-21T12:12:27Z</time>
      </trkpt>
      <trkpt lat="48.81625" lon="-0.3745">
        <ele>221</ele>
        <time>2016-05-21T12:12:31Z</time>
      </trkpt>
      <trkpt lat="48.8161" lon="-0.37445">
        <ele>222</ele>
        <time>2016-05-21T12:12:35Z</time>
      </trkpt>
      <trkpt lat="48.81593" lon="-0.37443">
        <ele>221</ele>
        <time>2016-05-21T12:12:39Z</time>
      </trkpt>
      <trkpt lat="48.81578" lon="-0.37438">
        <ele>220</ele>
        <time>2016-05-21T12:12:43Z</time>
      </trkpt>
      <trkpt lat="48.81558" lon="-0.37428">
        <ele>221</ele>
        <time>2016-05-21T12:12:50Z</time>
      </trkpt>
      <trkpt lat="48.8154" lon="-0.37418">
        <ele>221</ele>
        <time>2016-05-21T12:12:56Z</time>
      </trkpt>
      <trkpt lat="48.81525" lon="-0.37415">
        <ele>221</ele>
        <time>2016-05-21T12:13:00Z</time>
      </trkpt>
      <trkpt lat="48.8151" lon="-0.37425">
        <ele>220</ele>
        <time>2016-05-21T12:13:05Z</time>
      </trkpt>
      <trkpt lat="48.81498" lon="-0.3744">
        <ele>219</ele>
        <time>2016-05-21T12:13:10Z</time>
      </trkpt>
      <trkpt lat="48.81483" lon="-0.37453">
        <ele>220</ele>
        <time>2016-05-21T12:13:14Z</time>
      </trkpt>
      <trkpt lat="48.81475" lon="-0.3747">
        <ele>219</ele>
        <time>2016-05-21T12:13:17Z</time>
      </trkpt>
      <trkpt lat="48.81465" lon="-0.3749">
        <ele>219</ele>
        <time>2016-05-21T12:13:22Z</time>
      </trkpt>
      <trkpt lat="48.81458" lon="-0.3751">
        <ele>219</ele>
        <time>2016-05-21T12:13:27Z</time>
      </trkpt>
      <trkpt lat="48.81445" lon="-0.37523">
        <ele>220</ele>
        <time>2016-05-21T12:13:35Z</time>
      </trkpt>
      <trkpt lat="48.81435" lon="-0.37538">
        <ele>220</ele>
        <time>2016-05-21T12:13:42Z</time>
      </trkpt>
      <trkpt lat="48.8143" lon="-0.37558">
        <ele>219</ele>
        <time>2016-05-21T12:13:48Z</time>
      </trkpt>
      <trkpt lat="48.81423" lon="-0.37588">
        <ele>218</ele>
        <time>2016-05-21T12:13:53Z</time>
      </trkpt>
      <trkpt lat="48.81415" lon="-0.37605">
        <ele>217</ele>
        <time>2016-05-21T12:13:56Z</time>
      </trkpt>
      <trkpt lat="48.8141" lon="-0.37628">
        <ele>216</ele>
        <time>2016-05-21T12:13:59Z</time>
      </trkpt>
      <trkpt lat="48.8141" lon="-0.37655">
        <ele>214</ele>
        <time>2016-05-21T12:14:02Z</time>
      </trkpt>
      <trkpt lat="48.8141" lon="-0.37693">
        <ele>212</ele>
        <time>2016-05-21T12:14:06Z</time>
      </trkpt>
      <trkpt lat="48.8141" lon="-0.37718">
        <ele>208</ele>
        <time>2016-05-21T12:14:09Z</time>
      </trkpt>
      <trkpt lat="48.81408" lon="-0.37745">
        <ele>206</ele>
        <time>2016-05-21T12:14:13Z</time>
      </trkpt>
      <trkpt lat="48.81405" lon="-0.37773">
        <ele>206</ele>
        <time>2016-05-21T12:14:18Z</time>
      </trkpt>
      <trkpt lat="48.81408" lon="-0.37798">
        <ele>206</ele>
        <time>2016-05-21T12:14:22Z</time>
      </trkpt>
      <trkpt lat="48.81405" lon="-0.37825">
        <ele>203</ele>
        <time>2016-05-21T12:14:26Z</time>
      </trkpt>
      <trkpt lat="48.81395" lon="-0.37845">
        <ele>200</ele>
        <time>2016-05-21T12:14:29Z</time>
      </trkpt>
      <trkpt lat="48.81385" lon="-0.37865">
        <ele>198</ele>
        <time>2016-05-21T12:14:32Z</time>
      </trkpt>
      <trkpt lat="48.81373" lon="-0.37885">
        <ele>196</ele>
        <time>2016-05-21T12:14:35Z</time>
      </trkpt>
      <trkpt lat="48.81363" lon="-0.379">
        <ele>195</ele>
        <time>2016-05-21T12:14:37Z</time>
      </trkpt>
      <trkpt lat="48.81345" lon="-0.37928">
        <ele>195</ele>
        <time>2016-05-21T12:14:41Z</time>
      </trkpt>
      <trkpt lat="48.8133" lon="-0.37945">
        <ele>194</ele>
        <time>2016-05-21T12:14:44Z</time>
      </trkpt>
      <trkpt lat="48.81323" lon="-0.37963">
        <ele>193</ele>
        <time>2016-05-21T12:14:48Z</time>
      </trkpt>
      <trkpt lat="48.81338" lon="-0.37968">
        <ele>191</ele>
        <time>2016-05-21T12:14:53Z</time>
      </trkpt>
      <trkpt lat="48.81353" lon="-0.37968">
        <ele>191</ele>
        <time>2016-05-21T12:15:00Z</time>
      </trkpt>
      <trkpt lat="48.8137" lon="-0.37978">
        <ele>189</ele>
        <time>2016-05-21T12:15:05Z</time>
      </trkpt>
      <trkpt lat="48.81385" lon="-0.37983">
        <ele>189</ele>
        <time>2016-05-21T12:15:08Z</time>
      </trkpt>
      <trkpt lat="48.81398" lon="-0.37993">
        <ele>188</ele>
        <time>2016-05-21T12:15:12Z</time>
      </trkpt>
      <trkpt lat="48.81413" lon="-0.38008">
        <ele>184</ele>
        <time>2016-05-21T12:15:15Z</time>
      </trkpt>
      <trkpt lat="48.8143" lon="-0.38003">
        <ele>184</ele>
        <time>2016-05-21T12:15:17Z</time>
      </trkpt>
      <trkpt lat="48.81453" lon="-0.37998">
        <ele>182</ele>
        <time>2016-05-21T12:15:22Z</time>
      </trkpt>
      <trkpt lat="48.8147" lon="-0.37988">
        <ele>181</ele>
        <time>2016-05-21T12:15:27Z</time>
      </trkpt>
      <trkpt lat="48.81485" lon="-0.3797">
        <ele>180</ele>
        <time>2016-05-21T12:15:30Z</time>
      </trkpt>
      <trkpt lat="48.81508" lon="-0.37948">
        <ele>179</ele>
        <time>2016-05-21T12:15:35Z</time>
      </trkpt>
      <trkpt lat="48.81533" lon="-0.37945">
        <ele>177</ele>
        <time>2016-05-21T12:15:38Z</time>
      </trkpt>
      <trkpt lat="48.81553" lon="-0.37948">
        <ele>175</ele>
        <time>2016-05-21T12:15:40Z</time>
      </trkpt>
      <trkpt lat="48.8157" lon="-0.37945">
        <ele>174</ele>
        <time>2016-05-21T12:15:44Z</time>
      </trkpt>
      <trkpt lat="48.8158" lon="-0.37963">
        <ele>172</ele>
        <time>2016-05-21T12:15:50Z</time>
      </trkpt>
      <trkpt lat="48.81598" lon="-0.37988">
        <ele>170</ele>
        <time>2016-05-21T12:15:56Z</time>
      </trkpt>
      <trkpt lat="48.81593" lon="-0.3801">
        <ele>169</ele>
        <time>2016-05-21T12:16:07Z</time>
      </trkpt>
      <trkpt lat="48.8158" lon="-0.38028">
        <ele>167</ele>
        <time>2016-05-21T12:16:12Z</time>
      </trkpt>
      <trkpt lat="48.8157" lon="-0.38045">
        <ele>166</ele>
        <time>2016-05-21T12:16:16Z</time>
      </trkpt>
      <trkpt lat="48.81563" lon="-0.38063">
        <ele>166</ele>
        <time>2016-05-21T12:16:19Z</time>
      </trkpt>
      <trkpt lat="48.81555" lon="-0.38085">
        <ele>165</ele>
        <time>2016-05-21T12:16:24Z</time>
      </trkpt>
      <trkpt lat="48.81545" lon="-0.38108">
        <ele>164</ele>
        <time>2016-05-21T12:16:28Z</time>
      </trkpt>
      <trkpt lat="48.8154" lon="-0.3813">
        <ele>163</ele>
        <time>2016-05-21T12:16:33Z</time>
      </trkpt>
      <trkpt lat="48.81535" lon="-0.38155">
        <ele>164</ele>
        <time>2016-05-21T12:16:39Z</time>
      </trkpt>
      <trkpt lat="48.81538" lon="-0.3819">
        <ele>166</ele>
        <time>2016-05-21T12:17:36Z</time>
      </trkpt>
      <trkpt lat="48.8154" lon="-0.38213">
        <ele>164</ele>
        <time>2016-05-21T12:17:45Z</time>
      </trkpt>
      <trkpt lat="48.8153" lon="-0.38233">
        <ele>163</ele>
        <time>2016-05-21T12:22:02Z</time>
      </trkpt>
      <trkpt lat="48.81525" lon="-0.38255">
        <ele>162</ele>
        <time>2016-05-21T12:22:07Z</time>
      </trkpt>
      <trkpt lat="48.81523" lon="-0.3828">
        <ele>161</ele>
        <time>2016-05-21T12:22:11Z</time>
      </trkpt>
      <trkpt lat="48.81528" lon="-0.38308">
        <ele>161</ele>
        <time>2016-05-21T12:22:14Z</time>
      </trkpt>
      <trkpt lat="48.81525" lon="-0.38333">
        <ele>159</ele>
        <time>2016-05-21T12:22:17Z</time>
      </trkpt>
      <trkpt lat="48.81523" lon="-0.38355">
        <ele>158</ele>
        <time>2016-05-21T12:22:20Z</time>
      </trkpt>
      <trkpt lat="48.81518" lon="-0.38383">
        <ele>155</ele>
        <time>2016-05-21T12:22:23Z</time>
      </trkpt>
      <trkpt lat="48.81515" lon="-0.3841">
        <ele>154</ele>
        <time>2016-05-21T12:22:26Z</time>
      </trkpt>
      <trkpt lat="48.81513" lon="-0.38433">
        <ele>154</ele>
        <time>2016-05-21T12:22:29Z</time>
      </trkpt>
      <trkpt lat="48.81508" lon="-0.38458">
        <ele>154</ele>
        <time>2016-05-21T12:22:32Z</time>
      </trkpt>
      <trkpt lat="48.81503" lon="-0.38493">
        <ele>154</ele>
        <time>2016-05-21T12:22:36Z</time>
      </trkpt>
      <trkpt lat="48.815" lon="-0.38515">
        <ele>155</ele>
        <time>2016-05-21T12:22:39Z</time>
      </trkpt>
      <trkpt lat="48.81498" lon="-0.3854">
        <ele>157</ele>
        <time>2016-05-21T12:22:43Z</time>
      </trkpt>
      <trkpt lat="48.81498" lon="-0.38563">
        <ele>158</ele>
        <time>2016-05-21T12:22:45Z</time>
      </trkpt>
      <trkpt lat="48.81493" lon="-0.38588">
        <ele>157</ele>
        <time>2016-05-21T12:22:49Z</time>
      </trkpt>
      <trkpt lat="48.8149" lon="-0.38615">
        <ele>157</ele>
        <time>2016-05-21T12:22:53Z</time>
      </trkpt>
      <trkpt lat="48.8149" lon="-0.38643">
        <ele>163</ele>
        <time>2016-05-21T12:23:34Z</time>
      </trkpt>
      <trkpt lat="48.81483" lon="-0.3866">
        <ele>161</ele>
        <time>2016-05-21T12:23:39Z</time>
      </trkpt>
      <trkpt lat="48.81475" lon="-0.38683">
        <ele>159</ele>
        <time>2016-05-21T12:23:44Z</time>
      </trkpt>
      <trkpt lat="48.81463" lon="-0.38703">
        <ele>158</ele>
        <time>2016-05-21T12:23:47Z</time>
      </trkpt>
      <trkpt lat="48.81445" lon="-0.3872">
        <ele>158</ele>
        <time>2016-05-21T12:23:50Z</time>
      </trkpt>
      <trkpt lat="48.81425" lon="-0.3873">
        <ele>157</ele>
        <time>2016-05-21T12:23:53Z</time>
      </trkpt>
      <trkpt lat="48.8141" lon="-0.3874">
        <ele>156</ele>
        <time>2016-05-21T12:23:56Z</time>
      </trkpt>
      <trkpt lat="48.81388" lon="-0.3876">
        <ele>156</ele>
        <time>2016-05-21T12:24:00Z</time>
      </trkpt>
      <trkpt lat="48.81353" lon="-0.38788">
        <ele>155</ele>
        <time>2016-05-21T12:24:05Z</time>
      </trkpt>
      <trkpt lat="48.81323" lon="-0.3881">
        <ele>154</ele>
        <time>2016-05-21T12:24:09Z</time>
      </trkpt>
      <trkpt lat="48.813" lon="-0.38813">
        <ele>154</ele>
        <time>2016-05-21T12:24:12Z</time>
      </trkpt>
      <trkpt lat="48.81275" lon="-0.38803">
        <ele>152</ele>
        <time>2016-05-21T12:24:15Z</time>
      </trkpt>
      <trkpt lat="48.8126" lon="-0.38798">
        <ele>151</ele>
        <time>2016-05-21T12:24:18Z</time>
      </trkpt>
      <trkpt lat="48.81245" lon="-0.38798">
        <ele>149</ele>
        <time>2016-05-21T12:24:21Z</time>
      </trkpt>
      <trkpt lat="48.81248" lon="-0.3882">
        <ele>147</ele>
        <time>2016-05-21T12:24:27Z</time>
      </trkpt>
      <trkpt lat="48.81253" lon="-0.38843">
        <ele>147</ele>
        <time>2016-05-21T12:24:29Z</time>
      </trkpt>
      <trkpt lat="48.8126" lon="-0.38863">
        <ele>146</ele>
        <time>2016-05-21T12:24:32Z</time>
      </trkpt>
      <trkpt lat="48.81268" lon="-0.38883">
        <ele>143</ele>
        <time>2016-05-21T12:24:36Z</time>
      </trkpt>
      <trkpt lat="48.81288" lon="-0.3893">
        <ele>140</ele>
        <time>2016-05-21T12:24:42Z</time>
      </trkpt>
      <trkpt lat="48.81303" lon="-0.38928">
        <ele>140</ele>
        <time>2016-05-21T12:24:46Z</time>
      </trkpt>
      <trkpt lat="48.81313" lon="-0.38913">
        <ele>139</ele>
        <time>2016-05-21T12:24:51Z</time>
      </trkpt>
    </trkseg>
  </trk>
</gpx>